[[{"header":{"parameterUnit":"m.s-1","parameterCategory":1,"la1":31.0,"la2":29.5877,"lo1":-88.7671,"lo2":-86.6584,"dy":0.0162,"dx":0.0185,"nx":115,"ny":88,"refTime":"2024-04-01T18:00:00:Z","depth":0,"parameterNumber":2,"parameterNumberName":"U-component_of_WINDS"},"data":[0.0,0.0,0.0,0.0,0.0,0.0,0.0,0.0,0.0,0.0,0.0,0.0,0.0,0.0,0.0,0.0,0.0,0.0,0.0,0.0,0.0,0.0,0.0,0.0,0.0,0.0,0.0,0.0,0.0,0.0,0.0,0.0,0.0,0.0,0.0,0.0,0.0,0.0,0.0,0.0,0.0,0.0,0.0,0.0,0.0,0.0,0.0,0.0,0.0,0.0,0.0,0.0,0.0,0.0,0.0,0.0,0.0,0.0,0.0,0.0,0.0,0.0,0.0,0.0,0.0,0.0,0.0,0.0,0.0,0.0,0.0,0.0,0.0,0.0,0.0,0.0,0.0,0.0,0.0,0.0,0.0,0.0,0.0,0.0,0.0,0.0,0.0,0.0,0.0,0.0,0.0,0.0,0.0,0.0,0.0,0.0,0.0,0.0,0.0,0.0,0.0,0.0,0.0,0.0,0.0,0.0,0.0,0.0,0.0,0.0,0.0,0.0,0.0,0.0,0.0,0.0,0.0,0.0,0.0,0.0,0.0,0.0,0.0,0.0,0.0,0.0,0.0,0.0,0.0,0.0,0.0,0.0,0.0,0.0,0.0,0.0,0.0,0.0,0.0,0.0,0.0,0.0,0.0,0.0,0.0,0.0,0.0,0.0,0.0,0.0,0.0,0.0,0.0,0.0,0.0,0.0,0.0,0.0,0.0,0.0,0.0,0.0,0.0,0.0,0.0,0.0,0.0,0.0,0.0,0.0,0.0,0.0,0.0,0.0,0.0,0.0,0.0,0.0,0.0,0.0,0.0,0.0,0.0,0.0,0.0,0.0,0.0,0.0,0.0,0.0,0.0,0.0,0.0,0.0,0.0,0.0,0.0,0.0,0.0,0.0,0.0,0.0,0.0,0.0,0.0,0.0,0.0,0.0,0.0,0.0,0.0,0.0,0.0,0.0,0.0,0.0,0.0,0.0,0.0,0.0,0.0,0.0,0.0,0.0,0.0,0.0,0.0,0.0,0.0,0.0,0.0,0.0,0.0,0.0,0.0,0.0,0.0,0.0,0.0,0.0,0.0,0.0,0.0,0.0,0.0,0.0,0.0,0.0,0.0,0.0,0.0,0.0,0.0,0.0,0.0,0.0,0.0,0.0,0.0,0.0,0.0,0.0,0.0,0.0,0.0,0.0,0.0,0.0,0.0,0.0,0.0,0.0,0.0,0.0,0.0,0.0,0.0,0.0,0.0,0.0,0.0,0.0,0.0,0.0,0.0,0.0,0.0,0.0,0.0,0.0,0.0,0.0,0.0,0.0,0.0,0.0,0.0,0.0,0.0,0.0,0.0,0.0,0.0,0.0,0.0,0.0,0.0,0.0,0.0,0.0,0.0,0.0,0.0,0.0,0.0,0.0,0.0,0.0,0.0,0.0,0.0,0.0,0.0,0.0,0.0,0.0,0.0,0.0,0.0,0.0,0.0,0.0,0.0,0.0,0.0,0.0,0.0,0.0,0.0,0.0,0.0,0.0,0.0,0.0,0.0,0.0,0.0,0.0,0.0,0.0,0.0,0.0,0.0,0.0,0.0,0.0,0.0,0.0,0.0,0.0,0.0,0.0,0.0,0.0,0.0,0.0,0.0,0.0,0.0,0.0,0.0,0.0,0.0,0.0,0.0,0.0,0.0,0.0,0.0,0.0,0.0,0.0,0.0,0.0,0.0,0.0,0.0,0.0,0.0,0.0,0.0,0.0,0.0,0.0,0.0,0.0,0.0,0.0,0.0,0.0,0.0,0.0,0.0,0.0,0.0,0.0,0.0,0.0,0.0,0.0,0.0,0.0,0.0,0.0,0.0,0.0,0.0,0.0,0.0,0.0,0.0,0.0,0.0,0.0,0.0,0.0,0.0,0.0,0.0,0.0,0.0,0.0,0.0,0.0,0.0,0.0,0.0,0.0,0.0,0.0,0.0,0.0,0.0,0.0,0.0,0.0,0.0,0.0,0.0,0.0,0.0,0.0,0.0,0.0,0.0,0.0,0.0,0.0,0.0,0.0,0.0,0.0,0.0,0.0,0.0,0.0,0.0,0.0,0.0,0.0,0.0,0.0,0.0,0.0,0.0,0.0,0.0,0.0,0.0,0.0,0.0,0.0,0.0,0.0,0.0,0.0,0.0,0.0,0.0,0.0,0.0,0.0,0.0,0.0,0.0,0.0,0.0,0.0,0.0,0.0,0.0,0.0,0.0,0.0,0.0,0.0,0.0,0.0,0.0,0.0,0.0,0.0,0.0,0.0,0.0,0.0,0.0,0.0,0.0,0.0,0.0,0.0,0.0,0.0,0.0,0.0,0.0,0.0,0.0,0.0,0.0,0.0,0.0,0.0,0.0,0.0,0.0,0.0,0.0,0.0,0.0,0.0,0.0,0.0,0.0,0.0,0.0,0.0,0.0,0.0,0.0,0.0,0.0,0.0,0.0,0.0,0.0,0.0,0.0,0.0,0.0,0.0,0.0,0.0,0.0,0.0,0.0,0.0,0.0,0.0,0.0,0.0,0.0,0.0,0.0,0.0,0.0,0.0,0.0,0.0,0.0,0.0,0.0,0.0,0.0,0.0,0.0,0.0,0.0,0.0,0.0,0.0,0.0,0.0,0.0,0.0,0.0,0.0,0.0,0.0,0.0,0.0,0.0,0.0,0.0,0.0,0.0,0.0,0.0,0.0,0.0,0.0,0.0,0.0,0.0,0.0,0.0,0.0,0.0,0.0,0.0,0.0,0.0,0.0,0.0,0.0,0.0,0.0,0.0,0.0,0.0,0.0,0.0,0.0,0.0,0.0,0.0,0.0,0.0,0.0,0.0,0.0,0.0,0.0,0.0,0.0,0.0,0.0,0.0,0.0,0.0,0.0,0.0,0.0,0.0,0.0,0.0,0.0,0.0,0.0,0.0,0.0,0.0,0.0,0.0,0.0,0.0,0.0,0.0,0.0,0.0,0.0,0.0,0.0,0.0,0.0,0.0,0.0,0.0,0.0,0.0,0.0,0.0,0.0,0.0,0.0,0.0,0.0,0.0,0.0,0.0,0.0,0.0,0.0,0.0,0.0,0.0,0.0,0.0,0.0,0.0,0.0,0.0,0.0,0.0,0.0,0.0,0.0,0.0,0.0,0.0,0.0,0.0,0.0,0.0,0.0,0.0,0.0,0.0,0.0,0.0,0.0,0.0,0.0,0.0,0.0,0.0,0.0,0.0,0.0,0.0,0.0,0.0,0.0,0.0,0.0,0.0,0.0,0.0,0.0,0.0,0.0,0.0,0.0,0.0,0.0,0.0,0.0,0.0,0.0,0.0,0.0,0.0,0.0,0.0,0.0,0.0,0.0,0.0,0.0,0.0,0.0,0.0,0.0,0.0,0.0,0.0,0.0,0.0,0.0,0.0,0.0,0.0,0.0,0.0,0.0,0.0,0.0,0.0,0.0,0.0,0.0,0.0,0.0,0.0,0.0,0.0,0.0,0.0,0.0,0.0,0.0,0.0,0.0,0.0,0.0,0.0,0.0,0.0,0.0,0.0,0.0,0.0,0.0,0.0,0.0,0.0,0.0,0.0,0.0,0.0,0.0,0.0,0.0,0.0,0.0,0.0,0.0,0.0,0.0,0.0,0.0,0.0,0.0,0.0,0.0,0.0,0.0,0.0,0.0,0.0,0.0,0.0,0.0,0.0,0.0,0.0,0.0,0.0,0.0,0.0,0.0,0.0,0.0,0.0,0.0,0.0,0.0,0.0,0.0,0.0,0.0,0.0,0.0,0.0,0.0,0.0,0.0,0.0,0.0,0.0,0.0,0.0,0.0,0.0,0.0,0.0,0.0,0.0,0.0,0.0,0.0,0.0,0.0,0.0,0.0,0.0,0.0,0.0,0.0,0.0,0.0,0.0,0.0,0.0,0.0,0.0,0.0,0.0,0.0,0.0,0.0,0.0,0.0,0.0,0.0,0.0,0.0,0.0,0.0,0.0,0.0,0.0,0.0,0.0,0.0,0.0,0.0,0.0,0.0,0.0,0.0,0.0,0.0,0.0,0.0,0.0,0.0,0.0,0.0,0.0,0.0,0.0,0.0,0.0,0.0,0.0,0.0,0.0,0.0,0.0,0.0,0.0,0.0,0.0,0.0,0.0,0.0,0.0,0.0,0.0,0.0,0.0,0.0,0.0,0.0,0.0,0.0,0.0,0.0,0.0,0.0,0.0,0.0,0.0,0.0,0.0,0.0,0.0,0.0,0.0,0.0,0.0,0.0,0.0,0.0,0.5297,0.0,0.0,0.0,0.0,0.0,0.0,0.0,0.0,0.0,0.0,0.0,0.0,0.0,0.0,0.0,0.0,0.0,0.0,0.0,0.0,0.0,0.0,0.0,0.0,0.0,0.0,0.0,0.0,0.0,0.0,0.0,0.0,0.0,0.0,0.0,0.0,0.0,0.0,0.0,0.0,0.0,0.0,0.0,0.0,0.0,0.0,0.0,0.0,0.0,0.0,0.0,0.0,0.0,0.0,0.0,0.0,0.0,0.0,0.0,0.0,0.0,0.0,0.0,0.0,0.0,0.0,0.0,0.0,0.0,0.0,0.0,0.0,0.0,0.0,0.0,0.0,0.0,0.0,0.0,0.0,0.0,0.0,0.0,0.0,0.0,0.0,0.0,0.0,0.0,0.0,0.0,0.0,0.0,0.0,0.0,0.0,0.0,0.0,0.0,0.0,0.0,0.0,0.0,0.0,0.0,0.0,0.0,0.0,0.0,0.0,0.6273,0.6273,0.6,0.5946,0.6273,0.0,0.0,0.0,0.0,0.0,0.0,0.0,0.0,0.0,0.0,0.0,0.0,0.0,0.0,0.0,0.0,0.0,0.0,0.0,0.0,0.0,0.0,0.0,0.0,0.0,0.0,0.0,0.0,0.0,0.0,0.0,0.0,0.0,0.0,0.0,0.0,0.0,0.0,0.0,0.0,0.0,0.0,0.0,0.0,0.0,0.0,0.0,0.0,0.0,0.0,0.0,0.0,0.0,0.0,0.0,0.0,0.0,0.0,0.0,0.0,0.0,0.0,0.0,0.0,0.0,0.0,0.0,0.0,0.0,0.0,0.0,0.0,0.0,0.0,0.0,0.0,0.0,0.0,0.0,0.0,0.0,0.0,0.0,0.0,0.0,0.0,0.0,0.0,0.0,0.0,0.0,0.0,0.0,0.0,0.0,0.0,0.0,0.0,0.0,0.0,0.0,0.0,0.0,0.0,0.0,0.0,0.0,0.0,0.0,0.0,0.0,0.0,0.7007,0.6921,0.7388,0.0,0.0,0.0,0.0,0.0,0.0,0.0,0.0,0.0,0.0,0.0,0.0,0.0,0.0,0.0,0.0,0.0,0.0,0.0,0.0,0.0,0.0,0.0,0.0,0.0,0.0,0.0,0.0,0.0,0.0,0.0,0.0,0.0,0.0,0.0,0.0,0.0,0.0,0.0,0.0,0.0,0.0,0.0,0.0,0.0,0.0,0.0,0.0,0.0,0.0,0.0,0.0,0.0,0.0,0.0,0.0,0.0,0.0,0.0,0.0,0.0,0.0,0.0,0.0,0.0,0.0,0.0,0.0,0.0,0.0,0.0,0.0,0.0,0.0,0.0,0.0,0.0,0.0,0.0,0.0,0.0,0.0,0.0,0.0,0.0,0.0,0.0,0.0,0.0,0.0,0.0,0.0,0.0,0.0,0.0,0.0,0.0,0.0,0.0,0.0,0.0,0.0,0.0,0.0,0.0,0.0,0.0,0.0,0.0,0.0,0.7608,0.8576,0.8326,0.0,0.8287,0.0,0.0,0.0,0.0,0.0,0.0,0.0,0.0,0.0,0.0,0.0,0.0,0.0,0.0,0.0,0.0,0.0,0.0,0.0,0.0,0.0,0.0,0.0,0.0,0.0,0.0,0.0,0.0,0.0,0.0,0.0,0.0,0.0,0.0,0.0,0.0,0.0,0.0,0.0,0.0,0.0,0.0,0.0,0.0,0.0,0.0,0.0,0.0,0.0,0.0,0.0,0.0,0.0,0.0,0.0,0.0,0.0,0.0,0.0,0.0,0.0,0.0,0.0,0.0,0.0,0.0,0.0,0.0,0.0,0.0,0.0,0.0,0.0,0.0,0.0,0.0,0.0,0.0,0.0,0.0,0.0,0.0,0.0,0.0,0.0,0.0,0.0,0.0,0.0,0.0,0.0,0.0,0.0,0.0,0.0,0.0,0.0,0.0,0.0,0.0,0.0,0.0,0.0,0.0,0.0,0.0,0.0,0.0,0.0,0.0,0.8706,0.9519,0.9494,0.892,0.0,0.0,0.0,0.0,0.0,0.0,0.0,0.0,0.0,0.0,0.0,0.0,0.0,0.0,0.0,0.0,0.0,0.0,0.0,0.0,0.0,0.0,0.0,0.0,0.0,0.0,0.0,0.0,0.0,0.0,0.0,0.0,0.0,0.0,0.0,0.0,0.0,0.0,0.0,0.0,0.0,0.0,0.0,0.0,0.0,0.0,0.0,0.0,0.0,0.0,0.0,0.0,0.0,0.0,0.0,0.0,0.0,0.0,0.0,0.0,0.0,0.0,0.0,0.0,0.0,0.0,0.0,0.0,0.0,0.0,0.0,0.0,0.0,0.0,0.0,0.0,0.0,0.0,0.0,0.0,0.0,0.0,0.0,0.0,0.0,0.0,0.0,0.0,0.0,0.0,0.0,0.0,0.0,0.0,0.0,0.0,0.0,0.0,0.0,0.0,0.0,0.0,0.0,0.0,0.0,0.0,0.0,0.0,0.0,0.0,0.9539,0.9806,1.0408,1.0154,0.9407,0.827,0.0,0.0,0.0,0.0,0.0,0.0,0.0,0.0,0.0,0.0,0.0,0.0,0.0,0.0,0.0,0.0,0.0,0.0,0.0,0.0,0.0,0.0,0.0,0.0,0.0,0.0,0.0,0.0,0.0,0.0,0.0,0.0,0.0,0.0,0.0,0.0,0.0,0.0,0.0,0.0,0.0,0.0,0.0,0.0,0.0,0.0,0.0,0.0,0.0,0.0,0.0,0.0,0.0,0.0,0.0,0.0,0.0,0.0,0.0,0.0,0.0,0.0,0.0,0.0,0.0,0.0,0.0,0.0,0.0,0.0,0.0,0.0,0.0,0.0,0.0,0.0,0.0,0.0,0.0,0.0,0.0,0.0,0.0,0.0,0.0,0.0,0.0,0.0,0.0,0.0,0.0,0.0,0.0,0.0,0.0,0.0,0.0,0.0,0.0,0.0,0.0,0.0,0.0,0.0,0.0,0.0,0.0,0.0,1.1557,1.0621,1.0488,1.1208,1.0287,0.982,0.0,0.0,0.0,0.0,0.0,0.0,0.0,0.0,0.0,0.0,0.0,0.0,0.0,0.0,0.0,0.0,0.0,0.0,0.0,0.0,0.0,0.0,0.0,0.0,0.0,0.0,0.0,0.0,0.0,0.0,0.0,0.0,0.0,0.0,0.0,0.0,0.0,0.0,0.0,0.0,0.0,0.0,0.0,0.0,0.0,0.0,0.0,0.0,0.0,0.0,0.0,0.0,0.0,0.0,0.0,0.0,0.0,0.0,0.0,0.0,0.0,0.0,0.0,0.0,0.0,0.0,0.0,0.0,0.0,0.0,0.0,0.0,0.0,0.0,0.0,0.0,0.0,0.0,0.0,0.0,0.0,0.0,0.0,0.0,0.0,0.0,0.0,0.0,0.0,0.0,0.0,0.0,0.0,0.0,0.0,0.0,0.0,0.0,0.0,0.0,0.0,0.0,0.0,0.0,0.0,0.0,0.0,0.0,0.0,0.9873,1.0047,1.0354,1.0822,1.0274,1.0007,0.0,0.0,0.0,0.0,0.0,0.0,0.0,0.0,0.0,0.0,0.0,0.0,0.0,0.0,0.0,0.0,0.0,0.0,0.0,0.0,0.0,0.0,0.0,0.0,0.0,0.0,0.0,0.0,0.0,0.0,0.0,0.0,0.0,0.0,0.0,0.0,0.0,0.0,0.0,0.0,0.0,0.0,0.0,0.0,0.0,0.0,0.0,0.0,0.0,0.0,0.0,0.0,0.0,0.0,0.0,0.0,0.0,0.0,0.0,0.0,0.0,0.0,0.0,0.0,0.0,0.0,0.0,0.0,0.0,0.0,0.0,0.0,0.0,0.0,0.0,0.0,0.0,0.0,0.0,0.0,0.0,0.0,0.0,0.0,0.0,0.0,0.0,0.0,0.0,0.0,0.0,0.0,0.0,0.0,0.0,0.0,0.0,0.0,0.0,0.0,0.0,0.0,0.0,0.0,0.0,0.0,0.0,0.0,0.0,0.9435,0.0,1.0573,1.0654,1.0241,0.9946,0.0,0.0,0.0,0.0,0.0,0.0,0.0,0.0,0.0,0.0,0.0,0.0,0.0,0.0,0.0,0.0,0.0,0.0,0.0,0.0,0.0,0.0,0.0,0.0,0.0,0.0,0.0,0.0,0.0,0.0,0.0,0.0,0.0,0.0,0.0,0.0,0.0,0.0,0.0,0.0,0.0,0.0,0.0,0.0,0.0,0.0,0.0,0.0,0.0,0.0,0.0,0.0,0.0,0.0,0.0,0.0,0.0,0.0,0.0,0.0,0.0,0.0,0.0,0.0,0.0,0.0,0.0,0.0,0.0,0.0,0.0,0.0,0.0,0.0,0.0,0.0,0.0,0.0,0.0,0.0,0.0,0.0,0.0,0.0,0.0,0.0,0.0,0.0,0.0,0.0,0.0,0.0,0.0,0.0,0.0,0.0,0.0,0.0,0.0,0.0,0.0,0.0,0.0,0.0,0.0,0.0,0.0,0.0,0.9491,1.0711,1.1247,1.1224,1.0821,1.0246,0.9588,0.0,0.0,0.0,0.0,0.0,0.0,0.0,0.0,0.0,0.0,0.0,0.0,0.0,0.0,0.0,0.0,0.0,0.0,0.0,0.0,0.0,0.0,0.0,0.0,0.0,0.0,0.0,0.0,0.0,0.0,0.0,0.0,0.0,0.0,0.0,0.0,0.0,0.0,0.0,0.0,0.0,0.0,0.0,0.0,0.0,0.0,0.0,0.0,0.0,0.0,0.0,0.0,0.0,0.0,0.0,0.0,0.0,0.0,0.0,0.0,0.0,0.0,0.0,0.0,0.0,0.0,0.0,0.0,0.0,0.0,0.0,0.0,0.0,0.0,0.0,0.0,0.0,0.0,0.0,0.0,0.0,0.0,0.0,0.0,0.0,0.0,0.0,0.0,0.0,0.0,0.0,0.0,0.0,0.0,0.0,0.0,0.0,0.0,0.0,0.0,0.0,0.0,0.0,0.0,0.0,0.0,0.0,0.0,0.0,1.005,1.0821,1.1465,1.1941,1.0523,1.0175,0.0,0.0,0.0,0.0,0.0,0.0,0.0,0.0,0.0,0.0,0.0,0.0,0.0,0.0,0.0,0.0,0.0,0.0,0.0,0.0,0.0,0.0,0.0,0.0,0.0,0.0,0.0,0.0,0.0,0.0,0.0,0.0,0.0,0.0,0.0,0.0,0.0,0.0,0.0,0.0,0.0,0.0,0.0,0.0,0.0,0.0,0.0,0.0,0.0,0.0,0.0,0.0,0.0,0.0,0.0,0.0,0.0,0.0,0.0,0.0,0.0,0.0,0.0,0.0,0.0,0.0,0.0,0.0,0.0,0.0,0.0,0.0,0.0,0.0,0.0,0.0,0.0,0.0,0.0,0.0,0.0,0.0,0.0,0.0,0.0,0.0,0.0,0.0,0.0,0.0,0.0,0.0,0.0,0.0,0.0,0.0,0.0,0.0,0.0,0.0,0.0,0.0,0.0,0.0,0.0,0.0,0.0,0.0,0.0,1.1339,1.1897,1.2301,1.2572,1.1326,1.0831,1.1073,0.0,0.0,0.0,0.0,0.0,0.0,0.0,0.0,0.0,0.0,0.0,0.0,0.0,0.0,0.0,0.0,0.0,0.0,0.0,0.0,0.0,0.0,0.0,0.0,0.0,0.0,0.0,0.0,0.0,0.0,0.0,0.0,0.0,0.0,0.0,0.0,0.0,0.0,0.0,0.0,0.0,0.0,0.0,0.0,0.0,0.0,0.0,0.0,0.0,0.0,0.0,0.0,0.0,0.0,0.0,0.0,0.0,0.0,0.0,0.0,0.0,0.0,0.0,0.0,0.0,0.0,0.0,0.0,0.0,0.0,0.0,0.0,0.0,0.0,0.0,0.0,0.0,0.0,0.0,0.0,0.0,0.0,0.0,0.0,0.0,0.0,0.0,0.0,0.0,0.0,0.0,0.0,0.0,0.0,0.0,0.0,0.0,0.0,0.0,0.0,0.0,0.0,0.0,0.0,0.0,0.0,0.0,0.0,1.4077,1.4209,1.3914,1.31,1.2625,1.1611,0.0,0.0,0.0,0.0,0.0,0.0,0.0,0.0,0.0,0.0,0.0,0.0,0.0,0.0,0.0,0.0,0.0,0.0,0.0,0.0,0.0,0.0,0.0,0.0,0.0,0.0,0.0,0.0,0.0,0.0,0.0,0.0,0.0,0.0,0.0,0.0,0.0,0.0,0.0,0.0,0.0,0.0,0.0,0.0,0.0,0.0,0.0,0.0,0.0,0.0,0.0,0.0,0.0,0.0,0.0,0.0,0.0,0.0,0.0,0.0,0.0,0.0,0.0,0.0,0.0,0.0,0.0,0.0,0.0,0.0,0.0,0.0,0.0,0.0,0.0,0.0,0.0,0.0,0.0,0.0,0.0,0.0,0.0,0.0,0.0,0.0,0.0,0.0,0.0,0.0,0.0,0.0,0.0,0.0,0.0,0.0,0.0,0.0,0.0,0.0,0.0,0.0,0.0,0.0,0.0,0.0,0.0,0.0,0.0,1.5394,1.7033,1.7355,1.6126,1.4205,1.2968,0.0,0.0,0.0,0.0,0.0,0.0,0.0,0.0,0.0,0.0,0.0,0.0,0.0,0.0,0.0,0.0,0.0,0.0,0.0,0.0,0.0,0.0,0.0,0.0,0.0,0.0,0.0,0.0,0.0,0.0,0.0,0.0,0.0,0.0,0.0,0.0,0.0,0.0,0.0,0.0,0.0,0.0,0.0,0.0,0.0,0.0,0.0,0.0,0.0,0.0,0.0,0.0,0.0,0.0,0.0,0.0,0.0,0.0,0.0,0.0,0.0,0.0,0.0,0.0,0.0,0.0,0.0,0.0,0.0,0.0,0.0,0.0,0.0,0.0,0.0,0.0,0.0,0.0,0.0,0.0,0.0,0.0,0.0,0.0,0.0,0.0,0.0,0.0,0.0,0.0,0.0,0.0,0.0,0.0,0.0,0.0,0.0,0.0,0.0,0.0,0.0,0.0,0.0,0.0,0.0,0.0,0.0,0.0,1.516,1.6901,1.8994,1.9725,1.8979,1.6726,1.4735,0.0,0.0,0.0,0.0,0.0,0.0,0.0,0.0,0.0,0.0,0.0,0.0,0.0,0.0,0.0,0.0,0.0,0.0,0.0,0.0,0.0,0.0,0.0,0.0,0.0,0.0,0.0,0.0,0.0,0.0,0.0,0.0,0.0,0.0,0.0,0.0,0.0,0.0,0.0,0.0,0.0,0.0,0.0,0.0,0.0,0.0,0.0,0.0,0.0,0.0,0.0,0.0,0.0,0.0,0.0,0.0,0.0,0.0,0.0,0.0,0.0,0.0,0.0,0.0,0.0,0.0,0.0,0.0,0.0,0.0,0.0,0.0,0.0,0.0,0.0,0.0,0.0,0.0,0.0,0.0,0.0,0.0,0.0,0.0,0.0,0.0,0.0,0.0,0.0,0.0,0.0,0.0,0.0,0.0,0.0,0.0,0.0,0.0,0.0,0.0,0.0,0.0,0.0,0.0,0.0,0.0,0.0,0.0,1.6448,1.8321,2.0325,2.132,2.1203,1.9301,1.6535,0.0,0.0,0.0,0.0,0.0,0.0,0.0,0.0,0.0,0.0,0.0,0.0,0.0,0.0,0.0,0.0,0.0,0.0,0.0,0.0,0.0,0.0,0.0,0.0,0.0,0.0,0.0,0.0,0.0,0.0,0.0,0.0,0.0,0.0,0.0,0.0,0.0,0.0,0.0,0.0,0.0,0.0,0.0,0.0,0.0,0.0,0.0,0.0,0.0,0.0,0.0,0.0,0.0,0.0,0.0,0.0,0.0,0.0,0.0,0.0,0.0,0.0,0.0,0.0,0.0,0.0,0.0,0.0,0.0,0.0,0.0,0.0,0.0,0.0,0.0,0.0,0.0,0.0,0.0,0.0,0.0,0.0,0.0,0.0,0.0,0.0,0.0,0.0,0.0,0.0,0.0,0.0,0.0,0.0,0.0,0.0,0.0,0.0,0.0,0.0,0.0,0.0,0.0,0.0,0.0,0.0,0.0,0.0,1.6989,1.8672,2.1072,2.2096,2.1598,1.9213,1.6828,0.0,0.0,0.0,0.0,0.0,0.0,0.0,0.0,0.0,0.0,0.0,0.0,0.0,0.0,0.0,0.0,0.0,0.0,0.0,0.0,0.0,0.0,0.0,0.0,0.0,0.0,0.0,0.0,0.0,0.0,0.0,0.0,0.0,0.0,0.0,0.0,0.0,0.0,0.0,0.0,0.0,0.0,0.0,0.0,0.0,0.0,0.0,0.0,1.3884,0.0,0.0,0.0,0.0,0.0,0.0,0.0,0.0,0.0,0.0,0.0,0.0,0.0,0.0,0.0,0.0,0.0,0.0,0.0,0.0,0.0,0.0,0.0,0.0,0.0,0.0,0.0,0.0,0.0,0.0,0.0,0.0,0.0,0.0,0.0,0.0,0.0,0.0,0.0,0.0,0.0,0.0,0.0,0.0,0.0,0.0,0.0,0.0,0.0,0.0,0.0,0.0,0.0,0.0,0.0,0.0,0.0,0.0,0.0,1.8133,1.9667,2.1613,2.263,2.2436,2.0635,1.8148,0.0,0.0,0.0,0.0,0.0,0.0,0.0,0.0,0.0,0.0,0.0,0.0,0.0,0.0,0.0,0.0,0.0,0.0,0.0,0.0,0.0,0.0,0.0,0.0,0.0,0.0,0.0,0.0,0.0,0.0,0.0,0.0,0.0,0.0,0.0,0.0,0.0,0.0,0.0,0.0,0.0,0.0,0.0,0.0,0.0,0.0,0.0,0.0,0.0,0.0,0.0,0.0,0.0,0.0,0.0,0.0,0.0,0.0,0.0,0.0,0.0,0.0,0.0,0.0,0.0,0.0,0.0,0.0,0.0,0.0,0.0,0.0,0.0,0.0,0.0,0.0,0.0,0.0,0.0,0.0,0.0,0.0,0.0,0.0,0.0,0.0,0.0,0.0,0.0,0.0,0.0,0.0,0.0,0.0,0.0,0.0,0.0,0.0,0.0,0.0,0.0,0.0,0.0,0.0,0.0,0.0,0.0,1.7049,1.9178,2.0906,2.2186,2.3006,2.333,2.2401,1.9814,1.5716,0.0,0.0,0.0,0.0,0.0,0.0,0.0,0.0,0.0,0.0,0.0,0.0,0.0,0.0,0.0,0.0,0.0,0.0,0.0,0.0,0.0,0.0,0.0,0.0,0.0,0.0,0.0,0.0,0.0,0.0,0.0,0.0,0.0,0.0,0.0,0.0,0.0,0.0,1.1023,1.2604,0.0,0.0,0.0,0.0,0.0,0.0,0.0,0.0,1.5176,0.0,0.0,0.0,0.0,0.0,0.0,0.0,0.0,0.0,0.0,0.0,0.0,0.0,0.0,0.0,0.0,0.0,0.0,0.0,0.0,0.0,0.0,0.0,0.0,0.0,0.0,0.0,0.0,0.0,0.0,0.0,0.0,0.0,0.0,0.0,0.0,0.0,0.0,0.0,0.0,0.0,0.0,0.0,0.0,0.0,0.0,0.0,0.0,0.0,0.0,0.0,0.0,0.0,0.0,0.0,0.0,1.7121,1.737,1.9089,2.2145,2.361,2.3612,2.2528,2.2958,2.1065,1.6521,0.0,0.0,0.0,0.0,0.0,0.0,0.0,0.0,0.0,0.0,0.0,0.0,0.0,0.0,0.0,0.0,0.0,0.0,0.0,0.0,0.0,0.0,0.0,0.0,0.0,0.0,0.0,0.0,0.0,0.0,0.0,0.0,0.0,0.0,0.0,0.0,0.0,0.0,0.0,1.5457,1.6798,0.0,0.0,0.0,0.0,0.0,0.0,0.0,0.0,1.6602,0.0,0.0,0.0,0.0,0.0,0.0,0.0,0.0,0.0,0.0,0.0,0.0,0.0,0.0,0.0,0.0,0.0,0.0,0.0,0.0,0.0,0.0,0.0,0.0,0.0,0.0,0.0,0.0,0.0,0.0,0.0,0.0,0.0,0.0,0.0,0.0,0.0,0.0,0.0,0.0,0.0,0.0,0.0,0.0,0.0,0.0,0.0,0.0,0.0,0.0,0.0,0.0,0.0,0.0,0.0,1.7722,1.987,2.2034,2.4268,2.5152,2.5267,2.4828,2.4183,2.1994,0.0,0.0,0.0,0.0,0.0,0.0,0.0,0.0,0.0,0.0,0.0,0.0,0.0,0.0,0.0,0.0,0.0,0.0,0.0,0.0,0.0,0.0,0.0,0.0,0.0,0.0,0.0,0.0,0.0,0.0,0.0,0.0,0.0,0.0,0.0,0.0,0.0,0.0,0.0,0.0,1.6892,1.7794,1.8453,0.0,0.0,0.0,0.0,0.0,0.0,1.7551,1.7422,0.0,0.0,0.0,0.0,0.0,0.0,0.0,0.0,0.0,0.0,0.0,0.0,0.0,0.0,0.0,0.0,0.0,0.0,0.0,0.0,0.0,0.0,0.0,0.0,0.0,0.0,0.0,0.0,0.0,0.0,0.0,0.0,0.0,0.0,0.0,0.0,0.0,0.0,0.0,0.0,0.0,0.0,0.0,0.0,0.0,0.0,0.0,0.0,0.0,0.0,0.0,0.0,0.0,0.0,0.0,1.828,2.2065,2.4757,2.6002,2.6555,2.6924,2.6893,2.5342,2.284,0.0,0.0,0.0,0.0,0.0,0.0,0.0,0.0,0.0,0.0,0.0,0.0,0.0,0.0,0.0,0.0,0.0,0.0,0.0,0.0,0.0,0.0,0.0,0.0,0.0,0.0,0.0,0.0,0.0,0.0,0.0,0.0,0.0,0.0,0.0,0.0,0.0,0.0,0.0,0.0,0.0,1.9043,2.0039,1.9668,0.0,0.0,0.0,0.0,1.8789,1.9219,0.0,0.0,0.0,0.0,0.0,0.0,0.0,0.0,0.0,0.0,0.0,0.0,0.0,0.0,0.0,0.0,0.0,0.0,0.0,0.0,0.0,0.0,0.0,0.0,0.0,0.0,0.0,0.0,0.0,0.0,0.0,0.0,0.0,0.0,0.0,0.0,0.0,0.0,0.0,0.0,0.0,0.0,0.0,0.0,0.0,0.0,0.0,0.0,0.0,0.0,0.0,0.0,0.0,0.0,0.0,0.0,1.972,2.1847,2.4175,2.6575,2.7776,2.7559,2.6088,2.5766,2.3836,0.0,0.0,0.0,0.0,0.0,0.0,0.0,0.0,0.0,0.0,0.0,0.0,0.0,0.0,0.0,0.0,0.0,0.0,0.0,0.0,0.0,0.0,0.0,0.0,0.0,0.0,0.0,0.0,0.0,0.0,0.0,0.0,0.0,0.0,0.0,0.0,0.0,0.0,0.0,0.0,0.0,2.2559,2.1269,2.1328,2.1055,0.0,0.0,2.1445,2.1445,2.3359,0.0,0.0,0.0,0.0,0.0,0.0,0.0,0.0,0.0,0.0,0.0,0.0,0.0,0.0,0.0,0.0,0.0,0.0,0.0,0.0,0.0,0.0,0.0,0.0,0.0,0.0,0.0,0.0,0.0,0.0,0.0,0.0,0.0,0.0,0.0,0.0,0.0,0.0,0.0,0.0,0.0,0.0,0.0,0.0,0.0,0.0,0.0,0.0,0.0,0.0,0.0,0.0,0.0,0.0,0.0,1.9313,2.1211,2.4482,2.6974,2.8596,2.9451,2.9604,2.8651,2.6468,2.4217,0.0,0.0,0.0,0.0,0.0,0.0,0.0,0.0,0.0,0.0,0.0,0.0,0.0,0.0,0.0,0.0,0.0,0.0,0.0,0.0,0.0,0.0,0.0,0.0,0.0,0.0,0.0,0.0,0.0,0.0,0.0,0.0,0.0,0.0,0.0,0.0,0.0,0.0,0.0,0.0,0.0,0.0,2.2363,2.2891,0.0,0.0,0.0,2.3613,2.3359,0.0,0.0,0.0,0.0,0.0,0.0,0.0,0.0,0.0,0.0,0.0,0.0,0.0,0.0,0.0,0.0,0.0,0.0,0.0,0.0,0.0,0.0,0.0,0.0,0.0,0.0,0.0,0.0,0.0,0.0,0.0,0.0,0.0,0.0,0.0,0.0,0.0,0.0,0.0,0.0,0.0,0.0,0.0,0.0,0.0,0.0,0.0,0.0,0.0,0.0,0.0,0.0,0.0,0.0,0.0,0.0,0.0,2.2264,2.6606,2.9252,3.0127,3.089,3.1071,3.0585,2.7322,0.0,0.0,0.0,0.0,0.0,0.0,0.0,0.0,0.0,0.0,0.0,0.0,0.0,0.0,0.0,0.0,0.0,0.0,0.0,0.0,0.0,0.0,0.0,0.0,0.0,0.0,0.0,1.1926,0.0,0.0,0.0,0.0,0.0,0.0,0.0,0.0,0.0,0.0,0.0,0.0,0.0,0.0,2.3125,2.3437,2.4473,2.5078,0.0,0.0,2.5859,2.5622,2.6685,2.6665,0.0,0.0,0.0,0.0,0.0,0.0,0.0,0.0,0.0,0.0,0.0,0.0,0.0,0.0,0.0,0.0,0.0,0.0,0.0,0.0,0.0,0.0,0.0,0.0,0.0,0.0,0.0,0.0,0.0,0.0,0.0,0.0,0.0,0.0,0.0,0.0,0.0,0.0,0.0,0.0,0.0,0.0,0.0,0.0,0.0,0.0,0.0,0.0,0.0,0.0,0.0,0.0,0.0,0.0,0.0,2.2918,2.7001,2.9574,3.046,3.1305,3.1345,3.05,2.8247,2.6139,0.0,0.0,0.0,0.0,0.0,0.0,0.0,0.0,0.0,0.0,0.0,0.0,0.0,0.0,0.0,0.0,0.0,0.0,0.0,0.0,0.0,0.0,0.0,0.0,0.0,0.0,0.0,0.0,0.0,0.0,0.0,0.0,0.0,0.0,0.0,0.0,0.0,0.0,0.0,0.0,0.0,2.5664,2.4492,2.6113,2.7695,0.0,0.0,2.8278,2.8745,3.1626,3.1989,2.6673,0.0,0.0,0.0,0.0,0.0,0.0,0.0,0.0,0.0,0.0,0.0,0.0,0.0,0.0,0.0,0.0,0.0,0.0,0.0,0.0,0.0,0.0,0.0,0.0,0.0,0.0,0.0,0.0,0.0,0.0,0.0,0.0,0.0,0.0,0.0,0.0,0.0,0.0,0.0,0.0,0.0,0.0,0.0,0.0,0.0,0.0,0.0,0.0,0.0,0.0,0.0,0.0,0.0,2.2389,2.4002,2.758,3.0018,3.1177,3.1942,3.2085,3.1625,2.8655,2.6723,0.0,0.0,0.0,0.0,0.0,0.0,0.0,0.0,0.0,0.0,0.0,0.0,0.0,0.0,0.0,0.0,0.0,0.0,0.0,0.0,0.0,0.0,0.0,0.0,0.0,0.0,0.0,0.0,1.4727,1.5039,1.5293,0.0,0.0,0.0,0.0,0.0,0.0,0.0,0.0,0.0,0.0,2.6582,2.7109,2.8828,0.0,0.0,3.0359,3.087,3.084,3.1228,3.077,2.841,2.6597,0.0,0.0,0.0,0.0,0.0,0.0,0.0,0.0,0.0,0.0,0.0,0.0,0.0,0.0,0.0,0.0,0.0,0.0,0.0,0.0,0.0,0.0,0.0,0.0,0.0,0.0,0.0,0.0,0.0,0.0,0.0,0.0,0.0,0.0,0.0,0.0,0.0,0.0,0.0,0.0,0.0,0.0,0.0,0.0,0.0,0.0,0.0,0.0,0.0,0.0,0.0,0.0,2.2855,2.4771,2.7918,3.013,3.1593,3.2427,3.2674,3.2096,2.9558,2.777,0.0,0.0,0.0,0.0,0.0,0.0,0.0,0.0,0.0,0.0,0.0,0.0,0.0,0.0,0.0,0.0,0.0,0.0,0.0,0.0,0.0,0.0,0.0,0.0,0.0,0.0,0.0,0.0,1.5371,1.584,1.6468,0.0,0.0,0.0,0.0,0.0,0.0,0.0,0.0,0.0,0.0,2.7383,2.8574,3.0,3.0859,3.0625,3.1011,3.1526,3.2043,3.1333,3.0537,2.9698,0.0,0.0,0.0,0.0,0.0,0.0,0.0,0.0,0.0,0.0,0.0,0.0,0.0,0.0,0.0,0.0,0.0,0.0,0.0,0.0,0.0,0.0,0.0,0.0,0.0,0.0,0.0,0.0,0.0,0.0,0.0,0.0,0.0,0.0,0.0,0.0,0.0,0.0,0.0,0.0,0.0,0.0,0.0,0.0,0.0,0.0,0.0,0.0,0.0,0.0,0.0,0.0,0.0,2.3324,2.4948,2.7847,3.0015,3.1402,3.2685,3.2934,3.2085,3.1091,2.9436,2.7017,0.0,0.0,0.0,0.0,0.0,0.0,0.0,0.0,0.0,0.0,0.0,0.0,0.0,0.0,0.0,0.0,0.0,0.0,0.0,0.0,0.0,0.0,0.0,0.0,0.0,0.0,1.4301,1.5312,1.6468,0.0,0.0,0.0,0.0,0.0,0.0,0.0,0.0,0.0,0.0,2.584,2.8262,2.8427,2.9082,3.025,3.1407,3.0211,2.9939,3.228,3.2606,3.2233,0.0,0.0,0.0,0.0,0.0,0.0,0.0,0.0,0.0,0.0,0.0,0.0,0.0,0.0,0.0,0.0,0.0,0.0,0.0,0.0,0.0,0.0,0.0,0.0,0.0,0.0,0.0,2.2251,2.1767,0.0,0.0,0.0,0.0,0.0,0.0,0.0,0.0,0.0,0.0,0.0,2.4635,2.4866,0.0,0.0,0.0,0.0,0.0,0.0,0.0,0.0,0.0,0.0,0.0,0.0,2.4104,2.5849,2.8425,3.0574,3.223,3.2727,3.2809,3.2478,3.1029,2.8899,2.6156,0.0,0.0,0.0,0.0,0.0,0.0,0.0,0.0,0.0,0.0,0.0,0.0,0.0,0.0,0.0,0.0,0.0,0.0,0.0,0.0,0.0,0.0,0.0,0.0,0.0,1.6602,0.0,0.0,0.0,0.0,0.0,0.0,0.0,0.0,0.0,0.0,0.0,2.388,2.5331,2.8048,2.9994,3.0601,3.2002,3.3152,0.0,0.0,0.0,0.0,0.0,0.0,0.0,0.0,0.0,0.0,0.0,0.0,0.0,0.0,3.2183,2.8101,2.7218,2.7341,2.7934,0.0,0.0,0.0,0.0,0.0,0.0,0.0,0.0,0.0,0.0,0.0,0.0,0.0,0.0,0.0,0.0,2.417,0.0,0.0,0.0,0.0,0.0,0.0,0.0,0.0,2.6403,2.7105,2.7133,2.7373,2.7538,0.0,2.6754,2.5283,0.0,0.0,0.0,0.0,0.0,0.0,0.0,0.0,2.4866,2.664,2.8817,3.0801,3.2416,3.2789,3.2892,3.2706,3.1112,2.9311,2.7174,2.5972,2.4784,0.0,0.0,0.0,0.0,0.0,0.0,0.0,0.0,0.0,0.0,0.0,0.0,0.0,0.0,0.0,0.0,0.0,0.0,0.0,0.0,0.0,0.0,0.0,1.8429,0.0,0.0,0.0,0.0,0.0,0.0,0.0,0.0,0.0,2.3039,2.4426,2.622,2.8443,3.0299,3.162,3.2227,0.0,0.0,0.0,0.0,0.0,0.0,0.0,3.3531,3.3839,3.3671,3.3926,3.5254,3.6603,3.7565,3.7757,0.0,0.0,3.1451,3.0543,3.0913,3.1431,3.2065,3.2984,3.4366,3.5593,3.6507,0.0,0.0,0.0,0.0,0.0,0.0,0.0,0.0,2.5916,2.6061,0.0,2.5999,0.0,0.0,0.0,0.0,0.0,0.0,0.0,0.0,2.9622,3.0491,3.0118,3.0512,3.0512,3.0056,2.9166,2.8255,2.7345,2.6496,0.0,0.0,0.0,0.0,0.0,0.0,2.5735,2.7386,2.9187,3.0739,3.2106,3.2954,3.3182,3.2747,3.1464,3.0532,2.9973,2.7688,2.6177,2.5665,2.3596,0.0,0.0,0.0,0.0,0.0,0.0,0.0,0.0,0.0,0.0,0.0,0.0,0.0,0.0,0.0,0.0,0.0,0.0,0.0,0.0,1.9553,0.0,0.0,0.0,0.0,0.0,0.0,0.0,0.0,0.0,0.0,2.5359,2.6982,2.9084,3.1504,0.0,0.0,0.0,0.0,3.3263,3.3479,3.306,3.3391,3.4808,3.5978,3.6577,3.6549,0.0,0.0,3.9729,3.9777,3.9994,4.0451,4.0571,3.9705,3.7132,3.6021,3.5781,3.6362,3.6429,3.6771,3.73,3.8118,3.8671,3.045,0.0,0.0,0.0,0.0,2.7386,2.809,2.9145,2.9601,2.9063,2.7841,2.8173,0.0,0.0,0.0,0.0,0.0,0.0,2.8152,2.927,3.0905,3.1754,3.194,3.2085,3.223,3.2375,3.1485,3.076,3.0222,3.0263,2.8276,2.4405,0.0,0.0,0.0,0.0,2.7179,2.9166,3.0698,3.2106,3.3472,3.3741,3.3658,3.3203,3.252,3.1774,3.1008,2.9704,2.8404,2.729,2.6011,0.0,0.0,0.0,0.0,0.0,0.0,0.0,0.0,0.0,0.0,0.0,0.0,0.0,0.0,0.0,0.0,0.0,0.0,0.0,1.9899,2.1927,2.285,0.0,0.0,0.0,0.0,0.0,0.0,0.0,0.0,0.0,3.0303,3.0642,3.0987,0.0,0.0,3.3545,3.3164,3.4762,3.6379,3.7613,0.0,0.0,0.0,3.9046,3.9109,3.8791,4.0451,4.211,4.2856,4.3289,4.3601,4.3746,4.377,4.3385,4.2279,4.0379,3.92,3.9272,3.9826,4.0643,4.1533,4.2711,4.377,3.4838,3.134,3.0284,2.9994,3.0284,3.0615,3.1257,3.2064,3.252,3.1878,3.0512,3.0781,2.987,2.8028,2.7676,0.0,0.0,0.0,3.0305,3.1671,3.283,3.3617,3.4051,3.4072,3.4113,3.4134,3.3285,3.2623,3.2168,3.1899,3.0263,2.7303,0.0,0.0,2.5916,2.7241,2.8794,3.0512,3.1878,3.3058,3.4031,3.4072,3.3927,3.3658,3.3223,3.2644,3.194,3.1029,3.0182,2.9346,2.8284,2.7154,0.0,0.0,0.0,0.0,0.0,0.0,0.0,0.0,0.0,0.0,0.0,2.0376,1.9104,0.0,0.0,0.0,2.2993,2.2865,2.3239,2.4514,0.0,0.0,0.0,0.0,0.0,0.0,0.0,2.6623,2.9327,3.1879,3.3661,3.4357,3.4699,3.4941,3.6085,3.6781,3.6332,0.0,3.9513,4.0691,4.1389,4.1774,4.1677,4.199,4.2303,4.2423,4.3433,4.4683,4.5718,4.603,4.6223,4.6535,4.6367,4.603,4.5934,4.4419,4.3048,4.2687,4.3265,4.4154,4.5188,4.6343,4.7329,3.8812,3.697,3.4527,3.3327,3.3141,3.3927,3.432,3.4424,3.4859,3.4486,3.3617,3.3596,3.2851,3.1547,3.0698,0.0,0.0,3.2106,3.2996,3.4258,3.5128,3.5769,3.6142,3.6163,3.5935,3.5521,3.4693,3.4051,3.3555,3.2333,3.165,3.1505,3.018,2.9042,2.8214,2.9394,3.0532,3.1485,3.2727,3.3637,3.4155,3.4176,3.4155,3.4134,3.3679,3.3203,3.2727,3.201,3.165,3.1657,3.0413,2.9707,2.9818,0.0,0.0,0.0,0.0,0.0,0.0,0.0,0.0,0.0,0.0,0.0,0.0,0.0,0.0,0.0,2.7584,0.0,2.8057,2.7121,0.0,0.0,0.0,2.6565,2.8068,2.9207,2.9823,2.9485,0.0,0.0,3.5993,0.0,3.9441,4.0571,4.0956,4.1124,4.1057,4.1441,4.223,4.2735,4.3,4.3265,4.3746,4.4515,4.5357,4.6199,4.6776,4.7016,4.7858,4.781,4.7978,4.8724,4.8219,4.7666,4.8171,4.7569,4.7233,4.6223,4.6439,4.7088,4.805,4.87,4.9253,4.1772,4.0427,4.0116,3.8398,3.5873,3.6059,3.6556,3.7198,3.7322,3.666,3.5459,3.5459,3.4714,3.341,3.3203,3.341,3.3969,3.4424,3.4983,3.5645,3.6204,3.6535,3.6639,3.6639,3.6577,3.6453,3.6266,3.5914,3.5459,3.4776,3.3927,3.2892,3.1878,3.076,2.958,3.018,3.1153,3.2395,3.3058,3.3948,3.5045,3.5107,3.4941,3.459,3.4155,3.3534,3.2747,3.304,3.3052,3.2768,3.3227,3.2969,3.1928,2.969,0.0,0.0,0.0,0.0,0.0,0.0,0.0,0.0,0.0,2.4883,2.2724,0.0,2.6271,0.0,3.0129,3.1076,2.9265,2.9472,0.0,0.0,2.8395,2.8602,3.1009,3.2094,3.2745,3.3124,3.5429,3.717,3.8048,3.9594,4.1317,4.3096,4.1774,4.0373,3.9919,4.1496,4.2904,4.3866,4.4948,4.5814,4.5886,4.615,4.6535,4.7209,4.7305,4.7545,4.8171,4.8195,4.8315,4.8892,4.8555,4.8195,4.8267,4.7858,4.7786,4.8147,4.8122,4.8243,4.9277,4.9926,5.0479,4.4977,4.4668,4.4358,4.3408,4.1918,3.9846,3.8999,3.9102,3.9102,3.8419,3.7301,3.7401,3.7044,3.6304,3.6072,3.6258,3.678,3.6499,3.6601,3.7126,3.7328,3.777,3.846,3.777,3.777,3.846,3.7561,3.6991,3.6722,3.6266,3.5542,3.461,3.43,3.3472,3.2147,3.1567,3.1774,3.2727,3.3762,3.4859,3.5976,3.5832,3.5418,3.4755,3.4169,3.3494,3.2775,3.2547,3.261,3.3073,3.3139,3.3001,3.2465,3.0874,2.9572,0.0,0.0,0.0,0.0,0.0,0.0,0.0,0.0,0.0,0.0,0.0,2.8858,0.0,3.2586,3.3662,3.1693,3.1978,3.2317,3.2487,3.1824,3.2274,3.4552,3.5181,3.5722,3.6456,3.8197,3.979,4.0561,4.1619,4.307,4.4591,4.3361,4.2281,4.2678,4.3593,4.4539,4.5597,4.6295,4.68,4.7016,4.7064,4.7161,4.7425,4.7497,4.7593,4.7882,4.7954,4.805,4.8291,4.8122,4.8026,4.8219,4.8074,4.8195,4.906,4.9205,4.9325,5.007,5.0672,5.1153,4.7813,4.8543,4.7498,4.7656,4.8407,4.4257,4.212,4.12,4.1137,4.0549,3.9584,3.9692,3.9626,3.9497,3.9191,3.9352,3.9855,3.8809,3.8611,3.9088,3.8904,3.9593,4.0867,3.9571,3.9593,4.0713,3.9035,3.8109,3.8026,3.7566,3.7212,3.6729,3.6981,3.6478,3.5339,3.3623,3.288,3.3028,3.4689,3.5936,3.6725,3.6123,3.5519,3.4622,3.3663,3.3116,3.27,3.1532,3.1527,3.2838,3.213,3.1902,3.2611,3.1712,3.088,0.0,2.8865,0.0,0.0,0.0,0.0,0.0,0.0,0.0,0.0,3.0917,3.1665,3.252,3.476,3.5799,3.4774,3.4576,3.4991,3.6148,3.5849,3.6173,3.7618,3.8191,3.8616,3.9247,4.0839,4.2202,4.2823,4.3594,4.4427,4.5302,4.4911,4.476,4.6102,4.5886,4.5814,4.7064,4.6944,4.6848,4.7209,4.7401,4.7473,4.7497,4.7497,4.7521,4.7642,4.7666,4.7666,4.7738,4.7834,4.793,4.8315,4.8411,4.8724,4.9638,4.9806,5.0022,5.0672,5.1225,5.1586,4.9085,4.9192,4.8915,4.8896,4.8983,4.8123,4.7522,4.6955,4.6524,4.5315,4.3713,4.3235,4.2804,4.2542,4.2713,4.27,4.2463,4.2577,4.2447,4.2214,4.2583,4.2986,4.3208,4.2722,4.2348,4.2282,4.1971,4.1441,4.0804,4.0817,4.0486,3.9613,3.916,3.8698,3.8018,0.0,0.0,0.0,3.5707,3.6364,3.6491,3.52,3.4318,3.3738,3.3104,0.0,3.2261,3.239,3.2651,3.3028,3.3643,0.0,0.0,0.0,0.0,0.0,0.0,0.0,0.0,0.0,0.0,0.0,3.3593,3.3118,3.2253,3.3276,3.4338,3.5219,3.5993,3.6835,3.7866,3.7165,3.6889,3.7515,3.7515,3.7766,3.8668,3.9873,4.0764,4.1171,4.2314,4.3168,4.3462,4.3639,4.4326,4.5674,4.5552,4.5451,4.6269,4.5435,4.4948,4.5501,4.6247,4.6728,4.6848,4.7209,4.7449,4.7497,4.7497,4.7642,4.7978,4.8098,4.8291,4.8603,4.8772,4.8748,4.8892,4.894,4.9133,4.9758,4.9878,5.0167,5.1129,5.1754,5.2259,5.1629,0.0,5.1615,5.175,0.0,5.267,5.2525,5.2188,4.8988,4.7072,4.5967,4.5885,4.5552,4.5162,4.5038,4.4924,4.4711,4.4147,4.3886,4.4044,4.3886,4.4271,4.5052,4.4394,4.4267,4.4741,4.4112,4.3462,4.308,4.2974,4.2463,4.1857,4.1706,4.1322,4.0606,4.056,3.947,3.7451,3.8277,3.8886,3.9286,3.8029,3.7032,3.6409,0.0,0.0,0.0,0.0,0.0,0.0,0.0,0.0,0.0,0.0,0.0,3.5855,3.4391,3.4323,3.6138,3.568,3.5784,3.7111,3.7437,3.6793,3.5046,3.6223,3.7538,3.8241,3.8417,3.8868,3.9923,3.932,3.9044,3.9572,3.9647,3.9873,4.045,4.1229,4.1948,4.2662,4.3462,4.4095,4.4525,4.4457,4.4784,4.5747,4.5403,4.511,4.5722,4.5542,4.5387,4.5501,4.6175,4.6583,4.6439,4.6776,4.7112,4.7112,4.7112,4.7329,4.781,4.7906,4.8002,4.8267,4.8507,4.8748,4.906,4.9277,4.9638,5.0167,5.0503,5.0792,5.1393,5.1706,5.2043,5.4327,5.5608,5.4296,5.4546,5.6219,5.6219,5.6143,5.5747,0.0,0.0,0.0,4.8243,4.8147,4.7556,4.7281,4.7142,4.6969,4.5705,4.5243,4.5596,4.5149,4.5515,4.6631,4.5809,4.5974,4.6873,4.5841,4.5232,4.4914,4.4696,4.4407,4.3986,4.4337,4.4103,4.3308,4.3789,4.3067,4.1044,4.1114,4.1491,4.2131,4.093,3.9962,3.9198,3.7643,3.671,3.6254,3.5362,3.5077,3.5411,3.5203,3.5303,3.5931,3.5981,3.6483,3.7487,3.7186,3.7613,3.9044,3.8718,3.8894,3.9923,4.04,3.9848,3.7914,3.912,4.0174,4.0626,4.0676,4.0877,4.1404,4.0978,4.0877,4.143,4.148,4.1656,4.2082,4.2359,4.2811,4.3689,4.4342,4.4895,4.5221,4.5035,4.5116,4.537,4.5126,4.496,4.5503,4.5917,4.5833,4.5525,4.591,4.6223,4.5982,4.6223,4.6583,4.6728,4.6728,4.6896,4.7329,4.7497,4.7497,4.7569,4.8002,4.8579,4.9012,4.9589,5.0143,5.06,5.1056,5.1393,5.1465,5.1417,5.1562,5.5778,5.6278,5.551,5.5632,5.6219,5.6219,5.5942,5.5415,5.3612,5.2436,5.1615,5.106,5.0538,5.0171,5.0414,5.0081,4.9157,4.9451,4.9023,0.0,4.86,4.86,4.8405,4.8441,4.7961,4.7018,4.7645,4.7442,4.6408,4.7213,4.7371,4.7006,4.7232,4.6932,4.6431,4.6934,4.6612,4.5229,4.2997,4.1774,4.1868,4.0045,3.8766,3.812,3.7194,3.6243,3.56,3.5562,3.5361,3.5554,3.5906,3.6584,3.7588,3.7688,3.8165,3.922,3.927,3.9546,4.0224,4.0224,4.045,4.1028,4.1178,4.0877,4.0149,4.0701,4.1153,4.1229,4.1229,4.1455,4.1932,4.1555,4.1455,4.1957,4.2057,4.2082,4.2233,4.3011,4.3614,4.3865,4.4744,4.5146,4.4895,4.4678,4.4653,4.4803,4.496,4.571,4.6365,4.5895,4.4984,4.4635,4.502,4.5285,4.5309,4.5694,4.6175,4.6655,4.6704,4.6896,4.7401,4.7545,4.7545,4.7521,4.8291,4.8916,4.9133,4.9926,5.0479,5.072,5.084,5.1008,5.1369,5.1153,5.1177,5.6996,5.715,5.6303,5.6402,5.7097,5.6796,5.6344,5.5767,5.4963,5.3994,5.3028,5.2503,5.1865,5.1455,5.159,5.1272,5.0519,5.0444,5.0142,4.969,4.9615,4.9615,4.9665,4.9486,4.9232,4.8824,4.9271,4.9122,4.8298,4.9028,4.9132,4.8607,4.8535,4.8259,4.7981,4.7958,4.7658,4.701,4.5503,4.4597,4.4279,4.3044,4.2248,4.2002,4.1014,4.0149,3.9597,3.8994,3.8693,3.8693,3.8642,3.912,4.0174,4.0249,4.0626,4.1404,4.148,4.158,4.1831,4.1856,4.1957,4.2208,4.2233,4.2133,4.1856,4.1806,4.1781,4.1781,4.1781,4.2007,4.2509,4.2108,4.2007,4.2559,4.2836,4.3037,4.3112,4.374,4.4367,4.4669,4.4869,4.502,4.5095,4.4568,4.4192,4.4217,4.4669,4.5354,4.6016,4.6019,4.565,4.5427,4.5473,4.5324,4.5053,4.5392,4.5797,4.6199,4.6535,4.6896,4.7401,4.769,4.7882,4.7954,4.8579,4.9133,4.9421,5.0143,5.06,5.072,5.096,5.1153,5.1105,5.1056,5.1417,5.7843,5.8027,5.7175,5.7125,5.765,5.7223,5.6721,5.6168,5.5616,5.4888,5.4059,5.3406,5.2879,5.2477,5.2352,5.2,5.1448,5.1021,5.072,5.0569,5.0167,5.0142,5.0368,5.0092,5.0067,5.0268,5.0469,5.0318,4.9891,5.0343,5.0318,4.9791,4.9364,4.9088,4.8962,4.851,4.8234,4.8083,4.7707,4.723,4.6677,4.6024,4.5623,4.5422,4.4217,4.3413,4.2961,4.2032,4.158,4.1681,4.1304,4.1455,4.2258,4.2333,4.2534,4.2936,4.3087,4.3237,4.3338,4.3338,4.3338,4.3338,4.3338,4.3338,4.3313,4.2961,4.266,4.2559,4.2559,4.276,4.3212,4.3011,4.2886,4.3313,4.3714,4.394,4.4041,4.4468,4.497,4.5347,4.5095,4.4995,4.5045,4.4543,4.4141,4.4317,4.4468,4.4753,4.5241,4.6088,4.6389,4.6266,4.6266,4.5993,4.528,4.5622,4.6056,4.6263,4.6819,4.7303,4.7738,4.8197,4.8488,4.8426,4.8836,4.9366,4.9758,5.0311,5.0648,5.072,5.096,5.1153,5.1032,5.1225,5.1706,5.8527,5.8554,5.8052,5.7524,5.7173,5.7072,5.6746,5.6194,5.5641,5.534,5.5114,5.411,5.3607,5.3482,5.303,5.2528,5.2051,5.1975,5.1649,5.1222,5.1147,5.087,5.0544,5.0896,5.0619,4.9967,5.0745,5.0896,5.0343,5.087,5.0896,5.0419,5.0293,4.9967,4.954,4.9439,4.9188,4.8711,4.8661,4.8335,4.7732,4.6753,4.5999,4.5497,4.394,4.3037,4.3112,4.2409,4.2308,4.276,4.2735,4.276,4.2886,4.2911,4.2936,4.3011,4.3463,4.394,4.4392,4.4468,4.4418,4.4468,4.4418,4.4418,4.4418,4.4392,4.4166,4.3765,4.3639,4.384,4.4392,4.4342,4.4267,4.4292,4.4468,4.4543,4.4618,4.5045,4.5422,4.5472,4.5347,4.5246,4.4819,4.4568,4.4694,4.492,4.4819,4.502,4.5754,4.6305,4.6456,4.6409,4.6687,4.6685,4.6191,4.6486,4.7002,4.7439,4.7979,4.8347,4.8616,4.8959,4.9229,4.8913,4.9204,4.96,4.9993,5.0311,5.0672,5.0696,5.0816,5.0912,5.1273,5.1489,5.1898,5.9182,5.9131,5.8604,5.8052,5.7575,5.7549,5.7223,5.6671,5.6118,5.5867,5.5767,5.5039,5.4336,5.3683,5.3155,5.2804,5.2578,5.2251,5.2,5.1749,5.1448,5.1322,5.1423,5.1297,5.1172,5.1122,5.1548,5.1297,5.0594,5.067,5.0494,5.0042,5.0243,5.0142,4.964,4.959,4.949,4.9264,4.9264,4.9138,4.8786,4.7531,4.6828,4.6828,4.5949,4.5271,4.4945,4.4418,4.394,4.3489,4.3162,4.3137,4.3463,4.3463,4.3614,4.3915,4.4141,4.4392,4.4593,4.4618,4.4618,4.4618,4.4618,4.4618,4.4618,4.4618,4.4644,4.4744,4.4493,4.4392,4.4593,4.4618,4.4618,4.4669,4.492,4.5121,4.5146,4.5623,4.5874,4.5547,4.5171,4.492,4.4694,4.4618,4.4568,4.4669,4.4769,4.5347,4.5824,4.6627,4.7079,4.7054,4.7733,4.7755,4.6886,4.6935,4.7502,4.8164,4.8649,4.9018,4.9224,4.978,5.0087,4.9339,4.9679,5.0052,5.0287,5.0479,5.0696,5.0696,5.072,5.0864,5.1393,5.173,5.2259,5.9633,5.9587,5.9081,5.8629,5.8127,5.7951,5.7575,5.6997,5.6445,5.6219,5.6168,5.5641,5.4938,5.416,5.3607,5.3381,5.3306,5.2955,5.2703,5.2528,5.2126,5.2076,5.2277,5.1925,5.195,5.2277,5.2327,5.1925,5.1172,5.1096,5.082,5.0419,5.0544,5.0444,5.0092,4.9916,4.9916,5.0042,4.9916,4.9816,4.9615,4.836,4.7682,4.7832,4.7255,4.6728,4.6326,4.5773,4.5121,4.4317,4.3865,4.3765,4.3991,4.4016,4.4267,4.4794,4.4869,4.4945,4.507,4.507,4.5095,4.5095,4.5095,4.5095,4.5095,4.5095,4.5271,4.5573,4.5347,4.5095,4.5095,4.507,4.502,4.4945,4.5372,4.5623,4.5321,4.5748,4.5899,4.5497,4.4995,4.4719,4.4794,4.4744,4.4593,4.4744,4.5121,4.5573,4.5773,4.6677,4.728,4.7205,4.8284,4.8459,4.7433,4.7757,4.8277,4.8799,4.9339,4.9636,4.9504,5.0221,5.0715,4.9706,5.0234,5.0376,5.018,5.0331,5.0837,5.0696,5.072,5.0936,5.1658,5.2043,5.2524,6.0116,5.9971,5.9637,5.9131,5.8654,5.8127,5.76,5.7047,5.647,5.6219,5.6143,5.5666,5.5365,5.5239,5.4712,5.4486,5.4461,5.4361,5.4059,5.3607,5.3557,5.3331,5.2904,5.2854,5.2854,5.2879,5.2879,5.2779,5.2653,5.2703,5.2528,5.1925,5.1448,5.1222,5.1046,5.0619,5.0645,5.0996,5.0569,5.0343,5.0218,4.9238,4.8435,4.7933,4.6928,4.6451,4.6301,4.5799,4.5447,4.5397,4.5296,4.5095,4.4669,4.4618,4.492,4.5397,4.5447,4.5673,4.6075,4.615,4.615,4.6175,4.61,4.62,4.6075,4.5999,4.6024,4.6225,4.6024,4.5974,4.5999,4.5899,4.5773,4.5422,4.5849,4.5648,4.4844,4.5296,4.5497,4.5422,4.502,4.4869,4.5296,4.4945,4.5196,4.5623,4.5748,4.5723,4.62,4.6451,4.6828,4.7255,4.7782,4.8159,4.8586,4.876,4.916,4.9636,4.9831,5.0162,5.0092,4.9912,5.0081,5.0091,5.0429,5.0456,5.0035,5.0198,5.0877,5.0978,5.0837,5.1175,5.1995,5.2139,5.2644,6.0302,6.0125,5.9946,5.9691,5.9131,5.8278,5.7775,5.7499,5.6595,5.6219,5.6194,5.5993,5.5917,5.5917,5.5717,5.5214,5.4612,5.4561,5.4436,5.426,5.426,5.3959,5.3507,5.3783,5.3758,5.3457,5.3432,5.3055,5.2452,5.2402,5.2126,5.1724,5.1749,5.1649,5.1297,5.1071,5.1071,5.1197,5.072,5.0419,5.0393,4.969,4.9038,4.846,4.7732,4.733,4.733,4.6828,4.6225,4.5522,4.5497,4.5547,4.5723,4.605,4.6301,4.6476,4.62,4.61,4.6276,4.6326,4.6326,4.6326,4.6326,4.6326,4.625,4.5999,4.5799,4.5748,4.5422,4.5246,4.5296,4.5547,4.5547,4.5095,4.5121,4.5271,4.5221,4.5372,4.5497,4.5447,4.5271,4.5146,4.5121,4.5372,4.5723,4.5799,4.62,4.6577,4.6878,4.738,4.7857,4.8184,4.8636,4.9063,4.9213,4.9389,4.9665,5.0017,5.0318,5.0318,5.0218,5.0444,5.0638,5.0074,5.0265,5.0677,5.0381,5.0758,5.123,5.1401,5.126,5.1629,5.2453,5.2574,5.2959,6.0737,6.0278,6.0278,6.0125,5.9691,5.8832,5.8353,5.7951,5.7192,5.6808,5.6536,5.651,5.644,5.6566,5.6294,5.6093,5.5591,5.529,5.4988,5.4838,5.4838,5.4536,5.411,5.4386,5.4361,5.4034,5.3984,5.3507,5.2729,5.2603,5.2427,5.2151,5.2151,5.2126,5.2,5.1724,5.1599,5.1649,5.1247,5.0971,5.087,5.0243,4.969,4.9264,4.8586,4.8083,4.7908,4.7556,4.6979,4.6175,4.6024,4.6125,4.6326,4.6652,4.6954,4.7054,4.6778,4.6652,4.6803,4.6828,4.6828,4.6803,4.6677,4.6577,4.6527,4.6075,4.5723,4.5472,4.5347,4.5095,4.4819,4.5146,4.5246,4.4769,4.4794,4.4945,4.5171,4.5196,4.5296,4.5472,4.5673,4.5522,4.5347,4.5874,4.6125,4.5999,4.6702,4.7129,4.7456,4.7958,4.8586,4.8736,4.8962,4.9264,4.9439,4.954,4.959,4.9916,5.0042,5.0142,5.0268,5.0619,5.0695,5.0156,5.0273,5.0737,5.1036,5.1393,5.1575,5.1771,5.195,5.2083,5.2668,5.2987,5.3423,6.1193,6.0737,6.0737,6.0482,6.0125,5.9845,5.9284,5.8526,5.8187,5.7823,5.7346,5.7048,5.7086,5.7314,5.6768,5.6821,5.7323,5.662,5.5942,5.5516,5.5465,5.5139,5.4612,5.4687,5.4687,5.4561,5.4561,5.426,5.3683,5.3632,5.3607,5.3457,5.2703,5.2804,5.3632,5.2729,5.2452,5.2703,5.2377,5.2101,5.1975,5.1046,5.0444,5.0218,4.9339,4.8611,4.8033,4.7908,4.7606,4.7179,4.7079,4.6853,4.6577,4.6602,4.6677,4.7205,4.7179,4.738,4.7757,4.7782,4.7732,4.7581,4.7355,4.7004,4.6853,4.6451,4.5949,4.5648,4.5723,4.5723,4.4895,4.5146,4.5246,4.4769,4.4995,4.5095,4.4844,4.4694,4.4895,4.5472,4.5949,4.6276,4.6276,4.6351,4.6527,4.6853,4.7205,4.7481,4.7857,4.8159,4.8309,4.8661,4.9012,4.9289,4.9464,4.959,4.9615,4.9665,4.969,4.9766,4.9816,5.0042,5.0092,4.9812,5.0413,5.088,5.127,5.1495,5.1877,5.2149,5.2379,5.273,5.3345,5.374,5.4157,6.1521,6.1244,6.1632,6.148,6.1095,6.0711,6.0226,5.9516,5.9076,5.8417,5.7845,5.7943,5.7896,5.7699,5.7449,5.7575,5.7851,5.7499,5.7072,5.6595,5.652,5.5993,5.534,5.5516,5.5491,5.5189,5.5139,5.4838,5.4386,5.4285,5.431,5.421,5.3959,5.3959,5.426,5.3959,5.3909,5.3959,5.3482,5.3055,5.2653,5.195,5.1222,5.0469,5.0067,4.964,4.9088,4.8309,4.7857,4.7682,4.7682,4.7757,4.7933,4.8008,4.8083,4.8184,4.7883,4.7707,4.7883,4.7933,4.7807,4.7481,4.7255,4.6954,4.6577,4.6125,4.5748,4.5472,4.5321,4.4945,4.4794,4.5146,4.5296,4.4719,4.4794,4.507,4.5196,4.5497,4.5824,4.5999,4.62,4.6301,4.6401,4.6577,4.6954,4.723,4.7757,4.8284,4.8485,4.8761,4.9063,4.9314,4.9364,4.9339,4.9615,4.9816,4.9891,4.9941,4.9916,4.9916,4.9866,4.9841,4.9791,4.9992,5.0569,5.1071,5.1464,5.1904,5.2366,5.2675,5.3097,5.3552,5.4221,5.4546,5.4892,6.2318,6.2036,6.2582,6.2509,6.2148,6.1761,6.1221,6.066,6.0088,5.9399,5.865,5.8599,5.8752,5.8554,5.8152,5.8303,5.858,5.8303,5.8001,5.76,5.7148,5.6646,5.6018,5.6118,5.6068,5.5767,5.5691,5.539,5.4888,5.4863,5.4863,5.4863,5.4662,5.4662,5.4813,5.4662,5.4561,5.4511,5.421,5.3858,5.3482,5.298,5.2352,5.1724,5.1448,5.1172,5.0795,4.9941,4.9063,4.8385,4.8033,4.8109,4.841,4.8435,4.8636,4.8912,4.8611,4.8385,4.8736,4.8736,4.841,4.8083,4.7857,4.7506,4.6954,4.6401,4.605,4.5748,4.5723,4.5573,4.5648,4.6075,4.6175,4.5924,4.5321,4.5171,4.5497,4.5974,4.625,4.6326,4.6502,4.6577,4.6728,4.7054,4.7506,4.7782,4.8309,4.8912,4.9038,4.9339,4.9515,4.959,4.954,4.964,4.9866,5.0042,5.0193,5.0268,5.0318,5.0368,5.0393,5.0469,5.0469,5.067,5.1122,5.1473,5.184,5.2566,5.3217,5.3543,5.3894,5.4402,5.4882,5.5181,5.5359,6.3358,6.2966,6.3489,6.357,6.3208,6.2894,6.2374,6.1625,6.1204,6.0658,5.9747,5.945,5.9506,5.9613,5.8782,5.8908,5.9718,5.9262,5.8755,5.8428,5.7775,5.7123,5.6846,5.642,5.6219,5.6269,5.6194,5.5968,5.5742,5.5616,5.5465,5.5516,5.5164,5.4938,5.529,5.4913,5.4787,5.4813,5.4737,5.4662,5.4561,5.4084,5.3683,5.3507,5.3055,5.2779,5.2528,5.195,5.0896,4.9188,4.8611,4.846,4.8234,4.8109,4.8837,4.9615,4.9163,4.9414,4.9992,4.9766,4.9439,4.9188,4.8786,4.851,4.7782,4.7305,4.6903,4.6552,4.6803,4.7054,4.7129,4.7405,4.7657,4.7657,4.6552,4.5899,4.5723,4.62,4.6552,4.6602,4.6853,4.7179,4.7205,4.7631,4.8134,4.851,4.8761,4.9113,4.9389,4.959,4.9615,4.9665,4.9741,4.9992,5.0243,5.0494,5.067,5.0996,5.0971,5.0946,5.0921,5.0971,5.0971,5.1197,5.1699,5.2026,5.2427,5.3181,5.3783,5.416,5.4637,5.5189,5.5591,5.5747,5.5726,6.3593,6.3515,6.4064,6.4143,6.4143,6.4116,6.3441,6.2741,6.2474,6.1547,6.068,6.0754,6.068,6.048,6.0074,6.0024,6.0074,5.987,5.959,5.9182,5.8629,5.7775,5.7072,5.6495,5.647,5.6721,5.652,5.657,5.7148,5.6746,5.657,5.6595,5.6394,5.6194,5.6018,5.5817,5.5792,5.5792,5.5767,5.5541,5.5189,5.5039,5.4511,5.3733,5.3607,5.3356,5.2955,5.2402,5.1724,5.077,5.0494,5.0393,5.0268,5.0243,5.0243,5.0268,5.0469,5.0318,5.0017,5.0092,4.9841,4.9088,4.8937,4.851,4.7958,4.7782,4.7631,4.7506,4.7657,4.7757,4.7757,4.7908,4.7983,4.7857,4.7556,4.723,4.7179,4.738,4.7481,4.7506,4.7606,4.7707,4.7832,4.8184,4.8611,4.8862,4.9163,4.949,4.9791,5.0042,5.0167,5.0067,5.0142,5.0393,5.0645,5.0896,5.1222,5.1699,5.1749,5.1624,5.1498,5.1348,5.1297,5.1297,5.2352,5.2854,5.313,5.3607,5.411,5.4662,5.5064,5.5541,5.5867,5.5997,5.6022,6.4038,6.409,6.4639,6.4874,6.4848,6.4639,6.4195,6.3675,6.3283,6.2556,6.1683,6.1838,6.1786,6.1427,6.1326,6.1454,6.13,6.0965,6.0528,6.0044,5.9056,5.8227,5.7499,5.7022,5.7097,5.7323,5.7072,5.7298,5.7725,5.7549,5.7424,5.7374,5.7399,5.7097,5.6595,5.657,5.642,5.6244,5.6219,5.6043,5.5767,5.5742,5.5465,5.4838,5.4737,5.4511,5.4009,5.3658,5.2955,5.19,5.1423,5.1272,5.1272,5.1272,5.1322,5.1398,5.1599,5.1398,5.1096,5.0921,5.0343,4.964,4.9289,4.8837,4.8435,4.8259,4.8309,4.8586,4.8586,4.8862,4.9238,4.9314,4.9314,4.9389,4.9113,4.8686,4.8058,4.7857,4.7908,4.7958,4.8109,4.8284,4.8284,4.8786,4.9163,4.9464,4.9766,5.0067,5.0343,5.0569,5.072,5.0594,5.0695,5.0971,5.1272,5.1523,5.1925,5.2377,5.2653,5.2503,5.2427,5.2226,5.2377,5.2603,5.3231,5.3683,5.3909,5.421,5.4712,5.5189,5.5516,5.5767,5.6068,5.6219,5.6244,6.4639,6.4665,6.5162,6.5397,6.5292,6.4848,6.4587,6.443,6.3985,6.3283,6.2611,6.3,6.2818,6.2328,6.2535,6.2715,6.2871,6.2092,6.1418,6.0755,5.9763,5.8905,5.8529,5.7901,5.7826,5.7901,5.7926,5.7976,5.8127,5.8077,5.7976,5.7976,5.7976,5.7675,5.7198,5.7047,5.6746,5.642,5.6244,5.6194,5.6118,5.6118,5.5993,5.5942,5.5892,5.5742,5.5415,5.5164,5.4411,5.2553,5.1925,5.1875,5.1774,5.1699,5.1975,5.2628,5.2553,5.2553,5.2477,5.1699,5.1172,5.0544,5.0017,4.959,4.9264,4.9213,4.9364,4.9741,4.9766,5.0167,5.0745,5.1122,5.0996,5.082,5.0619,4.9766,4.8686,4.8159,4.8083,4.8109,4.8586,4.8812,4.9063,4.9364,4.9866,5.0243,5.0469,5.0594,5.087,5.1147,5.1172,5.1096,5.1297,5.1624,5.1925,5.2201,5.2653,5.3105,5.3482,5.3582,5.3733,5.3708,5.3934,5.421,5.4235,5.4361,5.4561,5.4938,5.5365,5.5591,5.5842,5.6018,5.6219,5.6219,5.6244,6.5188,6.5214,6.5318,6.5397,6.5371,6.524,6.4953,6.4534,6.4404,6.4012,6.3465,6.3517,6.3491,6.3361,6.3389,6.3363,6.3182,6.2662,6.1855,6.1173,6.0997,6.0613,6.0035,5.888,5.8252,5.8428,5.8127,5.8378,5.888,5.878,5.8554,5.8554,5.8504,5.8252,5.775,5.7349,5.6997,5.6796,5.6495,5.6319,5.6319,5.6319,5.6319,5.6319,5.6294,5.6194,5.5993,5.5616,5.5164,5.4687,5.416,5.3758,5.3582,5.3582,5.3381,5.3155,5.3582,5.3306,5.2151,5.2201,5.2126,5.1197,5.0971,5.087,5.0795,5.0695,5.077,5.0921,5.0921,5.1071,5.1348,5.1322,5.1398,5.1373,5.1222,5.0946,5.0494,4.9741,4.9289,4.9264,4.9364,4.959,4.9992,5.0067,5.0494,5.0946,5.1122,5.1172,5.1448,5.18,5.19,5.195,5.2277,5.2628,5.2678,5.2955,5.3331,5.3733,5.4084,5.4386,5.4561,5.4737,5.4787,5.4863,5.4913,5.5064,5.5214,5.5516,5.5917,5.6043,5.6093,5.6168,5.6219,5.6219,5.6595,6.4874,6.5371,6.5397,6.5397,6.5397,6.5371,6.5214,6.4953,6.4926,6.4613,6.4247,6.4325,6.4325,6.4116,6.4351,6.4326,6.4091,6.3387,6.2812,6.2287,6.1951,6.1641,6.1382,6.0473,5.9763,5.9809,5.9633,5.9734,5.9734,5.9608,5.9357,5.9106,5.9081,5.878,5.8353,5.7951,5.7725,5.7449,5.7173,5.6997,5.6997,5.6997,5.7022,5.6997,5.6972,5.6897,5.6595,5.6646,5.6269,5.5917,5.5691,5.5164,5.426,5.3959,5.3607,5.3532,5.3708,5.3733,5.2854,5.2653,5.2528,5.1749,5.1674,5.1498,5.1548,5.1699,5.2051,5.2051,5.2051,5.2051,5.2051,5.2076,5.2051,5.2,5.1825,5.1699,5.1548,5.0921,5.0393,5.0393,5.0393,5.0544,5.072,5.087,5.1147,5.1624,5.1749,5.185,5.2603,5.2904,5.3055,5.3206,5.3482,5.3658,5.3557,5.3733,5.4034,5.4361,5.4637,5.4888,5.5064,5.5239,5.5415,5.5465,5.5491,5.5641,5.5842,5.6143,5.6219,5.6168,5.6168,5.6194,5.6319,5.6495,5.7097,6.4508,6.5397,6.5397,6.5397,6.5397,6.5397,6.5371,6.5371,6.5397,6.5057,6.4822,6.5188,6.5005,6.4848,6.5109,6.5345,6.5056,6.4453,6.3719,6.3217,6.291,6.2598,6.2129,6.2002,6.1584,6.1416,6.1014,6.0814,6.0512,6.0437,6.0186,5.9809,5.9633,5.9433,5.9056,5.873,5.8428,5.8052,5.7826,5.7725,5.775,5.7775,5.775,5.775,5.7725,5.7549,5.7323,5.7399,5.7399,5.657,5.6771,5.5892,5.4687,5.3758,5.3432,5.3909,5.4059,5.3808,5.3406,5.3256,5.303,5.2402,5.2503,5.2327,5.2226,5.2678,5.308,5.313,5.308,5.303,5.3155,5.3005,5.3005,5.298,5.2653,5.2477,5.2302,5.195,5.1825,5.1172,5.1172,5.1297,5.1498,5.1674,5.195,5.2226,5.2377,5.2678,5.3406,5.3858,5.3909,5.3934,5.4084,5.4386,5.4361,5.4386,5.4712,5.5013,5.5265,5.5365,5.5566,5.5691,5.5817,5.5993,5.6068,5.6118,5.6118,5.6168,5.6219,5.6219,5.6244,5.6269,5.6495,5.6821,5.7625,6.5214,6.5397,6.5397,6.5397,6.5397,6.5397,6.5397,6.5397,6.5397,6.5345,6.524,6.5318,6.5318,6.5266,6.5292,6.5238,6.5053,6.4739,6.4394,6.4075,6.3895,6.3524,6.3152,6.3127,6.2906,6.2432,6.1793,6.124,6.109,6.1014,6.0914,6.0788,6.0337,6.001,5.9734,5.9257,5.8755,5.8554,5.8278,5.8077,5.8077,5.8052,5.8052,5.8052,5.8077,5.7951,5.7826,5.7826,5.7801,5.7575,5.6796,5.647,5.6118,5.5717,5.5189,5.4662,5.4737,5.4461,5.3582,5.3884,5.3858,5.3708,5.3783,5.4034,5.3984,5.411,5.4235,5.4135,5.3909,5.3783,5.4235,5.3833,5.3607,5.3632,5.3783,5.3808,5.3557,5.3457,5.3055,5.2051,5.1975,5.2101,5.2402,5.2678,5.298,5.3256,5.3432,5.3658,5.4185,5.4436,5.4461,5.4461,5.4461,5.4813,5.5114,5.5164,5.5365,5.5641,5.5842,5.5842,5.5993,5.6068,5.6194,5.6219,5.6219,5.6194,5.6194,5.6219,5.6294,5.6369,5.6369,5.6394,5.6997,5.76,5.8328,6.5136,6.5371,6.5397,6.5397,6.5397,6.5397,6.5397,6.5397,6.5397,6.5397,6.5397,6.5397,6.5397,6.5397,6.5397,6.5238,6.5079,6.5079,6.492,6.4761,6.4761,6.4601,6.4119,6.4119,6.3797,6.3159,6.2568,6.1979,6.1642,6.1617,6.1492,6.1065,6.0613,6.0311,6.0161,5.9533,5.9182,5.9056,5.888,5.8704,5.8704,5.8704,5.8704,5.8704,5.8654,5.8579,5.8403,5.8629,5.8252,5.765,5.7499,5.7173,5.6821,5.6595,5.6143,5.5315,5.5239,5.4963,5.4009,5.4336,5.4361,5.426,5.4662,5.4787,5.4838,5.4938,5.5214,5.4988,5.4838,5.4536,5.4536,5.431,5.4185,5.4185,5.4436,5.4436,5.431,5.4461,5.3833,5.3055,5.3331,5.3507,5.3532,5.3808,5.4059,5.426,5.4436,5.4687,5.4963,5.5013,5.5039,5.5189,5.5189,5.534,5.5616,5.5666,5.5717,5.6018,5.6219,5.6219,5.6244,5.6269,5.6244,5.6219,5.6219,5.642,5.6244,5.6269,5.6394,5.6595,5.6746,5.7022,5.775,5.8428,5.9207,6.4979,6.5397,6.5397,6.5397,6.5397,6.5397,6.5397,6.5397,6.5397,6.5397,6.5397,6.5397,6.5397,6.5397,6.5397,6.5397,6.5397,6.5397,6.5371,6.5371,6.5238,6.5079,6.4946,6.4786,6.428,6.361,6.3559,6.3083,6.2245,6.2169,6.1918,6.1617,6.0989,6.0663,6.0613,6.0236,5.991,5.9809,5.9684,5.9659,5.9533,5.9508,5.9508,5.9508,5.9508,5.9232,5.8956,5.9156,5.8805,5.8252,5.8102,5.8102,5.7047,5.7022,5.6721,5.5892,5.5566,5.5114,5.4737,5.4712,5.4787,5.4762,5.5239,5.5239,5.5239,5.5616,5.5942,5.5641,5.534,5.5265,5.5064,5.4813,5.4737,5.4787,5.4838,5.4888,5.4838,5.4938,5.5089,5.4762,5.4888,5.4662,5.4386,5.4787,5.5013,5.4888,5.5039,5.529,5.5516,5.5541,5.5641,5.5892,5.5993,5.5993,5.6068,5.6018,5.6043,5.6118,5.6219,5.6219,5.6294,5.6369,5.6394,5.652,5.6771,5.6897,5.6595,5.652,5.6922,5.7198,5.7273,5.77,5.8478,5.9332,6.0161,6.5318,6.5397,6.5397,6.5397,6.5397,6.5397,6.5397,6.5397,6.5397,6.5397,6.5397,6.5397,6.5397,6.5397,6.5397,6.5397,6.5397,6.5397,6.5397,6.5397,6.5397,6.5238,6.4946,6.4786,6.4678,6.4222,6.4035,6.3473,6.3073,6.2885,6.2672,6.2421,6.1994,6.1743,6.1517,6.0989,6.1014,6.0864,6.0462,5.996,5.9583,5.9508,5.9508,5.9533,5.9508,5.9508,5.9382,5.9508,5.9207,5.9106,5.8755,5.8629,5.8378,5.7976,5.7524,5.6771,5.5993,5.5164,5.4838,5.5064,5.529,5.5365,5.5742,5.5993,5.5968,5.5942,5.6168,5.6143,5.5717,5.5616,5.5691,5.5516,5.5365,5.5415,5.5566,5.5516,5.5465,5.544,5.5591,5.5691,5.5566,5.5164,5.4838,5.5415,5.5892,5.5742,5.5641,5.5867,5.5993,5.5942,5.5942,5.6143,5.6219,5.6219,5.6319,5.6319,5.6394,5.6344,5.6445,5.6445,5.662,5.6821,5.6897,5.7072,5.7323,5.7524,5.7449,5.7474,5.7675,5.7901,5.8102,5.8629,5.9232,6.0136,6.1065,6.5397,6.5397,6.5397,6.5397,6.5397,6.5397,6.5397,6.5397,6.5397,6.5397,6.5397,6.5397,6.5397,6.5423,6.5397,6.5397,6.5397,6.5397,6.5397,6.5397,6.5397,6.5238,6.5238,6.5105,6.5024,6.5066,6.493,6.4658,6.4118,6.3741,6.3502,6.2822,6.2596,6.2245,6.2195,6.1492,6.124,6.0989,6.0613,6.0035,5.9633,5.9533,5.9659,5.9935,5.9684,5.9684,5.9809,5.9608,5.9332,5.9131,5.878,5.8378,5.7901,5.7474,5.7148,5.6595,5.6168,5.5767,5.5591,5.5742,5.5792,5.5867,5.6068,5.6168,5.6219,5.6219,5.6219,5.6194,5.6018,5.5993,5.6118,5.5993,5.5917,5.5942,5.6043,5.5993,5.5917,5.6043,5.6093,5.6168,5.6168,5.5717,5.539,5.5742,5.6093,5.5993,5.5917,5.6018,5.6118,5.6118,5.6118,5.6168,5.6219,5.6219,5.6369,5.647,5.6721,5.6821,5.7223,5.7248,5.7298,5.7424,5.7499,5.77,5.8001,5.8152,5.8252,5.8227,5.8202,5.8579,5.9006,5.9659,6.0286,6.0914,6.1743,6.5397,6.5397,6.5397,6.5397,6.5397,6.5397,6.5397,6.5397,6.5397,6.5397,6.5397,6.5397,6.5449,6.5528,6.5501,6.5475,6.5606,6.5449,6.5397,6.5397,6.5528,6.5632,6.5737,6.5763,6.5942,6.5984,6.601,6.5685,6.5385,6.5083,6.4602,6.3237,6.3464,6.3262,6.2697,6.2421,6.2195,6.1692,6.1341,6.0763,6.0161,6.001,6.0211,6.0261,6.0085,5.9885,6.0161,5.9784,5.9282,5.9081,5.8805,5.8328,5.76,5.7248,5.6872,5.642,5.6143,5.6143,5.6068,5.6118,5.6219,5.6219,5.6219,5.6219,5.6219,5.6219,5.6219,5.6219,5.6194,5.6168,5.6219,5.6194,5.6143,5.6118,5.6194,5.6194,5.6219,5.6219,5.6219,5.6219,5.6219,5.6219,5.6018,5.6093,5.6194,5.6194,5.6219,5.6244,5.6294,5.6344,5.642,5.647,5.6319,5.6369,5.662,5.6771,5.6997,5.7298,5.77,5.7876,5.7826,5.8001,5.8177,5.8403,5.8755,5.9232,5.9608,5.9131,5.878,5.9533,6.0236,6.0788,6.1391,6.1943,6.2295,6.5397,6.5397,6.5397,6.5397,6.5397,6.5397,6.5397,6.5397,6.5397,6.5397,6.5397,6.5397,6.5658,6.592,6.5711,6.5711,6.6129,6.5632,6.5528,6.5632,6.5894,6.6129,6.6286,6.6573,6.6913,6.6933,6.7037,6.6848,6.6624,6.7028,6.5913,6.4463,6.4818,6.4612,6.4269,6.3701,6.3249,6.2772,6.2446,6.1943,6.1341,6.1065,6.1115,6.1014,6.0638,6.0286,6.0311,5.9859,5.9483,5.9332,5.8855,5.8453,5.775,5.7173,5.6671,5.647,5.6244,5.6269,5.6319,5.6269,5.6219,5.6219,5.6219,5.6219,5.6219,5.6219,5.6219,5.6219,5.6219,5.6219,5.6219,5.6219,5.6219,5.6219,5.6219,5.6219,5.6219,5.6219,5.6219,5.6219,5.6294,5.6445,5.662,5.6696,5.652,5.652,5.6696,5.6746,5.662,5.6646,5.6771,5.6771,5.652,5.6595,5.6947,5.7198,5.7474,5.7801,5.8177,5.8227,5.8202,5.8453,5.9131,5.9357,5.9784,6.0362,6.0839,6.0487,6.0437,6.0939,6.1466,6.1868,6.2195,6.2621,6.2822,6.5397,6.5397,6.5397,6.5397,6.5397,6.5397,6.5397,6.5397,6.5397,6.5397,6.5397,6.5397,6.5501,6.5711,6.5972,6.5815,6.5789,6.5972,6.5894,6.5972,6.6181,6.6469,6.673,6.7096,6.741,6.7985,6.8168,6.8429,6.8628,6.8799,6.8384,6.7389,6.6296,6.5234,6.4773,6.4555,6.4078,6.3626,6.3324,6.2923,6.2421,6.2195,6.2195,6.2144,6.1642,6.1165,6.0864,6.0311,5.9885,5.9408,5.873,5.8278,5.7876,5.7123,5.6771,5.6671,5.6495,5.647,5.6595,5.6445,5.6219,5.6219,5.6219,5.6269,5.6344,5.6269,5.6219,5.6219,5.6269,5.6369,5.6219,5.6219,5.6219,5.6219,5.6244,5.6269,5.6369,5.6445,5.6646,5.6846,5.6872,5.6922,5.7123,5.7323,5.7072,5.6846,5.7072,5.7223,5.7097,5.7072,5.7223,5.7374,5.7198,5.7248,5.76,5.7826,5.8027,5.8378,5.8755,5.8956,5.9182,5.9885,6.0462,6.0613,6.0688,6.1065,6.1441,6.1743,6.1893,6.1943,6.2295,6.2747,6.3073,6.3324,6.3425,6.5397,6.5397,6.5397,6.5397,6.5397,6.5397,6.5501,6.5606,6.5449,6.5501,6.5658,6.5789,6.5998,6.6207,6.6338,6.6521,6.639,6.6469,6.6521,6.6625,6.6782,6.6991,6.7357,6.7828,6.8455,6.903,6.9344,6.9605,6.984,7.0363,6.9657,6.8603,6.7733,6.6713,6.5723,6.515,6.468,6.4304,6.4128,6.3877,6.34,6.3324,6.3149,6.3023,6.2496,6.1943,6.1341,6.0713,6.0136,5.9558,5.893,5.8278,5.7826,5.7424,5.7047,5.6997,5.7022,5.6922,5.7022,5.6821,5.657,5.6796,5.6821,5.6796,5.6696,5.6696,5.6846,5.6545,5.6595,5.6595,5.642,5.6369,5.652,5.6595,5.6595,5.6646,5.6897,5.7047,5.7323,5.7549,5.76,5.7725,5.7951,5.8152,5.7926,5.76,5.7449,5.76,5.7575,5.7625,5.7801,5.7951,5.8052,5.8177,5.8378,5.878,5.9131,5.9357,5.9734,6.0161,6.0537,6.1115,6.1366,6.1341,6.1441,6.1692,6.2069,6.2496,6.2596,6.2621,6.3073,6.3601,6.3726,6.3952,6.4028,6.5397,6.5397,6.5397,6.5397,6.5449,6.5397,6.5711,6.6155,6.5763,6.5815,6.6259,6.6652,6.7148,6.741,6.707,6.707,6.7305,6.7174,6.7096,6.72,6.7462,6.7828,6.8272,6.8769,6.9291,6.9736,7.0128,7.0442,7.0651,7.0834,7.0099,6.9565,6.9068,6.8399,6.7507,6.6485,6.5785,6.5333,6.5283,6.4957,6.4655,6.4505,6.4228,6.3776,6.3249,6.2722,6.1943,6.114,6.0588,6.0186,5.9257,5.8755,5.8604,5.8027,5.775,5.7826,5.7775,5.7801,5.7876,5.7349,5.7449,5.7575,5.7474,5.7549,5.7725,5.7725,5.7499,5.7097,5.7349,5.7173,5.6897,5.6696,5.6922,5.7022,5.7022,5.7198,5.7474,5.7675,5.7951,5.8478,5.8604,5.8704,5.8905,5.9006,5.8805,5.8504,5.8052,5.8027,5.8278,5.8554,5.888,5.9006,5.9182,5.9257,5.9533,5.991,6.0236,6.0412,6.0638,6.0989,6.1215,6.1466,6.1692,6.1943,6.222,6.2496,6.2873,6.3299,6.355,6.3852,6.4028,6.4404,6.4479,6.4555,6.463,6.5397,6.5397,6.5397,6.5632,6.5946,6.5998,6.6286,6.673,6.6625,6.6625,6.6704,6.6704,6.6861,6.7148,6.7305,6.7279,6.7383,6.7828,6.7697,6.7723,6.7958,6.8246,6.869,6.9291,6.9893,7.0363,7.0834,7.1304,7.1748,7.1487,7.1278,7.0818,6.9471,6.8699,6.7832,6.7086,6.6538,6.6438,6.6388,6.6287,6.6086,6.571,6.5258,6.4705,6.4128,6.3475,6.2647,6.1768,6.1291,6.0864,5.991,5.9357,5.9156,5.8604,5.8227,5.8278,5.8252,5.8278,5.8805,5.893,5.8704,5.8378,5.8052,5.8077,5.7926,5.7901,5.775,5.77,5.7901,5.77,5.7524,5.7499,5.7625,5.76,5.7675,5.7926,5.8177,5.8353,5.8629,5.9382,5.9759,6.0035,6.0286,6.0211,6.001,6.0111,5.9834,5.9759,5.996,6.0161,6.0412,6.0437,6.0512,6.0512,6.0663,6.0989,6.114,6.1215,6.1391,6.1617,6.1818,6.2094,6.2471,6.2948,6.3099,6.3299,6.3726,6.4178,6.4806,6.5183,6.5107,6.5157,6.5308,6.5283,6.5233,6.5397,6.5397,6.5606,6.592,6.6259,6.6286,6.6599,6.7096,6.7488,6.7592,6.7357,6.7044,6.7096,6.7383,6.7436,6.7436,6.7462,6.8011,6.8272,6.8272,6.8298,6.8533,6.8952,6.9553,6.9997,7.052,7.1017,7.1539,7.1487,7.1644,7.1356,7.061,6.9513,6.8964,6.8227,6.7786,6.7389,6.724,6.7341,6.7066,6.6815,6.6488,6.5986,6.5383,6.4806,6.4304,6.3475,6.2747,6.2119,6.1517,6.0814,6.0111,5.9809,5.9558,5.9106,5.9131,5.9081,5.9156,5.9684,6.0236,5.9885,5.9382,5.8905,5.8855,5.883,5.883,5.8629,5.8504,5.8453,5.8328,5.8278,5.8303,5.8504,5.8529,5.878,5.9056,5.9433,5.9633,5.991,6.0638,6.0889,6.124,6.1492,6.1441,6.1316,6.1517,6.1692,6.1567,6.1366,6.1391,6.1391,6.1341,6.1441,6.1416,6.1617,6.1994,6.2094,6.2069,6.2295,6.2571,6.2923,6.3324,6.3626,6.3852,6.3877,6.4053,6.4555,6.5057,6.5358,6.5609,6.5685,6.581,6.6086,6.5936,6.571,6.5397,6.5475,6.5998,6.6259,6.6338,6.6495,6.6782,6.7227,6.8272,6.8429,6.7932,6.788,6.7906,6.7958,6.7985,6.7985,6.8063,6.856,6.869,6.8769,6.869,6.8821,6.9161,6.9814,6.9997,7.0206,7.0624,7.1069,7.0703,7.0703,7.0651,7.0363,6.9189,6.9006,6.8948,6.8758,6.8264,6.822,6.7994,6.7643,6.7191,6.684,6.6237,6.5634,6.5183,6.4881,6.4178,6.345,6.2973,6.2421,6.1768,6.1341,6.114,6.1165,6.0814,6.0512,6.0261,6.0387,6.0537,6.104,6.124,6.0864,6.0537,6.0738,6.0512,5.996,5.9684,5.9558,5.9558,5.9257,5.9056,5.9382,5.9734,5.9935,6.0186,6.0563,6.1014,6.1291,6.1542,6.1818,6.1893,6.2094,6.2295,6.232,6.2169,6.2245,6.232,6.227,6.2069,6.1918,6.1893,6.1768,6.1893,6.2169,6.2471,6.2898,6.3124,6.3099,6.3525,6.3827,6.4178,6.4254,6.4279,6.4354,6.4479,6.4781,6.5208,6.5434,6.5559,6.5785,6.5961,6.6011,6.6112,6.6112,6.5961,6.5397,6.5397,6.558,6.6103,6.6965,6.7749,6.7985,6.7828,6.8141,6.8115,6.7985,6.7985,6.8168,6.856,6.8194,6.8272,6.8507,6.8743,6.8795,6.8847,6.8847,6.8847,6.9108,6.9579,6.9762,6.9997,7.0337,7.0703,7.0494,7.0232,6.9971,6.9788,6.9123,6.9541,6.9669,6.9558,6.9347,6.9027,6.8625,6.812,6.7517,6.6915,6.6338,6.5886,6.5484,6.5258,6.4856,6.4028,6.3576,6.3249,6.2345,6.1793,6.1768,6.1416,6.1014,6.104,6.1215,6.1542,6.1617,6.2019,6.227,6.2119,6.1768,6.1366,6.1165,6.0914,6.0638,6.0563,6.0487,6.0186,6.0236,6.0563,6.0839,6.109,6.1416,6.1868,6.2295,6.2571,6.2797,6.2822,6.2898,6.2722,6.2948,6.2923,6.2797,6.2822,6.2847,6.2873,6.2797,6.2647,6.2621,6.2496,6.2722,6.3099,6.335,6.3726,6.3977,6.4228,6.453,6.468,6.4605,6.463,6.4731,6.4906,6.5132,6.5434,6.581,6.5911,6.5835,6.5936,6.6086,6.6112,6.6137,6.6237,6.6262,6.5266,6.5136,6.5554,6.6286,6.707,6.7357,6.7462,6.7671,6.8115,6.8324,6.8298,6.8089,6.8194,6.835,6.8141,6.8141,6.8429,6.8716,6.8847,6.8847,6.8847,6.8847,6.903,6.9344,6.9501,6.9684,6.9814,7.0076,6.9919,6.9684,6.9396,6.971,6.9291,6.9945,7.0401,7.062,7.0384,7.0065,6.951,6.8751,6.802,6.7265,6.6689,6.6137,6.576,6.566,6.5534,6.468,6.4279,6.3977,6.3048,6.2546,6.2345,6.1843,6.1542,6.1567,6.1692,6.1868,6.1969,6.2446,6.2722,6.2747,6.2546,6.2245,6.1793,6.1441,6.1366,6.1341,6.124,6.119,6.1441,6.1718,6.1943,6.2169,6.2647,6.3124,6.345,6.3751,6.3827,6.3827,6.3676,6.345,6.34,6.34,6.35,6.3601,6.3701,6.3726,6.3601,6.3425,6.3475,6.35,6.3802,6.4128,6.4329,6.4404,6.4655,6.4906,6.5208,6.5258,6.5082,6.5157,6.5383,6.5584,6.581,6.6011,6.6086,6.6086,6.6086,6.6212,6.6463,6.6639,6.6689,6.6689,6.6664,6.5005,6.4665,6.5789,6.6521,6.6834,6.6129,6.6312,6.7227,6.8246,6.8716,6.8507,6.8194,6.8011,6.8115,6.8115,6.8168,6.8429,6.869,6.8847,6.8847,6.8847,6.8847,6.9004,6.9318,6.9265,6.9187,6.9239,6.9501,6.9082,6.9108,6.9422,6.9684,6.9762,7.0285,7.1095,7.1252,7.1192,7.1283,7.0552,6.9714,6.8826,6.802,6.7317,6.6513,6.6237,6.6162,6.6011,6.5584,6.5057,6.453,6.3927,6.335,6.2772,6.237,6.2144,6.2169,6.2295,6.2395,6.2571,6.2948,6.2998,6.3023,6.2873,6.2747,6.2395,6.2019,6.1943,6.1969,6.1893,6.2044,6.2295,6.2546,6.2797,6.3224,6.3726,6.4053,6.4279,6.4479,6.4479,6.4404,6.4128,6.3927,6.3952,6.3977,6.3927,6.4228,6.4304,6.4304,6.4404,6.4203,6.4345,6.4329,6.4705,6.4906,6.4781,6.4906,6.5233,6.5509,6.5735,6.5835,6.5634,6.581,6.6061,6.6112,6.6137,6.6112,6.6162,6.6363,6.6589,6.6689,6.694,6.7241,6.7317,6.7441,6.7191,6.4665,6.4639,6.5789,6.6364,6.6495,6.6625,6.7044,6.7775,6.8037,6.7932,6.7645,6.7854,6.7985,6.8011,6.8403,6.856,6.8664,6.8716,6.8821,6.8847,6.8847,6.8847,6.8847,6.903,6.8978,6.8952,6.8978,6.9056,6.8978,6.9187,6.9527,6.9736,7.0076,7.0807,7.133,7.1435,7.16,7.1816,7.1413,7.0575,6.9582,6.8824,6.8068,6.754,6.7389,6.6664,6.6363,6.5785,6.5383,6.4982,6.4128,6.345,6.2847,6.2722,6.2647,6.2697,6.3023,6.3149,6.3299,6.355,6.3701,6.355,6.34,6.3174,6.2898,6.2596,6.2446,6.2496,6.2647,6.2847,6.3099,6.3375,6.3701,6.4228,6.4731,6.4906,6.5082,6.5057,6.5082,6.4856,6.4555,6.4505,6.453,6.4555,6.4479,6.4454,6.4429,6.453,6.4931,6.5125,6.5041,6.5075,6.5459,6.5609,6.5409,6.5358,6.578,6.5785,6.5936,6.6036,6.6137,6.6409,6.6657,6.651,6.6338,6.6636,6.6887,6.7066,6.7241,6.7641,6.7942,6.8446,6.8498,6.8498,6.802,6.4221,6.3933,6.5005,6.5658,6.592,6.6207,6.6808,6.741,6.707,6.6965,6.7253,6.7906,6.822,6.8115,6.8586,6.8847,6.8847,6.8847,6.8847,6.8847,6.8821,6.8847,6.8847,6.8821,6.8873,6.8847,6.8847,6.8899,6.8952,6.937,6.9684,6.984,7.0442,7.1043,7.1409,7.1592,7.1748,7.1879,7.1556,7.107,7.0229,6.9373,6.8667,6.829,6.7685,6.7035,6.6611,6.6082,6.5634,6.5208,6.4454,6.4078,6.3701,6.3626,6.3576,6.3651,6.3827,6.4028,6.4128,6.4254,6.4379,6.4153,6.3776,6.345,6.3299,6.2998,6.2672,6.2747,6.3124,6.335,6.3651,6.3927,6.4379,6.4881,6.5308,6.5584,6.5509,6.5383,6.5509,6.5584,6.5308,6.5107,6.5208,6.5409,6.5358,6.5528,6.5402,6.5301,6.5629,6.6044,6.5867,6.5841,6.6322,6.6183,6.581,6.5981,6.6107,6.6258,6.6455,6.6803,6.7101,6.7152,6.7228,6.7456,6.7634,6.7786,6.8065,6.8319,6.8897,6.9496,6.9624,6.9629,6.9684,6.9713,6.946,6.3776,6.3149,6.4116,6.4822,6.524,6.5371,6.5998,6.673,6.5998,6.6129,6.7017,6.8037,6.8246,6.822,6.8455,6.869,6.8821,6.8847,6.8847,6.8821,6.8716,6.8743,6.8743,6.8743,6.8743,6.8795,6.8847,6.8847,6.8873,6.937,6.9762,6.9945,7.0546,7.1278,7.1461,7.1644,7.1748,7.1409,7.1252,7.1069,7.0438,6.9739,6.9136,6.8476,6.7596,6.6949,6.6752,6.6404,6.5835,6.5434,6.4906,6.453,6.4304,6.4203,6.4254,6.4304,6.4454,6.4555,6.463,6.4756,6.4731,6.453,6.4078,6.3852,6.3726,6.3475,6.3149,6.3388,6.3766,6.3877,6.4178,6.453,6.4982,6.5383,6.5785,6.6061,6.586,6.5855,6.6032,6.6233,6.6057,6.583,6.5956,6.6183,6.6233,6.6429,6.6626,6.6626,6.6746,6.6933,6.7118,6.7067,6.7128,6.6746,6.6404,6.6404,6.6797,6.6967,6.7163,6.7665,6.8092,6.8442,6.8673,6.9007,6.9187,6.9264,6.9367,6.9573,7.0326,7.1079,7.0914,7.0869,7.1102,7.1107,7.1262,6.3306,6.3567,6.4247,6.4587,6.477,6.5162,6.5789,6.6338,6.6233,6.6286,6.6573,6.7044,6.7331,6.7305,6.788,6.8298,6.8716,6.8795,6.8847,6.8821,6.8455,6.8533,6.8638,6.8612,6.8533,6.8664,6.8847,6.8847,6.8926,6.9396,6.9684,6.971,7.0311,7.0755,7.0781,7.0964,7.099,7.0781,7.0729,7.0598,7.0401,6.9954,6.986,6.9007,6.8304,6.773,6.7208,6.6485,6.6112,6.5835,6.5459,6.5007,6.4781,6.468,6.468,6.4999,6.515,6.5276,6.5352,6.5553,6.5553,6.5132,6.4781,6.4773,6.4597,6.4345,6.4475,6.497,6.5085,6.4713,6.4966,6.5319,6.5723,6.6051,6.6404,6.6429,6.6329,6.6474,6.655,6.6601,6.672,6.6789,6.7154,6.7112,6.6771,6.7112,6.7451,6.7477,6.7477,6.7789,6.8293,6.8125,6.7983,6.7646,6.7451,6.7281,6.7451,6.7646,6.8138,6.889,6.9449,6.9813,7.0271,7.0662,7.0818,7.087,7.0975,7.1105,7.1382,7.1964,7.1905,7.1939,7.2499,7.2656,7.2787]},{"header":{"parameterUnit":"m.s-1","parameterCategory":1,"la1":31.0,"la2":29.5877,"lo1":-88.7671,"lo2":-86.6584,"dy":0.0162,"dx":0.0185,"nx":115,"ny":88,"refTime":"2024-04-01T18:00:00:Z","depth":0,"parameterNumber":3,"parameterNumberName":"V-component_of_WINDS"},"data":[0.0,0.0,0.0,0.0,0.0,0.0,0.0,0.0,0.0,0.0,0.0,0.0,0.0,0.0,0.0,0.0,0.0,0.0,0.0,0.0,0.0,0.0,0.0,0.0,0.0,0.0,0.0,0.0,0.0,0.0,0.0,0.0,0.0,0.0,0.0,0.0,0.0,0.0,0.0,0.0,0.0,0.0,0.0,0.0,0.0,0.0,0.0,0.0,0.0,0.0,0.0,0.0,0.0,0.0,0.0,0.0,0.0,0.0,0.0,0.0,0.0,0.0,0.0,0.0,0.0,0.0,0.0,0.0,0.0,0.0,0.0,0.0,0.0,0.0,0.0,0.0,0.0,0.0,0.0,0.0,0.0,0.0,0.0,0.0,0.0,0.0,0.0,0.0,0.0,0.0,0.0,0.0,0.0,0.0,0.0,0.0,0.0,0.0,0.0,0.0,0.0,0.0,0.0,0.0,0.0,0.0,0.0,0.0,0.0,0.0,0.0,0.0,0.0,0.0,0.0,0.0,0.0,0.0,0.0,0.0,0.0,0.0,0.0,0.0,0.0,0.0,0.0,0.0,0.0,0.0,0.0,0.0,0.0,0.0,0.0,0.0,0.0,0.0,0.0,0.0,0.0,0.0,0.0,0.0,0.0,0.0,0.0,0.0,0.0,0.0,0.0,0.0,0.0,0.0,0.0,0.0,0.0,0.0,0.0,0.0,0.0,0.0,0.0,0.0,0.0,0.0,0.0,0.0,0.0,0.0,0.0,0.0,0.0,0.0,0.0,0.0,0.0,0.0,0.0,0.0,0.0,0.0,0.0,0.0,0.0,0.0,0.0,0.0,0.0,0.0,0.0,0.0,0.0,0.0,0.0,0.0,0.0,0.0,0.0,0.0,0.0,0.0,0.0,0.0,0.0,0.0,0.0,0.0,0.0,0.0,0.0,0.0,0.0,0.0,0.0,0.0,0.0,0.0,0.0,0.0,0.0,0.0,0.0,0.0,0.0,0.0,0.0,0.0,0.0,0.0,0.0,0.0,0.0,0.0,0.0,0.0,0.0,0.0,0.0,0.0,0.0,0.0,0.0,0.0,0.0,0.0,0.0,0.0,0.0,0.0,0.0,0.0,0.0,0.0,0.0,0.0,0.0,0.0,0.0,0.0,0.0,0.0,0.0,0.0,0.0,0.0,0.0,0.0,0.0,0.0,0.0,0.0,0.0,0.0,0.0,0.0,0.0,0.0,0.0,0.0,0.0,0.0,0.0,0.0,0.0,0.0,0.0,0.0,0.0,0.0,0.0,0.0,0.0,0.0,0.0,0.0,0.0,0.0,0.0,0.0,0.0,0.0,0.0,0.0,0.0,0.0,0.0,0.0,0.0,0.0,0.0,0.0,0.0,0.0,0.0,0.0,0.0,0.0,0.0,0.0,0.0,0.0,0.0,0.0,0.0,0.0,0.0,0.0,0.0,0.0,0.0,0.0,0.0,0.0,0.0,0.0,0.0,0.0,0.0,0.0,0.0,0.0,0.0,0.0,0.0,0.0,0.0,0.0,0.0,0.0,0.0,0.0,0.0,0.0,0.0,0.0,0.0,0.0,0.0,0.0,0.0,0.0,0.0,0.0,0.0,0.0,0.0,0.0,0.0,0.0,0.0,0.0,0.0,0.0,0.0,0.0,0.0,0.0,0.0,0.0,0.0,0.0,0.0,0.0,0.0,0.0,0.0,0.0,0.0,0.0,0.0,0.0,0.0,0.0,0.0,0.0,0.0,0.0,0.0,0.0,0.0,0.0,0.0,0.0,0.0,0.0,0.0,0.0,0.0,0.0,0.0,0.0,0.0,0.0,0.0,0.0,0.0,0.0,0.0,0.0,0.0,0.0,0.0,0.0,0.0,0.0,0.0,0.0,0.0,0.0,0.0,0.0,0.0,0.0,0.0,0.0,0.0,0.0,0.0,0.0,0.0,0.0,0.0,0.0,0.0,0.0,0.0,0.0,0.0,0.0,0.0,0.0,0.0,0.0,0.0,0.0,0.0,0.0,0.0,0.0,0.0,0.0,0.0,0.0,0.0,0.0,0.0,0.0,0.0,0.0,0.0,0.0,0.0,0.0,0.0,0.0,0.0,0.0,0.0,0.0,0.0,0.0,0.0,0.0,0.0,0.0,0.0,0.0,0.0,0.0,0.0,0.0,0.0,0.0,0.0,0.0,0.0,0.0,0.0,0.0,0.0,0.0,0.0,0.0,0.0,0.0,0.0,0.0,0.0,0.0,0.0,0.0,0.0,0.0,0.0,0.0,0.0,0.0,0.0,0.0,0.0,0.0,0.0,0.0,0.0,0.0,0.0,0.0,0.0,0.0,0.0,0.0,0.0,0.0,0.0,0.0,0.0,0.0,0.0,0.0,0.0,0.0,0.0,0.0,0.0,0.0,0.0,0.0,0.0,0.0,0.0,0.0,0.0,0.0,0.0,0.0,0.0,0.0,0.0,0.0,0.0,0.0,0.0,0.0,0.0,0.0,0.0,0.0,0.0,0.0,0.0,0.0,0.0,0.0,0.0,0.0,0.0,0.0,0.0,0.0,0.0,0.0,0.0,0.0,0.0,0.0,0.0,0.0,0.0,0.0,0.0,0.0,0.0,0.0,0.0,0.0,0.0,0.0,0.0,0.0,0.0,0.0,0.0,0.0,0.0,0.0,0.0,0.0,0.0,0.0,0.0,0.0,0.0,0.0,0.0,0.0,0.0,0.0,0.0,0.0,0.0,0.0,0.0,0.0,0.0,0.0,0.0,0.0,0.0,0.0,0.0,0.0,0.0,0.0,0.0,0.0,0.0,0.0,0.0,0.0,0.0,0.0,0.0,0.0,0.0,0.0,0.0,0.0,0.0,0.0,0.0,0.0,0.0,0.0,0.0,0.0,0.0,0.0,0.0,0.0,0.0,0.0,0.0,0.0,0.0,0.0,0.0,0.0,0.0,0.0,0.0,0.0,0.0,0.0,0.0,0.0,0.0,0.0,0.0,0.0,0.0,0.0,0.0,0.0,0.0,0.0,0.0,0.0,0.0,0.0,0.0,0.0,0.0,0.0,0.0,0.0,0.0,0.0,0.0,0.0,0.0,0.0,0.0,0.0,0.0,0.0,0.0,0.0,0.0,0.0,0.0,0.0,0.0,0.0,0.0,0.0,0.0,0.0,0.0,0.0,0.0,0.0,0.0,0.0,0.0,0.0,0.0,0.0,0.0,0.0,0.0,0.0,0.0,0.0,0.0,0.0,0.0,0.0,0.0,0.0,0.0,0.0,0.0,0.0,0.0,0.0,0.0,0.0,0.0,0.0,0.0,0.0,0.0,0.0,0.0,0.0,0.0,0.0,0.0,0.0,0.0,0.0,0.0,0.0,0.0,0.0,0.0,0.0,0.0,0.0,0.0,0.0,0.0,0.0,0.0,0.0,0.0,0.0,0.0,0.0,0.0,0.0,0.0,0.0,0.0,0.0,0.0,0.0,0.0,0.0,0.0,0.0,0.0,0.0,0.0,0.0,0.0,0.0,0.0,0.0,0.0,0.0,0.0,0.0,0.0,0.0,0.0,0.0,0.0,0.0,0.0,0.0,0.0,0.0,0.0,0.0,0.0,0.0,0.0,0.0,0.0,0.0,0.0,0.0,0.0,0.0,0.0,0.0,0.0,0.0,0.0,0.0,0.0,0.0,0.0,0.0,0.0,0.0,0.0,0.0,0.0,0.0,0.0,0.0,0.0,0.0,0.0,0.0,0.0,0.0,0.0,0.0,0.0,0.0,0.0,0.0,0.0,0.0,0.0,0.0,0.0,0.0,0.0,0.0,0.0,0.0,0.0,0.0,0.0,0.0,0.0,0.0,0.0,0.0,0.0,0.0,0.0,0.0,0.0,0.0,0.0,0.0,0.0,0.0,0.0,0.0,0.0,0.0,0.0,0.0,0.0,0.0,0.0,0.0,0.0,0.0,0.0,0.0,0.0,0.0,0.0,0.0,0.0,0.0,0.0,0.0,0.0,0.0,0.0,0.0,0.0,0.0,0.0,0.0,0.0,0.0,0.0,0.0,0.0,0.0,0.0,0.0,0.0,0.0,0.0,0.0,0.0,0.0,0.0,0.0,0.0,0.0,0.0,0.0,0.0,0.0,0.0,0.0,0.0,0.0,0.0,0.0,0.0,0.0,0.0,0.0,0.0,0.0,0.0,0.0,0.0,0.0,0.0,0.0,0.0,0.0,0.0,0.0,0.0,0.0,0.0,0.0,0.0,0.0,0.0,0.0,-2.5191,0.0,0.0,0.0,0.0,0.0,0.0,0.0,0.0,0.0,0.0,0.0,0.0,0.0,0.0,0.0,0.0,0.0,0.0,0.0,0.0,0.0,0.0,0.0,0.0,0.0,0.0,0.0,0.0,0.0,0.0,0.0,0.0,0.0,0.0,0.0,0.0,0.0,0.0,0.0,0.0,0.0,0.0,0.0,0.0,0.0,0.0,0.0,0.0,0.0,0.0,0.0,0.0,0.0,0.0,0.0,0.0,0.0,0.0,0.0,0.0,0.0,0.0,0.0,0.0,0.0,0.0,0.0,0.0,0.0,0.0,0.0,0.0,0.0,0.0,0.0,0.0,0.0,0.0,0.0,0.0,0.0,0.0,0.0,0.0,0.0,0.0,0.0,0.0,0.0,0.0,0.0,0.0,0.0,0.0,0.0,0.0,0.0,0.0,0.0,0.0,0.0,0.0,0.0,0.0,0.0,0.0,0.0,0.0,0.0,0.0,-2.4926,-2.4926,-2.4993,-2.5006,-2.4926,0.0,0.0,0.0,0.0,0.0,0.0,0.0,0.0,0.0,0.0,0.0,0.0,0.0,0.0,0.0,0.0,0.0,0.0,0.0,0.0,0.0,0.0,0.0,0.0,0.0,0.0,0.0,0.0,0.0,0.0,0.0,0.0,0.0,0.0,0.0,0.0,0.0,0.0,0.0,0.0,0.0,0.0,0.0,0.0,0.0,0.0,0.0,0.0,0.0,0.0,0.0,0.0,0.0,0.0,0.0,0.0,0.0,0.0,0.0,0.0,0.0,0.0,0.0,0.0,0.0,0.0,0.0,0.0,0.0,0.0,0.0,0.0,0.0,0.0,0.0,0.0,0.0,0.0,0.0,0.0,0.0,0.0,0.0,0.0,0.0,0.0,0.0,0.0,0.0,0.0,0.0,0.0,0.0,0.0,0.0,0.0,0.0,0.0,0.0,0.0,0.0,0.0,0.0,0.0,0.0,0.0,0.0,0.0,0.0,0.0,0.0,0.0,-2.5702,-2.5605,-2.5555,0.0,0.0,0.0,0.0,0.0,0.0,0.0,0.0,0.0,0.0,0.0,0.0,0.0,0.0,0.0,0.0,0.0,0.0,0.0,0.0,0.0,0.0,0.0,0.0,0.0,0.0,0.0,0.0,0.0,0.0,0.0,0.0,0.0,0.0,0.0,0.0,0.0,0.0,0.0,0.0,0.0,0.0,0.0,0.0,0.0,0.0,0.0,0.0,0.0,0.0,0.0,0.0,0.0,0.0,0.0,0.0,0.0,0.0,0.0,0.0,0.0,0.0,0.0,0.0,0.0,0.0,0.0,0.0,0.0,0.0,0.0,0.0,0.0,0.0,0.0,0.0,0.0,0.0,0.0,0.0,0.0,0.0,0.0,0.0,0.0,0.0,0.0,0.0,0.0,0.0,0.0,0.0,0.0,0.0,0.0,0.0,0.0,0.0,0.0,0.0,0.0,0.0,0.0,0.0,0.0,0.0,0.0,0.0,0.0,0.0,-2.6101,-2.8952,-2.8333,0.0,-2.7978,0.0,0.0,0.0,0.0,0.0,0.0,0.0,0.0,0.0,0.0,0.0,0.0,0.0,0.0,0.0,0.0,0.0,0.0,0.0,0.0,0.0,0.0,0.0,0.0,0.0,0.0,0.0,0.0,0.0,0.0,0.0,0.0,0.0,0.0,0.0,0.0,0.0,0.0,0.0,0.0,0.0,0.0,0.0,0.0,0.0,0.0,0.0,0.0,0.0,0.0,0.0,0.0,0.0,0.0,0.0,0.0,0.0,0.0,0.0,0.0,0.0,0.0,0.0,0.0,0.0,0.0,0.0,0.0,0.0,0.0,0.0,0.0,0.0,0.0,0.0,0.0,0.0,0.0,0.0,0.0,0.0,0.0,0.0,0.0,0.0,0.0,0.0,0.0,0.0,0.0,0.0,0.0,0.0,0.0,0.0,0.0,0.0,0.0,0.0,0.0,0.0,0.0,0.0,0.0,0.0,0.0,0.0,0.0,0.0,0.0,-2.6209,-2.845,-2.817,-2.766,0.0,0.0,0.0,0.0,0.0,0.0,0.0,0.0,0.0,0.0,0.0,0.0,0.0,0.0,0.0,0.0,0.0,0.0,0.0,0.0,0.0,0.0,0.0,0.0,0.0,0.0,0.0,0.0,0.0,0.0,0.0,0.0,0.0,0.0,0.0,0.0,0.0,0.0,0.0,0.0,0.0,0.0,0.0,0.0,0.0,0.0,0.0,0.0,0.0,0.0,0.0,0.0,0.0,0.0,0.0,0.0,0.0,0.0,0.0,0.0,0.0,0.0,0.0,0.0,0.0,0.0,0.0,0.0,0.0,0.0,0.0,0.0,0.0,0.0,0.0,0.0,0.0,0.0,0.0,0.0,0.0,0.0,0.0,0.0,0.0,0.0,0.0,0.0,0.0,0.0,0.0,0.0,0.0,0.0,0.0,0.0,0.0,0.0,0.0,0.0,0.0,0.0,0.0,0.0,0.0,0.0,0.0,0.0,0.0,0.0,-2.6209,-2.6943,-2.8594,-2.7897,-2.7126,-2.6432,0.0,0.0,0.0,0.0,0.0,0.0,0.0,0.0,0.0,0.0,0.0,0.0,0.0,0.0,0.0,0.0,0.0,0.0,0.0,0.0,0.0,0.0,0.0,0.0,0.0,0.0,0.0,0.0,0.0,0.0,0.0,0.0,0.0,0.0,0.0,0.0,0.0,0.0,0.0,0.0,0.0,0.0,0.0,0.0,0.0,0.0,0.0,0.0,0.0,0.0,0.0,0.0,0.0,0.0,0.0,0.0,0.0,0.0,0.0,0.0,0.0,0.0,0.0,0.0,0.0,0.0,0.0,0.0,0.0,0.0,0.0,0.0,0.0,0.0,0.0,0.0,0.0,0.0,0.0,0.0,0.0,0.0,0.0,0.0,0.0,0.0,0.0,0.0,0.0,0.0,0.0,0.0,0.0,0.0,0.0,0.0,0.0,0.0,0.0,0.0,0.0,0.0,0.0,0.0,0.0,0.0,0.0,0.0,-3.1751,-2.9182,-2.8815,-3.1005,-2.8264,-2.6979,0.0,0.0,0.0,0.0,0.0,0.0,0.0,0.0,0.0,0.0,0.0,0.0,0.0,0.0,0.0,0.0,0.0,0.0,0.0,0.0,0.0,0.0,0.0,0.0,0.0,0.0,0.0,0.0,0.0,0.0,0.0,0.0,0.0,0.0,0.0,0.0,0.0,0.0,0.0,0.0,0.0,0.0,0.0,0.0,0.0,0.0,0.0,0.0,0.0,0.0,0.0,0.0,0.0,0.0,0.0,0.0,0.0,0.0,0.0,0.0,0.0,0.0,0.0,0.0,0.0,0.0,0.0,0.0,0.0,0.0,0.0,0.0,0.0,0.0,0.0,0.0,0.0,0.0,0.0,0.0,0.0,0.0,0.0,0.0,0.0,0.0,0.0,0.0,0.0,0.0,0.0,0.0,0.0,0.0,0.0,0.0,0.0,0.0,0.0,0.0,0.0,0.0,0.0,0.0,0.0,0.0,0.0,0.0,0.0,-2.7126,-2.7603,-2.8448,-2.9732,-2.8227,-2.7493,0.0,0.0,0.0,0.0,0.0,0.0,0.0,0.0,0.0,0.0,0.0,0.0,0.0,0.0,0.0,0.0,0.0,0.0,0.0,0.0,0.0,0.0,0.0,0.0,0.0,0.0,0.0,0.0,0.0,0.0,0.0,0.0,0.0,0.0,0.0,0.0,0.0,0.0,0.0,0.0,0.0,0.0,0.0,0.0,0.0,0.0,0.0,0.0,0.0,0.0,0.0,0.0,0.0,0.0,0.0,0.0,0.0,0.0,0.0,0.0,0.0,0.0,0.0,0.0,0.0,0.0,0.0,0.0,0.0,0.0,0.0,0.0,0.0,0.0,0.0,0.0,0.0,0.0,0.0,0.0,0.0,0.0,0.0,0.0,0.0,0.0,0.0,0.0,0.0,0.0,0.0,0.0,0.0,0.0,0.0,0.0,0.0,0.0,0.0,0.0,0.0,0.0,0.0,0.0,0.0,0.0,0.0,0.0,0.0,-2.5748,0.0,-2.8659,-2.8879,-2.7948,-2.7141,0.0,0.0,0.0,0.0,0.0,0.0,0.0,0.0,0.0,0.0,0.0,0.0,0.0,0.0,0.0,0.0,0.0,0.0,0.0,0.0,0.0,0.0,0.0,0.0,0.0,0.0,0.0,0.0,0.0,0.0,0.0,0.0,0.0,0.0,0.0,0.0,0.0,0.0,0.0,0.0,0.0,0.0,0.0,0.0,0.0,0.0,0.0,0.0,0.0,0.0,0.0,0.0,0.0,0.0,0.0,0.0,0.0,0.0,0.0,0.0,0.0,0.0,0.0,0.0,0.0,0.0,0.0,0.0,0.0,0.0,0.0,0.0,0.0,0.0,0.0,0.0,0.0,0.0,0.0,0.0,0.0,0.0,0.0,0.0,0.0,0.0,0.0,0.0,0.0,0.0,0.0,0.0,0.0,0.0,0.0,0.0,0.0,0.0,0.0,0.0,0.0,0.0,0.0,0.0,0.0,0.0,0.0,0.0,-2.5727,-2.8649,-2.9491,-2.9625,-2.8942,-2.7405,-2.5816,0.0,0.0,0.0,0.0,0.0,0.0,0.0,0.0,0.0,0.0,0.0,0.0,0.0,0.0,0.0,0.0,0.0,0.0,0.0,0.0,0.0,0.0,0.0,0.0,0.0,0.0,0.0,0.0,0.0,0.0,0.0,0.0,0.0,0.0,0.0,0.0,0.0,0.0,0.0,0.0,0.0,0.0,0.0,0.0,0.0,0.0,0.0,0.0,0.0,0.0,0.0,0.0,0.0,0.0,0.0,0.0,0.0,0.0,0.0,0.0,0.0,0.0,0.0,0.0,0.0,0.0,0.0,0.0,0.0,0.0,0.0,0.0,0.0,0.0,0.0,0.0,0.0,0.0,0.0,0.0,0.0,0.0,0.0,0.0,0.0,0.0,0.0,0.0,0.0,0.0,0.0,0.0,0.0,0.0,0.0,0.0,0.0,0.0,0.0,0.0,0.0,0.0,0.0,0.0,0.0,0.0,0.0,0.0,0.0,-2.6352,-2.819,-2.9867,-3.1107,-2.7593,-2.668,0.0,0.0,0.0,0.0,0.0,0.0,0.0,0.0,0.0,0.0,0.0,0.0,0.0,0.0,0.0,0.0,0.0,0.0,0.0,0.0,0.0,0.0,0.0,0.0,0.0,0.0,0.0,0.0,0.0,0.0,0.0,0.0,0.0,0.0,0.0,0.0,0.0,0.0,0.0,0.0,0.0,0.0,0.0,0.0,0.0,0.0,0.0,0.0,0.0,0.0,0.0,0.0,0.0,0.0,0.0,0.0,0.0,0.0,0.0,0.0,0.0,0.0,0.0,0.0,0.0,0.0,0.0,0.0,0.0,0.0,0.0,0.0,0.0,0.0,0.0,0.0,0.0,0.0,0.0,0.0,0.0,0.0,0.0,0.0,0.0,0.0,0.0,0.0,0.0,0.0,0.0,0.0,0.0,0.0,0.0,0.0,0.0,0.0,0.0,0.0,0.0,0.0,0.0,0.0,0.0,0.0,0.0,0.0,0.0,-2.8785,-3.0202,-3.1428,-3.2329,-2.9125,-2.7851,-2.8846,0.0,0.0,0.0,0.0,0.0,0.0,0.0,0.0,0.0,0.0,0.0,0.0,0.0,0.0,0.0,0.0,0.0,0.0,0.0,0.0,0.0,0.0,0.0,0.0,0.0,0.0,0.0,0.0,0.0,0.0,0.0,0.0,0.0,0.0,0.0,0.0,0.0,0.0,0.0,0.0,0.0,0.0,0.0,0.0,0.0,0.0,0.0,0.0,0.0,0.0,0.0,0.0,0.0,0.0,0.0,0.0,0.0,0.0,0.0,0.0,0.0,0.0,0.0,0.0,0.0,0.0,0.0,0.0,0.0,0.0,0.0,0.0,0.0,0.0,0.0,0.0,0.0,0.0,0.0,0.0,0.0,0.0,0.0,0.0,0.0,0.0,0.0,0.0,0.0,0.0,0.0,0.0,0.0,0.0,0.0,0.0,0.0,0.0,0.0,0.0,0.0,0.0,0.0,0.0,0.0,0.0,0.0,0.0,-3.4842,-3.5168,-3.4655,-3.3045,-3.1847,-2.9475,0.0,0.0,0.0,0.0,0.0,0.0,0.0,0.0,0.0,0.0,0.0,0.0,0.0,0.0,0.0,0.0,0.0,0.0,0.0,0.0,0.0,0.0,0.0,0.0,0.0,0.0,0.0,0.0,0.0,0.0,0.0,0.0,0.0,0.0,0.0,0.0,0.0,0.0,0.0,0.0,0.0,0.0,0.0,0.0,0.0,0.0,0.0,0.0,0.0,0.0,0.0,0.0,0.0,0.0,0.0,0.0,0.0,0.0,0.0,0.0,0.0,0.0,0.0,0.0,0.0,0.0,0.0,0.0,0.0,0.0,0.0,0.0,0.0,0.0,0.0,0.0,0.0,0.0,0.0,0.0,0.0,0.0,0.0,0.0,0.0,0.0,0.0,0.0,0.0,0.0,0.0,0.0,0.0,0.0,0.0,0.0,0.0,0.0,0.0,0.0,0.0,0.0,0.0,0.0,0.0,0.0,0.0,0.0,0.0,-3.8101,-4.2158,-4.2955,-4.0165,-3.538,-3.2299,0.0,0.0,0.0,0.0,0.0,0.0,0.0,0.0,0.0,0.0,0.0,0.0,0.0,0.0,0.0,0.0,0.0,0.0,0.0,0.0,0.0,0.0,0.0,0.0,0.0,0.0,0.0,0.0,0.0,0.0,0.0,0.0,0.0,0.0,0.0,0.0,0.0,0.0,0.0,0.0,0.0,0.0,0.0,0.0,0.0,0.0,0.0,0.0,0.0,0.0,0.0,0.0,0.0,0.0,0.0,0.0,0.0,0.0,0.0,0.0,0.0,0.0,0.0,0.0,0.0,0.0,0.0,0.0,0.0,0.0,0.0,0.0,0.0,0.0,0.0,0.0,0.0,0.0,0.0,0.0,0.0,0.0,0.0,0.0,0.0,0.0,0.0,0.0,0.0,0.0,0.0,0.0,0.0,0.0,0.0,0.0,0.0,0.0,0.0,0.0,0.0,0.0,0.0,0.0,0.0,0.0,0.0,0.0,-3.7522,-4.1832,-4.7011,-4.8822,-4.6975,-4.1397,-3.6472,0.0,0.0,0.0,0.0,0.0,0.0,0.0,0.0,0.0,0.0,0.0,0.0,0.0,0.0,0.0,0.0,0.0,0.0,0.0,0.0,0.0,0.0,0.0,0.0,0.0,0.0,0.0,0.0,0.0,0.0,0.0,0.0,0.0,0.0,0.0,0.0,0.0,0.0,0.0,0.0,0.0,0.0,0.0,0.0,0.0,0.0,0.0,0.0,0.0,0.0,0.0,0.0,0.0,0.0,0.0,0.0,0.0,0.0,0.0,0.0,0.0,0.0,0.0,0.0,0.0,0.0,0.0,0.0,0.0,0.0,0.0,0.0,0.0,0.0,0.0,0.0,0.0,0.0,0.0,0.0,0.0,0.0,0.0,0.0,0.0,0.0,0.0,0.0,0.0,0.0,0.0,0.0,0.0,0.0,0.0,0.0,0.0,0.0,0.0,0.0,0.0,0.0,0.0,0.0,0.0,0.0,0.0,0.0,-4.0709,-4.5345,-5.0307,-5.277,-5.248,-4.7772,-4.0926,0.0,0.0,0.0,0.0,0.0,0.0,0.0,0.0,0.0,0.0,0.0,0.0,0.0,0.0,0.0,0.0,0.0,0.0,0.0,0.0,0.0,0.0,0.0,0.0,0.0,0.0,0.0,0.0,0.0,0.0,0.0,0.0,0.0,0.0,0.0,0.0,0.0,0.0,0.0,0.0,0.0,0.0,0.0,0.0,0.0,0.0,0.0,0.0,0.0,0.0,0.0,0.0,0.0,0.0,0.0,0.0,0.0,0.0,0.0,0.0,0.0,0.0,0.0,0.0,0.0,0.0,0.0,0.0,0.0,0.0,0.0,0.0,0.0,0.0,0.0,0.0,0.0,0.0,0.0,0.0,0.0,0.0,0.0,0.0,0.0,0.0,0.0,0.0,0.0,0.0,0.0,0.0,0.0,0.0,0.0,0.0,0.0,0.0,0.0,0.0,0.0,0.0,0.0,0.0,0.0,0.0,0.0,0.0,-4.2049,-4.6214,-5.2154,-5.4689,-5.3458,-4.7554,-4.1651,0.0,0.0,0.0,0.0,0.0,0.0,0.0,0.0,0.0,0.0,0.0,0.0,0.0,0.0,0.0,0.0,0.0,0.0,0.0,0.0,0.0,0.0,0.0,0.0,0.0,0.0,0.0,0.0,0.0,0.0,0.0,0.0,0.0,0.0,0.0,0.0,0.0,0.0,0.0,0.0,0.0,0.0,0.0,0.0,0.0,0.0,0.0,0.0,-2.5975,0.0,0.0,0.0,0.0,0.0,0.0,0.0,0.0,0.0,0.0,0.0,0.0,0.0,0.0,0.0,0.0,0.0,0.0,0.0,0.0,0.0,0.0,0.0,0.0,0.0,0.0,0.0,0.0,0.0,0.0,0.0,0.0,0.0,0.0,0.0,0.0,0.0,0.0,0.0,0.0,0.0,0.0,0.0,0.0,0.0,0.0,0.0,0.0,0.0,0.0,0.0,0.0,0.0,0.0,0.0,0.0,0.0,0.0,0.0,-4.3776,-4.8677,-5.3494,-5.5315,-5.3832,-4.9208,-4.3812,0.0,0.0,0.0,0.0,0.0,0.0,0.0,0.0,0.0,0.0,0.0,0.0,0.0,0.0,0.0,0.0,0.0,0.0,0.0,0.0,0.0,0.0,0.0,0.0,0.0,0.0,0.0,0.0,0.0,0.0,0.0,0.0,0.0,0.0,0.0,0.0,0.0,0.0,0.0,0.0,0.0,0.0,0.0,0.0,0.0,0.0,0.0,0.0,0.0,0.0,0.0,0.0,0.0,0.0,0.0,0.0,0.0,0.0,0.0,0.0,0.0,0.0,0.0,0.0,0.0,0.0,0.0,0.0,0.0,0.0,0.0,0.0,0.0,0.0,0.0,0.0,0.0,0.0,0.0,0.0,0.0,0.0,0.0,0.0,0.0,0.0,0.0,0.0,0.0,0.0,0.0,0.0,0.0,0.0,0.0,0.0,0.0,0.0,0.0,0.0,0.0,0.0,0.0,0.0,0.0,0.0,0.0,-4.0164,-4.5456,-5.142,-5.4569,-5.5541,-5.4302,-5.1213,-4.6119,-3.8898,0.0,0.0,0.0,0.0,0.0,0.0,0.0,0.0,0.0,0.0,0.0,0.0,0.0,0.0,0.0,0.0,0.0,0.0,0.0,0.0,0.0,0.0,0.0,0.0,0.0,0.0,0.0,0.0,0.0,0.0,0.0,0.0,0.0,0.0,0.0,0.0,0.0,0.0,-2.391,-2.5143,0.0,0.0,0.0,0.0,0.0,0.0,0.0,0.0,-2.696,0.0,0.0,0.0,0.0,0.0,0.0,0.0,0.0,0.0,0.0,0.0,0.0,0.0,0.0,0.0,0.0,0.0,0.0,0.0,0.0,0.0,0.0,0.0,0.0,0.0,0.0,0.0,0.0,0.0,0.0,0.0,0.0,0.0,0.0,0.0,0.0,0.0,0.0,0.0,0.0,0.0,0.0,0.0,0.0,0.0,0.0,0.0,0.0,0.0,0.0,0.0,0.0,0.0,0.0,0.0,0.0,-4.0091,-4.1935,-4.6086,-5.281,-5.5287,-5.5965,-5.4724,-5.1565,-4.6763,-4.0384,0.0,0.0,0.0,0.0,0.0,0.0,0.0,0.0,0.0,0.0,0.0,0.0,0.0,0.0,0.0,0.0,0.0,0.0,0.0,0.0,0.0,0.0,0.0,0.0,0.0,0.0,0.0,0.0,0.0,0.0,0.0,0.0,0.0,0.0,0.0,0.0,0.0,0.0,0.0,-2.8767,-3.0304,0.0,0.0,0.0,0.0,0.0,0.0,0.0,0.0,-2.8755,0.0,0.0,0.0,0.0,0.0,0.0,0.0,0.0,0.0,0.0,0.0,0.0,0.0,0.0,0.0,0.0,0.0,0.0,0.0,0.0,0.0,0.0,0.0,0.0,0.0,0.0,0.0,0.0,0.0,0.0,0.0,0.0,0.0,0.0,0.0,0.0,0.0,0.0,0.0,0.0,0.0,0.0,0.0,0.0,0.0,0.0,0.0,0.0,0.0,0.0,0.0,0.0,0.0,0.0,0.0,-3.9572,-4.3101,-4.7523,-5.2945,-5.4559,-5.4808,-5.3548,-5.0136,-4.5598,0.0,0.0,0.0,0.0,0.0,0.0,0.0,0.0,0.0,0.0,0.0,0.0,0.0,0.0,0.0,0.0,0.0,0.0,0.0,0.0,0.0,0.0,0.0,0.0,0.0,0.0,0.0,0.0,0.0,0.0,0.0,0.0,0.0,0.0,0.0,0.0,0.0,0.0,0.0,0.0,-3.0162,-3.1133,-3.2286,0.0,0.0,0.0,0.0,0.0,0.0,-3.0552,-3.0176,0.0,0.0,0.0,0.0,0.0,0.0,0.0,0.0,0.0,0.0,0.0,0.0,0.0,0.0,0.0,0.0,0.0,0.0,0.0,0.0,0.0,0.0,0.0,0.0,0.0,0.0,0.0,0.0,0.0,0.0,0.0,0.0,0.0,0.0,0.0,0.0,0.0,0.0,0.0,0.0,0.0,0.0,0.0,0.0,0.0,0.0,0.0,0.0,0.0,0.0,0.0,0.0,0.0,0.0,0.0,-3.8541,-4.3777,-4.8588,-5.2726,-5.3847,-5.3707,-5.2497,-4.8682,-4.4347,0.0,0.0,0.0,0.0,0.0,0.0,0.0,0.0,0.0,0.0,0.0,0.0,0.0,0.0,0.0,0.0,0.0,0.0,0.0,0.0,0.0,0.0,0.0,0.0,0.0,0.0,0.0,0.0,0.0,0.0,0.0,0.0,0.0,0.0,0.0,0.0,0.0,0.0,0.0,0.0,0.0,-3.2983,-3.4709,-3.4066,0.0,0.0,0.0,0.0,-3.2544,-3.3288,0.0,0.0,0.0,0.0,0.0,0.0,0.0,0.0,0.0,0.0,0.0,0.0,0.0,0.0,0.0,0.0,0.0,0.0,0.0,0.0,0.0,0.0,0.0,0.0,0.0,0.0,0.0,0.0,0.0,0.0,0.0,0.0,0.0,0.0,0.0,0.0,0.0,0.0,0.0,0.0,0.0,0.0,0.0,0.0,0.0,0.0,0.0,0.0,0.0,0.0,0.0,0.0,0.0,0.0,0.0,0.0,-3.8703,-4.358,-4.8225,-5.2439,-5.3931,-5.4087,-5.2901,-4.8459,-4.413,0.0,0.0,0.0,0.0,0.0,0.0,0.0,0.0,0.0,0.0,0.0,0.0,0.0,0.0,0.0,0.0,0.0,0.0,0.0,0.0,0.0,0.0,0.0,0.0,0.0,0.0,0.0,0.0,0.0,0.0,0.0,0.0,0.0,0.0,0.0,0.0,0.0,0.0,0.0,0.0,0.0,-3.9073,-3.684,-3.6941,-3.6468,0.0,0.0,-3.7144,-3.7144,-4.046,0.0,0.0,0.0,0.0,0.0,0.0,0.0,0.0,0.0,0.0,0.0,0.0,0.0,0.0,0.0,0.0,0.0,0.0,0.0,0.0,0.0,0.0,0.0,0.0,0.0,0.0,0.0,0.0,0.0,0.0,0.0,0.0,0.0,0.0,0.0,0.0,0.0,0.0,0.0,0.0,0.0,0.0,0.0,0.0,0.0,0.0,0.0,0.0,0.0,0.0,0.0,0.0,0.0,0.0,0.0,-3.5385,-3.9066,-4.4624,-4.8915,-5.1589,-5.2588,-5.2861,-5.2495,-4.6782,-4.2804,0.0,0.0,0.0,0.0,0.0,0.0,0.0,0.0,0.0,0.0,0.0,0.0,0.0,0.0,0.0,0.0,0.0,0.0,0.0,0.0,0.0,0.0,0.0,0.0,0.0,0.0,0.0,0.0,0.0,0.0,0.0,0.0,0.0,0.0,0.0,0.0,0.0,0.0,0.0,0.0,0.0,0.0,-3.8734,-3.9648,0.0,0.0,0.0,-4.0899,-4.046,0.0,0.0,0.0,0.0,0.0,0.0,0.0,0.0,0.0,0.0,0.0,0.0,0.0,0.0,0.0,0.0,0.0,0.0,0.0,0.0,0.0,0.0,0.0,0.0,0.0,0.0,0.0,0.0,0.0,0.0,0.0,0.0,0.0,0.0,0.0,0.0,0.0,0.0,0.0,0.0,0.0,0.0,0.0,0.0,0.0,0.0,0.0,0.0,0.0,0.0,0.0,0.0,0.0,0.0,0.0,0.0,0.0,-3.9151,-4.5395,-4.9413,-5.0892,-5.1665,-5.1967,-5.1665,-4.5924,0.0,0.0,0.0,0.0,0.0,0.0,0.0,0.0,0.0,0.0,0.0,0.0,0.0,0.0,0.0,0.0,0.0,0.0,0.0,0.0,0.0,0.0,0.0,0.0,0.0,0.0,0.0,-2.3033,0.0,0.0,0.0,0.0,0.0,0.0,0.0,0.0,0.0,0.0,0.0,0.0,0.0,0.0,-4.0054,-4.0595,-4.2388,-4.3436,0.0,0.0,-4.4564,-4.3934,-4.5529,-4.5496,0.0,0.0,0.0,0.0,0.0,0.0,0.0,0.0,0.0,0.0,0.0,0.0,0.0,0.0,0.0,0.0,0.0,0.0,0.0,0.0,0.0,0.0,0.0,0.0,0.0,0.0,0.0,0.0,0.0,0.0,0.0,0.0,0.0,0.0,0.0,0.0,0.0,0.0,0.0,0.0,0.0,0.0,0.0,0.0,0.0,0.0,0.0,0.0,0.0,0.0,0.0,0.0,0.0,0.0,0.0,-3.8908,-4.5161,-4.922,-5.0693,-5.21,-5.2167,-5.076,-4.701,-4.3719,0.0,0.0,0.0,0.0,0.0,0.0,0.0,0.0,0.0,0.0,0.0,0.0,0.0,0.0,0.0,0.0,0.0,0.0,0.0,0.0,0.0,0.0,0.0,0.0,0.0,0.0,0.0,0.0,0.0,0.0,0.0,0.0,0.0,0.0,0.0,0.0,0.0,0.0,0.0,0.0,0.0,-4.4451,-4.2422,-4.5229,-4.797,0.0,0.0,-4.8489,-4.8077,-5.2635,-5.3238,-4.4173,0.0,0.0,0.0,0.0,0.0,0.0,0.0,0.0,0.0,0.0,0.0,0.0,0.0,0.0,0.0,0.0,0.0,0.0,0.0,0.0,0.0,0.0,0.0,0.0,0.0,0.0,0.0,0.0,0.0,0.0,0.0,0.0,0.0,0.0,0.0,0.0,0.0,0.0,0.0,0.0,0.0,0.0,0.0,0.0,0.0,0.0,0.0,0.0,0.0,0.0,0.0,0.0,0.0,-3.7633,-3.9945,-4.545,-4.9226,-5.1127,-5.2124,-5.2357,-5.186,-4.6991,-4.3823,0.0,0.0,0.0,0.0,0.0,0.0,0.0,0.0,0.0,0.0,0.0,0.0,0.0,0.0,0.0,0.0,0.0,0.0,0.0,0.0,0.0,0.0,0.0,0.0,0.0,0.0,0.0,0.0,-2.5507,-2.6048,-2.6488,0.0,0.0,0.0,0.0,0.0,0.0,0.0,0.0,0.0,0.0,-4.6041,-4.6955,-4.9932,0.0,0.0,-5.1798,-5.1631,-5.0326,-5.1462,-5.046,-4.4381,-4.2154,0.0,0.0,0.0,0.0,0.0,0.0,0.0,0.0,0.0,0.0,0.0,0.0,0.0,0.0,0.0,0.0,0.0,0.0,0.0,0.0,0.0,0.0,0.0,0.0,0.0,0.0,0.0,0.0,0.0,0.0,0.0,0.0,0.0,0.0,0.0,0.0,0.0,0.0,0.0,0.0,0.0,0.0,0.0,0.0,0.0,0.0,0.0,0.0,0.0,0.0,0.0,0.0,-3.8037,-4.0621,-4.5336,-4.8928,-5.1054,-5.2146,-5.2544,-5.2121,-4.7766,-4.4876,0.0,0.0,0.0,0.0,0.0,0.0,0.0,0.0,0.0,0.0,0.0,0.0,0.0,0.0,0.0,0.0,0.0,0.0,0.0,0.0,0.0,0.0,0.0,0.0,0.0,0.0,0.0,0.0,-2.6623,-2.7435,-2.8381,0.0,0.0,0.0,0.0,0.0,0.0,0.0,0.0,0.0,0.0,-4.7428,-4.9492,-5.1961,-5.345,-5.3044,-5.291,-5.2468,-5.128,-5.0388,-4.8398,-4.4237,0.0,0.0,0.0,0.0,0.0,0.0,0.0,0.0,0.0,0.0,0.0,0.0,0.0,0.0,0.0,0.0,0.0,0.0,0.0,0.0,0.0,0.0,0.0,0.0,0.0,0.0,0.0,0.0,0.0,0.0,0.0,0.0,0.0,0.0,0.0,0.0,0.0,0.0,0.0,0.0,0.0,0.0,0.0,0.0,0.0,0.0,0.0,0.0,0.0,0.0,0.0,0.0,0.0,-3.8438,-4.0513,-4.4782,-4.8034,-5.0253,-5.2307,-5.2705,-5.1347,-4.9756,-4.7336,-4.3872,0.0,0.0,0.0,0.0,0.0,0.0,0.0,0.0,0.0,0.0,0.0,0.0,0.0,0.0,0.0,0.0,0.0,0.0,0.0,0.0,0.0,0.0,0.0,0.0,0.0,0.0,-2.4896,-2.6522,-2.8381,0.0,0.0,0.0,0.0,0.0,0.0,0.0,0.0,0.0,0.0,-4.4756,-4.8951,-4.899,-5.0371,-5.2132,-5.4126,-5.2065,-5.0322,-5.0669,-5.0692,-4.8931,0.0,0.0,0.0,0.0,0.0,0.0,0.0,0.0,0.0,0.0,0.0,0.0,0.0,0.0,0.0,0.0,0.0,0.0,0.0,0.0,0.0,0.0,0.0,0.0,0.0,0.0,0.0,-3.685,-3.6047,0.0,0.0,0.0,0.0,0.0,0.0,0.0,0.0,0.0,0.0,0.0,-4.0201,-4.038,0.0,0.0,0.0,0.0,0.0,0.0,0.0,0.0,0.0,0.0,0.0,0.0,-3.9335,-4.1976,-4.5711,-4.8928,-5.1578,-5.2373,-5.2506,-5.1976,-4.9657,-4.6474,-4.2475,0.0,0.0,0.0,0.0,0.0,0.0,0.0,0.0,0.0,0.0,0.0,0.0,0.0,0.0,0.0,0.0,0.0,0.0,0.0,0.0,0.0,0.0,0.0,0.0,0.0,-2.8755,0.0,0.0,0.0,0.0,0.0,0.0,0.0,0.0,0.0,0.0,0.0,-3.8968,-4.1744,-4.4887,-4.7309,-4.8265,-5.0476,-5.229,0.0,0.0,0.0,0.0,0.0,0.0,0.0,0.0,0.0,0.0,0.0,0.0,0.0,0.0,-4.2903,-3.815,-3.7634,-3.7979,-3.8273,0.0,0.0,0.0,0.0,0.0,0.0,0.0,0.0,0.0,0.0,0.0,0.0,0.0,0.0,0.0,0.0,-3.9249,0.0,0.0,0.0,0.0,0.0,0.0,0.0,0.0,-4.246,-4.3588,-4.3846,-4.4019,-4.4284,0.0,-4.3024,-4.0857,0.0,0.0,0.0,0.0,0.0,0.0,0.0,0.0,-4.038,-4.3049,-4.6341,-4.9293,-5.1877,-5.2473,-5.2638,-5.234,-4.979,-4.6908,-4.3913,-4.2176,-4.0247,0.0,0.0,0.0,0.0,0.0,0.0,0.0,0.0,0.0,0.0,0.0,0.0,0.0,0.0,0.0,0.0,0.0,0.0,0.0,0.0,0.0,0.0,0.0,-3.1443,0.0,0.0,0.0,0.0,0.0,0.0,0.0,0.0,0.0,-3.8154,-3.909,-4.0959,-4.422,-4.5995,-4.7322,-4.8232,0.0,0.0,0.0,0.0,0.0,0.0,0.0,-4.594,-4.3704,-4.408,-4.4818,-4.5326,-4.685,-4.8081,-4.8327,0.0,0.0,-4.1548,-4.0716,-4.1024,-4.171,-4.2552,-4.3376,-4.4185,-4.5557,-4.6726,0.0,0.0,0.0,0.0,0.0,0.0,0.0,0.0,-4.1475,-4.1707,0.0,-4.1607,0.0,0.0,0.0,0.0,0.0,0.0,0.0,0.0,-4.7404,-4.8796,-4.8199,-4.8829,-4.8829,-4.81,-4.6676,-4.5218,-4.3761,-4.2402,0.0,0.0,0.0,0.0,0.0,0.0,-4.1587,-4.3827,-4.6709,-4.9193,-5.138,-5.2738,-5.3102,-5.2407,-5.0353,-4.8862,-4.7968,-4.4743,-4.2508,-4.1677,-3.8317,0.0,0.0,0.0,0.0,0.0,0.0,0.0,0.0,0.0,0.0,0.0,0.0,0.0,0.0,0.0,0.0,0.0,0.0,0.0,0.0,-3.2866,0.0,0.0,0.0,0.0,0.0,0.0,0.0,0.0,0.0,0.0,-3.9237,-4.135,-4.3942,-4.627,0.0,0.0,0.0,0.0,-4.8853,-4.8941,-4.8329,-4.791,-4.7909,-4.8844,-4.8983,-4.6991,0.0,0.0,-5.0851,-5.0913,-5.119,-5.1775,-5.1929,-5.082,-4.7527,-4.6313,-4.6004,-4.6542,-4.6837,-4.7065,-4.7742,-4.8789,-4.9497,-4.873,0.0,0.0,0.0,0.0,-4.3827,-4.4953,-4.6643,-4.7371,-4.651,-4.4556,-4.5086,0.0,0.0,0.0,0.0,0.0,0.0,-4.5052,-4.6841,-4.9458,-5.0817,-5.1115,-5.1347,-5.1578,-5.181,-5.0386,-4.9226,-4.8365,-4.8431,-4.5251,-3.9056,0.0,0.0,0.0,0.0,-4.3495,-4.6676,-4.9127,-5.138,-5.3566,-5.3997,-5.3864,-5.3135,-5.2042,-5.085,-4.9624,-4.7537,-4.5678,-4.3886,-4.183,0.0,0.0,0.0,0.0,0.0,0.0,0.0,0.0,0.0,0.0,0.0,0.0,0.0,0.0,0.0,0.0,0.0,0.0,0.0,-3.3614,-3.5262,-3.5695,0.0,0.0,0.0,0.0,0.0,0.0,0.0,0.0,0.0,-4.268,-4.3158,-4.4253,0.0,0.0,-4.5541,-4.6494,-4.741,-4.8497,-4.9915,0.0,0.0,0.0,-5.0886,-5.0739,-4.9651,-5.1775,-5.3899,-5.4853,-5.5407,-5.5807,-5.5992,-5.6023,-5.553,-5.4114,-5.1682,-5.0174,-5.0266,-5.0974,-5.2021,-5.316,-5.4668,-5.6023,-5.5752,-5.0154,-4.8465,-4.8001,-4.8465,-4.8995,-5.0021,-5.1313,-5.2042,-5.1015,-4.8829,-4.926,-4.7802,-4.4854,-4.4291,0.0,0.0,0.0,-4.8498,-5.0684,-5.2539,-5.3798,-5.4494,-5.4527,-5.4593,-5.4626,-5.3268,-5.2208,-5.1479,-5.1048,-4.8431,-4.3694,0.0,0.0,-4.1475,-4.3595,-4.6079,-4.8829,-5.1015,-5.2904,-5.446,-5.4527,-5.4295,-5.3864,-5.3169,-5.2241,-5.1115,-4.9657,-4.8068,-4.6286,-4.4183,-4.2216,0.0,0.0,0.0,0.0,0.0,0.0,0.0,0.0,0.0,0.0,0.0,-3.1527,-3.1175,0.0,0.0,0.0,-3.4904,-3.5547,-3.5956,-3.7036,0.0,0.0,0.0,0.0,0.0,0.0,0.0,-3.9101,-4.0737,-4.2887,-4.5699,-4.6009,-4.668,-4.8536,-4.7887,-4.7503,-4.8434,0.0,-5.0574,-5.2082,-5.2975,-5.3468,-5.3345,-5.3745,-5.4145,-5.4299,-5.5592,-5.7192,-5.8516,-5.8916,-5.9162,-5.9562,-5.9347,-5.8916,-5.8793,-5.6854,-5.5099,-5.4637,-5.5376,-5.6515,-5.7839,-5.9316,-6.0578,-6.2113,-5.9164,-5.5256,-5.3334,-5.3036,-5.4295,-5.4924,-5.509,-5.5786,-5.5189,-5.3798,-5.3765,-5.2572,-5.0485,-4.9127,0.0,0.0,-5.138,-5.2804,-5.4825,-5.6216,-5.7243,-5.7839,-5.7873,-5.7508,-5.6846,-5.5521,-5.4494,-5.3699,-5.1744,-5.0651,-5.0419,-4.8299,-4.6477,-4.5152,-4.704,-4.8862,-5.0386,-5.2373,-5.3831,-5.4659,-5.4692,-5.4659,-5.4626,-5.3897,-5.3135,-5.2373,-5.0979,-4.9681,-4.8515,-4.5732,-4.4043,-4.3589,0.0,0.0,0.0,0.0,0.0,0.0,0.0,0.0,0.0,0.0,0.0,0.0,0.0,0.0,0.0,-3.8141,0.0,-3.8618,-3.8376,0.0,0.0,0.0,-3.7764,-3.9715,-3.9471,-3.9937,-4.2109,0.0,0.0,-4.82,0.0,-5.0482,-5.1929,-5.2421,-5.2637,-5.2788,-5.3281,-5.4052,-5.4699,-5.5037,-5.5376,-5.5992,-5.6977,-5.8054,-5.9131,-5.987,-6.0178,-6.1255,-6.1194,-6.1409,-6.2364,-6.1717,-6.1009,-6.1656,-6.0886,-6.0455,-5.9162,-5.9439,-6.027,-6.1502,-6.2333,-6.3041,-6.685,-6.4697,-6.42,-6.145,-5.7409,-5.7707,-5.8502,-5.9529,-5.9728,-5.8668,-5.6746,-5.6746,-5.5554,-5.3467,-5.3135,-5.3467,-5.4361,-5.509,-5.5984,-5.7044,-5.7939,-5.8469,-5.8634,-5.8634,-5.8535,-5.8336,-5.8038,-5.7475,-5.6746,-5.5653,-5.4295,-5.2638,-5.1015,-4.9226,-4.7338,-4.8299,-4.9856,-5.1843,-5.2904,-5.4328,-5.6084,-5.6183,-5.5918,-5.5355,-5.4659,-5.3665,-5.2407,-5.0877,-4.97,-4.881,-4.7453,-4.6008,-4.4351,-4.2205,0.0,0.0,0.0,0.0,0.0,0.0,0.0,0.0,0.0,-3.4406,-3.4333,0.0,-3.5666,0.0,-3.7877,-3.9419,-3.9913,-3.9468,0.0,0.0,-3.8904,-3.9188,-3.9868,-4.1449,-4.2674,-4.2973,-4.4941,-4.715,-4.914,-5.0907,-5.2883,-5.5161,-5.3468,-5.2379,-5.3459,-5.4078,-5.4914,-5.6146,-5.7531,-5.8639,-5.8731,-5.907,-5.9562,-6.0424,-6.0547,-6.0855,-6.1656,-6.1686,-6.184,-6.2579,-6.2148,-6.1686,-6.1779,-6.1255,-6.1163,-6.1625,-6.1594,-6.1748,-6.3071,-6.3903,-6.4611,-6.8928,-6.7167,-6.798,-6.5894,-6.2145,-6.2245,-6.2411,-6.2577,-6.2577,-6.1483,-5.9694,-5.8708,-5.7591,-5.6441,-5.608,-5.61,-5.6366,-5.7569,-5.829,-5.8558,-5.9448,-5.9862,-5.9792,-5.9862,-5.9862,-5.9792,-5.9531,-5.9198,-5.8767,-5.8038,-5.6879,-5.5388,-5.4891,-5.3566,-5.1446,-5.0518,-5.085,-5.2373,-5.403,-5.5786,-5.7574,-5.7342,-5.668,-5.562,-5.3634,-5.2072,-5.0955,-4.8252,-4.6788,-4.6797,-4.5403,-4.4194,-4.3278,-4.1346,-3.9783,0.0,0.0,0.0,0.0,0.0,0.0,0.0,0.0,0.0,0.0,0.0,-3.7778,0.0,-4.0061,-4.12,-4.1117,-4.0747,-4.0628,-4.0842,-4.0917,-4.1309,-4.2289,-4.3639,-4.4708,-4.5221,-4.738,-4.9357,-5.0992,-5.2794,-5.4635,-5.6818,-5.5251,-5.4607,-5.6124,-5.6555,-5.7008,-5.8362,-5.9255,-5.9901,-6.0178,-6.024,-6.0363,-6.0701,-6.0794,-6.0917,-6.1286,-6.1379,-6.1502,-6.1809,-6.1594,-6.1471,-6.1717,-6.1532,-6.1686,-6.2794,-6.2979,-6.3133,-6.4087,-6.4857,-6.5472,-6.9568,-6.8055,-6.8788,-6.806,-6.6322,-6.6549,-6.5798,-6.4671,-6.4572,-6.365,-6.2134,-5.9968,-5.9026,-5.9112,-5.8377,-5.7797,-5.7451,-5.9193,-5.9741,-5.9337,-6.0482,-6.0967,-6.0874,-6.0935,-6.0967,-6.0931,-6.0397,-6.0109,-5.9977,-5.9251,-5.8411,-5.7654,-5.8049,-5.7258,-5.5205,-5.2778,-5.1861,-5.26,-5.5246,-5.7231,-5.8488,-5.7529,-5.6294,-5.4873,-5.159,-4.9329,-4.8479,-4.4825,-4.3195,-4.3975,-4.2062,-4.1202,-4.174,-3.9512,-3.8476,0.0,-3.728,0.0,0.0,0.0,0.0,0.0,0.0,0.0,0.0,-3.9395,-4.0347,-4.1811,-4.2925,-4.3235,-4.2561,-4.2319,-4.2636,-4.3657,-4.3296,-4.3687,-4.5432,-4.5717,-4.6431,-4.8036,-4.9762,-5.1423,-5.2882,-5.4318,-5.5603,-5.6953,-5.6715,-5.7033,-5.9008,-5.8731,-5.8639,-6.024,-6.0086,-5.9963,-6.0424,-6.0671,-6.0763,-6.0794,-6.0794,-6.0824,-6.0978,-6.1009,-6.1009,-6.1101,-6.1225,-6.1348,-6.184,-6.1963,-6.2364,-6.3533,-6.3749,-6.4026,-6.4857,-6.5565,-6.6027,-6.9777,-6.8647,-6.8893,-6.8235,-6.7111,-6.7155,-6.6624,-6.5829,-6.5224,-6.4119,-6.2428,-6.0613,-6.0009,-6.0195,-5.9882,-5.9315,-5.8715,-5.9691,-5.9784,-5.9182,-5.9975,-6.0263,-6.0297,-6.045,-6.0761,-6.0949,-6.0784,-6.058,-6.0211,-5.9113,-5.782,-5.6573,-5.541,-5.4253,-5.3299,0.0,0.0,0.0,-5.5247,-5.6264,-5.6461,-5.3945,-5.2095,-5.1214,-4.8393,0.0,-4.5649,-4.3772,-4.2745,-4.285,-4.1919,0.0,0.0,0.0,0.0,0.0,0.0,0.0,0.0,0.0,0.0,0.0,-4.0751,-4.0535,-4.0729,-4.091,-4.1656,-4.3106,-4.3277,-4.3898,-4.5327,-4.4488,-4.4158,-4.4907,-4.4907,-4.5207,-4.6082,-4.7519,-4.9014,-4.9944,-5.1331,-5.2601,-5.3672,-5.4131,-5.4983,-5.6655,-5.6503,-5.6885,-5.843,-5.7894,-5.7531,-5.8239,-5.9193,-5.9809,-5.9963,-6.0424,-6.0732,-6.0794,-6.0794,-6.0978,-6.1409,-6.1563,-6.1809,-6.221,-6.2425,-6.2394,-6.2579,-6.2641,-6.2887,-6.3687,-6.3841,-6.421,-6.5442,-6.6242,-6.6888,-6.9772,0.0,-6.8808,-6.8364,0.0,-6.7112,-6.6928,-6.6498,-6.5602,-6.4492,-6.3268,-6.1728,-6.1002,-6.0756,-6.0313,-5.9617,-5.8798,-5.9661,-5.9853,-5.9251,-5.9853,-6.0103,-6.0058,-6.0546,-6.0929,-6.1019,-6.0994,-6.0931,-6.0676,-5.9695,-5.8715,-5.7611,-5.7141,-5.6356,-5.538,-5.5317,-5.5334,-5.5263,-5.5693,-5.6316,-5.6895,-5.4819,-5.3134,-5.1997,0.0,0.0,0.0,0.0,0.0,0.0,0.0,0.0,0.0,0.0,0.0,-4.2731,-4.247,-4.2575,-4.3259,-4.3283,-4.3603,-4.4227,-4.4616,-4.4238,-4.2894,-4.3747,-4.4736,-4.5777,-4.5783,-4.6322,-4.7578,-4.686,-4.6531,-4.716,-4.7249,-4.7519,-4.8207,-4.9134,-5.0214,-5.1296,-5.2257,-5.3254,-5.4014,-5.4171,-5.4812,-5.5992,-5.5819,-5.5956,-5.6968,-5.7511,-5.7832,-5.8239,-5.9101,-5.9624,-5.9439,-5.987,-6.0301,-6.0301,-6.0301,-6.0578,-6.1194,-6.1317,-6.144,-6.1779,-6.2086,-6.2394,-6.2794,-6.3071,-6.3533,-6.421,-6.4641,-6.5011,-6.578,-6.618,-6.6611,-6.9536,-6.7759,-6.8566,-6.8268,-6.6999,-6.6999,-6.6909,-6.6732,0.0,0.0,0.0,-6.2588,-6.1625,-6.1144,-6.0517,-5.9532,-5.8522,-5.9563,-5.9768,-5.9154,-5.9643,-5.9855,-5.9686,-6.0515,-6.0733,-6.0537,-6.0833,-6.085,-6.0697,-6.0129,-5.9468,-5.8905,-5.9374,-5.9061,-5.7997,-5.7586,-5.7152,-5.6752,-5.6073,-5.6329,-5.7459,-5.5821,-5.4253,-5.2973,-4.9058,-4.6567,-4.5782,-4.3089,-4.1803,-4.2389,-4.1953,-4.2073,-4.2821,-4.288,-4.3479,-4.4676,-4.4317,-4.4825,-4.6531,-4.6142,-4.6352,-4.7578,-4.8147,-4.7489,-4.5185,-4.6621,-4.7878,-4.8416,-4.8476,-4.8716,-4.9344,-4.8835,-4.8716,-4.9374,-4.9434,-4.9643,-5.0152,-5.0481,-5.102,-5.2067,-5.2845,-5.3503,-5.3892,-5.4149,-5.4488,-5.5038,-5.4986,-5.5274,-5.6191,-5.7212,-5.7878,-5.827,-5.8762,-5.9162,-5.8854,-5.9162,-5.9624,-5.9809,-5.9809,-6.0024,-6.0578,-6.0794,-6.0794,-6.0886,-6.144,-6.2179,-6.2733,-6.3472,-6.418,-6.4764,-6.5349,-6.578,-6.5873,-6.5811,-6.5996,-6.888,-6.8271,-6.7941,-6.7487,-6.6999,-6.6999,-6.667,-6.6041,-6.4748,-6.3894,-6.3456,-6.1941,-6.1308,-6.1407,-6.1157,-6.0216,-5.9105,-5.9723,-5.9469,0.0,-5.8957,-5.8957,-5.846,-5.9289,-5.9227,-5.8583,-5.9631,-5.9643,-5.8868,-5.8826,-5.8498,-5.7789,-5.7553,-5.7698,-5.7851,-5.7444,-5.7051,-5.6861,-5.5782,-5.5436,-5.5561,-5.2188,-5.0067,-4.9233,-4.593,-4.3578,-4.2995,-4.2569,-4.2329,-4.2372,-4.2791,-4.3599,-4.4796,-4.4915,-4.5484,-4.6741,-4.68,-4.713,-4.7938,-4.7938,-4.8207,-4.8895,-4.9075,-4.8716,-4.7848,-4.8506,-4.9045,-4.9134,-4.9134,-4.9404,-4.9972,-4.9523,-4.9404,-5.0002,-5.0122,-5.0152,-5.0331,-5.1259,-5.1977,-5.2276,-5.3324,-5.3803,-5.3503,-5.3481,-5.3451,-5.3631,-5.4059,-5.496,-5.6496,-5.6929,-5.6807,-5.7131,-5.7623,-5.7962,-5.7993,-5.8485,-5.9101,-5.9716,-5.9778,-6.0024,-6.0671,-6.0855,-6.0855,-6.0824,-6.1809,-6.261,-6.2887,-6.3903,-6.4611,-6.4918,-6.5072,-6.5288,-6.575,-6.5472,-6.5503,-6.945,-6.8715,-6.8301,-6.8118,-6.8046,-6.7687,-6.7148,-6.646,-6.5503,-6.4633,-6.376,-6.257,-6.2085,-6.1868,-6.1755,-6.1104,-6.0206,-6.0116,-5.9757,-5.9219,-5.9129,-5.9129,-5.9189,-5.9237,-5.9195,-5.9228,-5.9771,-5.959,-5.8851,-5.9212,-5.9075,-5.8444,-5.7842,-5.7768,-5.7948,-5.7408,-5.7049,-5.7028,-5.6191,-5.5567,-5.5171,-5.3155,-5.194,-5.1637,-4.9314,-4.7848,-4.7189,-4.6471,-4.6112,-4.6112,-4.6052,-4.6621,-4.7878,-4.7967,-4.8416,-4.9344,-4.9434,-4.9553,-4.9853,-4.9883,-5.0002,-5.0301,-5.0331,-5.0212,-4.9883,-4.9823,-4.9793,-4.9793,-4.9793,-5.0062,-5.0661,-5.0182,-5.0062,-5.072,-5.105,-5.1289,-5.1379,-5.2127,-5.2875,-5.3234,-5.3473,-5.3653,-5.3743,-5.3114,-5.2665,-5.2695,-5.3234,-5.4291,-5.5822,-5.6325,-5.6625,-5.6854,-5.7167,-5.7235,-5.715,-5.758,-5.8354,-5.9131,-5.9562,-6.0024,-6.0671,-6.104,-6.1286,-6.1379,-6.2179,-6.2887,-6.3256,-6.418,-6.4764,-6.4918,-6.5226,-6.5472,-6.5411,-6.5349,-6.5811,-7.0169,-6.9153,-6.8745,-6.8685,-6.8704,-6.8196,-6.7597,-6.6939,-6.6281,-6.5413,-6.4425,-6.3647,-6.3019,-6.254,-6.2391,-6.1972,-6.1313,-6.0805,-6.0446,-6.0266,-5.9787,-5.9757,-6.0027,-5.9697,-5.9668,-5.9907,-6.0146,-5.9967,-5.9458,-5.9997,-5.9967,-5.9338,-5.883,-5.8501,-5.8351,-5.7812,-5.7483,-5.7304,-5.6855,-5.6286,-5.5628,-5.485,-5.4371,-5.4132,-5.2695,-5.1738,-5.1199,-5.0092,-4.9553,-4.9673,-4.9224,-4.9404,-5.0361,-5.0451,-5.069,-5.1169,-5.1349,-5.1528,-5.1648,-5.1648,-5.1648,-5.1648,-5.1648,-5.1648,-5.1618,-5.1199,-5.084,-5.072,-5.072,-5.096,-5.1498,-5.1259,-5.1109,-5.1618,-5.2097,-5.2366,-5.2486,-5.2995,-5.3593,-5.4042,-5.3743,-5.3623,-5.3683,-5.3084,-5.2606,-5.2815,-5.2995,-5.3571,-5.4638,-5.5661,-5.6274,-5.6627,-5.688,-5.7051,-5.6671,-5.7098,-5.7901,-5.8684,-5.9389,-6.0003,-6.0555,-6.1138,-6.1506,-6.1704,-6.2226,-6.2902,-6.3687,-6.4395,-6.4826,-6.4918,-6.5226,-6.5472,-6.5319,-6.5565,-6.618,-7.0059,-6.9782,-6.9183,-6.8555,-6.8136,-6.8016,-6.7627,-6.6969,-6.6311,-6.5951,-6.5682,-6.4485,-6.3887,-6.3737,-6.3199,-6.26,-6.2032,-6.1942,-6.1553,-6.1044,-6.0954,-6.0625,-6.0236,-6.0655,-6.0326,-5.9548,-6.0475,-6.0655,-5.9997,-6.0625,-6.0655,-6.0086,-5.9937,-5.9548,-5.9039,-5.8919,-5.862,-5.8052,-5.7992,-5.7603,-5.6885,-5.5718,-5.482,-5.4221,-5.2366,-5.1289,-5.1379,-5.0541,-5.0421,-5.096,-5.093,-5.096,-5.1109,-5.1139,-5.1169,-5.1259,-5.1798,-5.2366,-5.2905,-5.2995,-5.2935,-5.2995,-5.2935,-5.2935,-5.2935,-5.2905,-5.2636,-5.2157,-5.2007,-5.2247,-5.2905,-5.2845,-5.2755,-5.2785,-5.2995,-5.3084,-5.3174,-5.3683,-5.4132,-5.4192,-5.4042,-5.3922,-5.3414,-5.3114,-5.3264,-5.3533,-5.3414,-5.3653,-5.477,-5.543,-5.561,-5.5801,-5.6636,-5.7395,-5.7041,-5.7405,-5.8043,-5.8845,-5.9514,-5.997,-6.0305,-6.073,-6.1065,-6.1768,-6.2135,-6.2917,-6.3701,-6.4395,-6.4857,-6.4888,-6.5042,-6.5165,-6.5626,-6.5903,-6.6427,-7.053,-7.047,-6.9842,-6.9183,-6.8615,-6.8585,-6.8196,-6.7537,-6.6879,-6.658,-6.646,-6.5592,-6.4755,-6.3977,-6.3348,-6.2929,-6.266,-6.2271,-6.1972,-6.1672,-6.1313,-6.1164,-6.1283,-6.1134,-6.0984,-6.0924,-6.1433,-6.1134,-6.0296,-6.0386,-6.0176,-5.9638,-5.9877,-5.9757,-5.9159,-5.9099,-5.8979,-5.871,-5.871,-5.856,-5.8141,-5.6645,-5.5807,-5.5807,-5.476,-5.3952,-5.3563,-5.2935,-5.2366,-5.1828,-5.1439,-5.1409,-5.1798,-5.1798,-5.1977,-5.2336,-5.2606,-5.2905,-5.3144,-5.3174,-5.3174,-5.3174,-5.3174,-5.3174,-5.3174,-5.3174,-5.3204,-5.3324,-5.3025,-5.2905,-5.3144,-5.3174,-5.3174,-5.3234,-5.3533,-5.3773,-5.3803,-5.4371,-5.467,-5.4281,-5.3832,-5.3533,-5.3264,-5.3174,-5.3114,-5.3234,-5.3354,-5.4042,-5.461,-5.5568,-5.6107,-5.6077,-5.7393,-5.7932,-5.713,-5.7191,-5.814,-5.9213,-6.0077,-6.0532,-6.0516,-6.1473,-6.2129,-6.2028,-6.2456,-6.3207,-6.4364,-6.4611,-6.4888,-6.4888,-6.4918,-6.5103,-6.578,-6.6211,-6.6888,-7.1068,-7.0699,-7.041,-6.9871,-6.9273,-6.9064,-6.8615,-6.7926,-6.7268,-6.6999,-6.6939,-6.6311,-6.5473,-6.4545,-6.3887,-6.3617,-6.3528,-6.3109,-6.281,-6.26,-6.2121,-6.2061,-6.2301,-6.1882,-6.1912,-6.2301,-6.2361,-6.1882,-6.0984,-6.0894,-6.0565,-6.0086,-6.0236,-6.0116,-5.9697,-5.9488,-5.9488,-5.9638,-5.9488,-5.9368,-5.9129,-5.7633,-5.6825,-5.7004,-5.6316,-5.5688,-5.5209,-5.4551,-5.3773,-5.2815,-5.2276,-5.2157,-5.2426,-5.2456,-5.2755,-5.3384,-5.3473,-5.3563,-5.3713,-5.3713,-5.3743,-5.3743,-5.3743,-5.3743,-5.3743,-5.3743,-5.3952,-5.4311,-5.4042,-5.3743,-5.3743,-5.3713,-5.3653,-5.3563,-5.4072,-5.4371,-5.4012,-5.4521,-5.47,-5.4221,-5.3623,-5.3294,-5.3384,-5.3324,-5.3144,-5.3324,-5.3773,-5.4311,-5.4551,-5.5628,-5.6346,-5.6256,-5.7543,-5.8008,-5.7286,-5.7677,-5.8565,-5.9198,-6.012,-6.0482,-6.059,-6.1467,-6.2072,-6.1382,-6.2312,-6.3049,-6.3653,-6.4132,-6.4777,-6.4888,-6.4918,-6.5195,-6.6119,-6.6611,-6.7227,-7.1326,-7.0528,-7.0759,-7.047,-6.9901,-6.9273,-6.8645,-6.7986,-6.7298,-6.6999,-6.6909,-6.634,-6.5981,-6.5832,-6.5203,-6.4934,-6.4904,-6.4784,-6.4425,-6.3887,-6.3827,-6.3558,-6.3049,-6.2989,-6.2989,-6.3019,-6.3019,-6.2899,-6.275,-6.281,-6.26,-6.1882,-6.1313,-6.1044,-6.0835,-6.0326,-6.0356,-6.0775,-6.0266,-5.9997,-5.9847,-5.868,-5.7723,-5.7124,-5.5927,-5.5359,-5.5179,-5.4581,-5.4162,-5.4102,-5.3982,-5.3743,-5.3234,-5.3174,-5.3533,-5.4102,-5.4162,-5.4431,-5.491,-5.4999,-5.4999,-5.5029,-5.494,-5.5059,-5.491,-5.482,-5.485,-5.5089,-5.485,-5.479,-5.482,-5.47,-5.4551,-5.4132,-5.464,-5.4401,-5.3443,-5.3982,-5.4221,-5.4132,-5.3653,-5.3473,-5.3982,-5.3563,-5.3862,-5.4371,-5.4521,-5.4491,-5.5059,-5.5359,-5.5807,-5.6316,-5.6944,-5.7393,-5.7902,-5.8368,-5.8847,-5.9417,-5.9915,-6.0046,-5.9697,-5.9747,-6.0216,-6.0765,-6.1448,-6.2031,-6.2622,-6.3391,-6.4248,-6.4666,-6.4777,-6.5207,-6.6252,-6.6735,-6.7381,-7.0605,-7.0397,-7.0498,-7.0509,-7.047,-6.9453,-6.8854,-6.8525,-6.7448,-6.6999,-6.6969,-6.6729,-6.664,-6.664,-6.64,-6.5802,-6.5084,-6.5024,-6.4874,-6.4665,-6.4665,-6.4306,-6.3767,-6.4096,-6.4066,-6.3707,-6.3677,-6.3228,-6.251,-6.245,-6.2121,-6.1642,-6.1672,-6.1553,-6.1134,-6.0864,-6.0864,-6.1014,-6.0446,-6.0086,-6.0057,-5.9219,-5.8441,-5.7752,-5.6885,-5.6406,-5.6406,-5.5807,-5.5089,-5.4251,-5.4221,-5.4281,-5.4491,-5.488,-5.5179,-5.5388,-5.5059,-5.494,-5.5149,-5.5209,-5.5209,-5.5209,-5.5209,-5.5209,-5.5119,-5.482,-5.4581,-5.4521,-5.4132,-5.3922,-5.3982,-5.4281,-5.4281,-5.3743,-5.3773,-5.3952,-5.3892,-5.4072,-5.4221,-5.4162,-5.3952,-5.3803,-5.3773,-5.4072,-5.4491,-5.4581,-5.5059,-5.5508,-5.5867,-5.6466,-5.7034,-5.7423,-5.7962,-5.8471,-5.865,-5.886,-5.9189,-5.9608,-5.9967,-5.9967,-5.9847,-6.0116,-6.0616,-6.0475,-6.0976,-6.175,-6.2494,-6.3244,-6.4117,-6.4331,-6.4443,-6.5198,-6.6239,-6.669,-6.7481,-6.9869,-7.0265,-7.0265,-7.0397,-7.0509,-6.9496,-6.8929,-6.8758,-6.7558,-6.6808,-6.6783,-6.6753,-6.6966,-6.7115,-6.7089,-6.6849,-6.6251,-6.5892,-6.5533,-6.5353,-6.5353,-6.4994,-6.4485,-6.4814,-6.4784,-6.4395,-6.4336,-6.3767,-6.2839,-6.269,-6.248,-6.2151,-6.2151,-6.2121,-6.1972,-6.1642,-6.1493,-6.1553,-6.1074,-6.0745,-6.0625,-5.9877,-5.9219,-5.871,-5.7902,-5.7304,-5.7094,-5.6675,-5.5987,-5.5029,-5.485,-5.497,-5.5209,-5.5598,-5.5957,-5.6077,-5.5748,-5.5598,-5.5777,-5.5807,-5.5807,-5.5777,-5.5628,-5.5508,-5.5448,-5.491,-5.4491,-5.4192,-5.4042,-5.3743,-5.3414,-5.3803,-5.3922,-5.3354,-5.3384,-5.3563,-5.3832,-5.3862,-5.3982,-5.4192,-5.4431,-5.4251,-5.4042,-5.467,-5.497,-5.482,-5.5658,-5.6166,-5.6555,-5.7154,-5.7902,-5.8082,-5.8351,-5.871,-5.8919,-5.9039,-5.9099,-5.9488,-5.9638,-5.9757,-5.9907,-6.0326,-6.0416,-6.0306,-6.0716,-6.1549,-6.2466,-6.3183,-6.3689,-6.3932,-6.444,-6.5185,-6.5918,-6.6613,-6.7464,-6.947,-6.9869,-6.9869,-7.0193,-7.0397,-6.9453,-6.8802,-6.8525,-6.753,-6.6812,-6.6553,-6.65,-6.7135,-6.7403,-6.7354,-6.7717,-6.8315,-6.7478,-6.667,-6.6161,-6.6101,-6.5712,-6.5084,-6.5173,-6.5173,-6.5024,-6.5024,-6.4665,-6.3977,-6.3917,-6.3887,-6.3707,-6.281,-6.2929,-6.3917,-6.2839,-6.251,-6.281,-6.2421,-6.2091,-6.1942,-6.0835,-6.0116,-5.9847,-5.88,-5.7932,-5.7244,-5.7094,-5.6735,-5.6226,-5.6107,-5.5837,-5.5508,-5.5538,-5.5628,-5.6256,-5.6226,-5.6466,-5.6915,-5.6944,-5.6885,-5.6705,-5.6436,-5.6017,-5.5837,-5.5359,-5.476,-5.4401,-5.4491,-5.4491,-5.3503,-5.3803,-5.3922,-5.3354,-5.3623,-5.3743,-5.3443,-5.3264,-5.3503,-5.4192,-5.476,-5.5149,-5.5149,-5.5239,-5.5448,-5.5837,-5.6256,-5.6585,-5.7034,-5.7393,-5.7573,-5.7992,-5.8411,-5.874,-5.8949,-5.9099,-5.9129,-5.9189,-5.9219,-5.9308,-5.9368,-5.9638,-5.9697,-5.9627,-6.0346,-6.1177,-6.192,-6.2747,-6.3494,-6.3827,-6.4395,-6.5116,-6.5875,-6.666,-6.7177,-6.9232,-6.9529,-6.9969,-7.0414,-7.0593,-6.984,-6.9588,-6.9684,-6.8259,-6.7796,-6.8028,-6.7842,-6.8088,-6.8459,-6.8465,-6.8615,-6.8944,-6.8525,-6.8016,-6.7448,-6.7358,-6.6729,-6.5951,-6.6161,-6.6131,-6.5772,-6.5712,-6.5353,-6.4814,-6.4695,-6.4725,-6.4605,-6.4306,-6.4306,-6.4665,-6.4306,-6.4246,-6.4306,-6.3737,-6.3228,-6.275,-6.1912,-6.1044,-6.0146,-5.9668,-5.9159,-5.8501,-5.7573,-5.7034,-5.6825,-5.6825,-5.6915,-5.7124,-5.7214,-5.7304,-5.7423,-5.7064,-5.6855,-5.7064,-5.7124,-5.6974,-5.6585,-5.6316,-5.5957,-5.5508,-5.497,-5.4521,-5.4192,-5.4012,-5.3563,-5.3384,-5.3803,-5.3982,-5.3294,-5.3384,-5.3713,-5.3862,-5.4221,-5.461,-5.482,-5.5059,-5.5179,-5.5299,-5.5508,-5.5957,-5.6286,-5.6915,-5.7543,-5.7782,-5.8112,-5.8471,-5.877,-5.883,-5.88,-5.9129,-5.9368,-5.9458,-5.9518,-5.9488,-5.9488,-5.9428,-5.9398,-5.9338,-5.9578,-6.0266,-6.0864,-6.1605,-6.2408,-6.3243,-6.39,-6.4412,-6.5253,-6.6068,-6.6761,-6.7184,-6.9516,-6.9506,-7.0118,-7.0653,-7.0867,-7.0115,-6.9809,-6.9781,-6.8517,-6.803,-6.8368,-6.8309,-6.8487,-6.8861,-6.8997,-6.9176,-6.9504,-6.9482,-6.9123,-6.8645,-6.8106,-6.7508,-6.6759,-6.6879,-6.6819,-6.646,-6.637,-6.6011,-6.5413,-6.5383,-6.5383,-6.5383,-6.5144,-6.5144,-6.5323,-6.5144,-6.5024,-6.4964,-6.4605,-6.4186,-6.3737,-6.3139,-6.2391,-6.1642,-6.1313,-6.0984,-6.0535,-5.9518,-5.8471,-5.7663,-5.7244,-5.7334,-5.7693,-5.7723,-5.7962,-5.8291,-5.7932,-5.7663,-5.8082,-5.8082,-5.7693,-5.7304,-5.7034,-5.6615,-5.5957,-5.5299,-5.488,-5.4521,-5.4491,-5.4311,-5.4401,-5.491,-5.5029,-5.473,-5.4012,-5.3832,-5.4221,-5.479,-5.5119,-5.5209,-5.5418,-5.5508,-5.5688,-5.6077,-5.6615,-5.6944,-5.7573,-5.8291,-5.8441,-5.88,-5.9009,-5.9099,-5.9039,-5.9159,-5.9428,-5.9638,-5.9817,-5.9907,-5.9967,-6.0027,-6.0057,-6.0146,-6.0146,-6.0386,-6.0924,-6.1343,-6.2055,-6.2924,-6.3704,-6.4093,-6.4513,-6.5411,-6.6282,-6.6643,-6.7155,-7.0366,-6.9931,-7.0512,-7.0912,-7.113,-7.0467,-6.9884,-6.9349,-6.8573,-6.7961,-6.7829,-6.8089,-6.8454,-6.8879,-6.9129,-6.9585,-7.023,-7.0003,-7.0021,-6.9632,-6.8854,-6.8076,-6.7747,-6.7238,-6.6999,-6.7059,-6.6969,-6.67,-6.643,-6.6281,-6.6101,-6.6161,-6.5742,-6.5473,-6.5892,-6.5443,-6.5293,-6.5323,-6.5233,-6.5144,-6.5024,-6.4455,-6.3977,-6.3767,-6.3228,-6.2899,-6.26,-6.1912,-6.0655,-5.862,-5.7932,-5.7752,-5.7483,-5.7334,-5.8201,-5.9129,-5.859,-5.889,-5.9578,-5.9308,-5.8919,-5.862,-5.8141,-5.7812,-5.6944,-5.6376,-5.5897,-5.5478,-5.5777,-5.6077,-5.6166,-5.6496,-5.6795,-5.6795,-5.5478,-5.47,-5.4491,-5.5059,-5.5478,-5.5538,-5.5837,-5.6226,-5.6256,-5.6765,-5.7363,-5.7812,-5.8112,-5.853,-5.886,-5.9099,-5.9129,-5.9189,-5.9279,-5.9578,-5.9877,-6.0176,-6.0386,-6.0775,-6.0745,-6.0715,-6.0685,-6.0745,-6.0745,-6.1014,-6.1613,-6.2002,-6.248,-6.3378,-6.4096,-6.4545,-6.5114,-6.5772,-6.6251,-6.6732,-6.7003,-7.0628,-7.0541,-7.115,-7.1552,-7.1552,-7.1208,-7.1079,-7.0604,-6.969,-6.9261,-6.9193,-6.8972,-6.9193,-6.9575,-6.9719,-6.9969,-7.0337,-7.0409,-7.039,-7.053,-6.9871,-6.8854,-6.8016,-6.7328,-6.7298,-6.7597,-6.7358,-6.7418,-6.8106,-6.7627,-6.7418,-6.7448,-6.7208,-6.6969,-6.6759,-6.652,-6.649,-6.649,-6.646,-6.6191,-6.5772,-6.5592,-6.4964,-6.4036,-6.3887,-6.3588,-6.3109,-6.245,-6.1642,-6.0505,-6.0176,-6.0057,-5.9907,-5.9877,-5.9877,-5.9907,-6.0146,-5.9967,-5.9608,-5.9697,-5.9398,-5.8501,-5.8321,-5.7812,-5.7154,-5.6944,-5.6765,-5.6615,-5.6795,-5.6915,-5.6915,-5.7094,-5.7184,-5.7034,-5.6675,-5.6286,-5.6226,-5.6466,-5.6585,-5.6615,-5.6735,-5.6855,-5.7004,-5.7423,-5.7932,-5.8231,-5.859,-5.8979,-5.9338,-5.9638,-5.9787,-5.9668,-5.9757,-6.0057,-6.0356,-6.0655,-6.1044,-6.1613,-6.1672,-6.1523,-6.1373,-6.1194,-6.1134,-6.1134,-6.2391,-6.2989,-6.3318,-6.3887,-6.4485,-6.5144,-6.5622,-6.6191,-6.658,-6.7031,-6.7061,-7.1121,-7.1179,-7.1789,-7.205,-7.2021,-7.1789,-7.161,-7.1342,-7.0592,-7.0088,-7.0027,-7.0203,-7.0145,-7.0044,-7.0547,-7.0695,-7.0829,-7.1066,-7.1182,-7.0927,-7.038,-6.9393,-6.8525,-6.7956,-6.8046,-6.8315,-6.8016,-6.8286,-6.8794,-6.8585,-6.8435,-6.8375,-6.8405,-6.8046,-6.7448,-6.7418,-6.7238,-6.7029,-6.6999,-6.6789,-6.646,-6.643,-6.6101,-6.5353,-6.5233,-6.4964,-6.4366,-6.3947,-6.3109,-6.1852,-6.1283,-6.1104,-6.1104,-6.1104,-6.1164,-6.1253,-6.1493,-6.1253,-6.0894,-6.0685,-5.9997,-5.9159,-5.874,-5.8201,-5.7723,-5.7513,-5.7573,-5.7902,-5.7902,-5.8231,-5.868,-5.877,-5.877,-5.886,-5.853,-5.8022,-5.7274,-5.7034,-5.7094,-5.7154,-5.7334,-5.7543,-5.7543,-5.8141,-5.859,-5.8949,-5.9308,-5.9668,-5.9997,-6.0266,-6.0446,-6.0296,-6.0416,-6.0745,-6.1104,-6.1403,-6.1882,-6.2421,-6.275,-6.257,-6.248,-6.2241,-6.2421,-6.269,-6.3438,-6.3977,-6.4246,-6.4605,-6.5203,-6.5772,-6.6161,-6.646,-6.6819,-6.6999,-6.7029,-7.1789,-7.1818,-7.2369,-7.2631,-7.2515,-7.2021,-7.1731,-7.1557,-7.1063,-7.0592,-7.0458,-7.0896,-7.0692,-7.0448,-7.0995,-7.1513,-7.1376,-7.1744,-7.1912,-7.145,-7.0908,-7.0201,-6.9752,-6.9004,-6.8914,-6.9004,-6.9034,-6.9093,-6.9273,-6.9213,-6.9093,-6.9093,-6.9093,-6.8734,-6.8166,-6.7986,-6.7627,-6.7238,-6.7029,-6.6969,-6.6879,-6.6879,-6.6729,-6.667,-6.661,-6.643,-6.6041,-6.5742,-6.4844,-6.263,-6.1882,-6.1822,-6.1702,-6.1613,-6.1942,-6.272,-6.263,-6.263,-6.254,-6.1613,-6.0984,-6.0236,-5.9608,-5.9099,-5.871,-5.865,-5.883,-5.9279,-5.9308,-5.9787,-6.0475,-6.0924,-6.0775,-6.0565,-6.0326,-5.9308,-5.8022,-5.7393,-5.7304,-5.7334,-5.7902,-5.8171,-5.8471,-5.883,-5.9428,-5.9877,-6.0146,-6.0296,-6.0625,-6.0954,-6.0984,-6.0894,-6.1134,-6.1523,-6.1882,-6.2211,-6.275,-6.3288,-6.3737,-6.3857,-6.4036,-6.4006,-6.4276,-6.4605,-6.4635,-6.4784,-6.5024,-6.5473,-6.5981,-6.6251,-6.655,-6.6759,-6.6999,-6.6999,-6.7029,-7.2398,-7.2427,-7.2544,-7.2631,-7.2602,-7.2456,-7.2137,-7.1673,-7.1528,-7.1092,-7.0795,-7.0853,-7.0824,-7.0679,-7.1021,-7.0992,-7.1414,-7.1767,-7.2104,-7.2581,-7.2372,-7.2235,-7.1547,-7.0171,-6.9423,-6.9632,-6.9273,-6.9572,-7.0171,-7.0051,-6.9782,-6.9782,-6.9722,-6.9423,-6.8824,-6.8345,-6.7926,-6.7687,-6.7328,-6.7119,-6.7119,-6.7119,-6.7119,-6.7119,-6.7089,-6.6969,-6.6729,-6.6281,-6.5742,-6.5173,-6.4545,-6.4066,-6.3857,-6.3857,-6.3617,-6.3348,-6.3857,-6.3528,-6.2151,-6.2211,-6.2121,-6.1014,-6.0745,-6.0625,-6.0535,-6.0416,-6.0505,-6.0685,-6.0685,-6.0864,-6.1194,-6.1164,-6.1253,-6.1224,-6.1044,-6.0715,-6.0176,-5.9279,-5.874,-5.871,-5.883,-5.9099,-5.9578,-5.9668,-6.0176,-6.0715,-6.0924,-6.0984,-6.1313,-6.1732,-6.1852,-6.1912,-6.2301,-6.272,-6.278,-6.3109,-6.3558,-6.4036,-6.4455,-6.4814,-6.5024,-6.5233,-6.5293,-6.5383,-6.5443,-6.5622,-6.5802,-6.6161,-6.664,-6.6789,-6.6849,-6.6939,-6.6999,-6.6999,-6.7448,-7.205,-7.2602,-7.2631,-7.2631,-7.2631,-7.2602,-7.2427,-7.2137,-7.2108,-7.176,-7.1353,-7.144,-7.144,-7.1208,-7.1469,-7.1755,-7.1808,-7.1962,-7.2257,-7.2608,-7.2535,-7.2492,-7.2507,-7.1434,-7.0908,-7.1278,-7.1068,-7.1188,-7.1188,-7.1038,-7.0739,-7.044,-7.041,-7.0051,-6.9542,-6.9064,-6.8794,-6.8465,-6.8136,-6.7926,-6.7926,-6.7926,-6.7956,-6.7926,-6.7897,-6.7807,-6.7448,-6.7508,-6.7059,-6.664,-6.637,-6.5742,-6.4665,-6.4306,-6.3887,-6.3797,-6.4006,-6.4036,-6.2989,-6.275,-6.26,-6.1672,-6.1583,-6.1373,-6.1433,-6.1613,-6.2032,-6.2032,-6.2032,-6.2032,-6.2032,-6.2061,-6.2032,-6.1972,-6.1762,-6.1613,-6.1433,-6.0685,-6.0057,-6.0057,-6.0057,-6.0236,-6.0446,-6.0625,-6.0954,-6.1523,-6.1672,-6.1792,-6.269,-6.3049,-6.3228,-6.3408,-6.3737,-6.3947,-6.3827,-6.4036,-6.4395,-6.4784,-6.5114,-6.5413,-6.5622,-6.5832,-6.6041,-6.6101,-6.6131,-6.6311,-6.655,-6.6909,-6.6999,-6.6939,-6.6939,-6.6969,-6.7119,-6.7328,-6.8046,-7.1644,-7.2631,-7.2631,-7.2631,-7.2631,-7.2631,-7.2602,-7.2602,-7.2631,-7.2253,-7.1992,-7.2398,-7.2195,-7.2021,-7.2311,-7.2573,-7.257,-7.2532,-7.2658,-7.3044,-7.269,-7.2649,-7.2743,-7.2595,-7.2745,-7.3193,-7.2714,-7.2475,-7.2116,-7.2026,-7.1727,-7.1278,-7.1068,-7.0829,-7.038,-6.9991,-6.9632,-6.9183,-6.8914,-6.8794,-6.8824,-6.8854,-6.8824,-6.8824,-6.8794,-6.8585,-6.8315,-6.8405,-6.8405,-6.7418,-6.7657,-6.661,-6.5173,-6.4066,-6.3677,-6.4246,-6.4425,-6.4126,-6.3647,-6.3468,-6.3199,-6.245,-6.257,-6.2361,-6.2241,-6.278,-6.3258,-6.3318,-6.3258,-6.3199,-6.3348,-6.3169,-6.3169,-6.3139,-6.275,-6.254,-6.2331,-6.1912,-6.1762,-6.0984,-6.0984,-6.1134,-6.1373,-6.1583,-6.1912,-6.2241,-6.2421,-6.278,-6.3647,-6.4186,-6.4246,-6.4276,-6.4455,-6.4814,-6.4784,-6.4814,-6.5203,-6.5562,-6.5862,-6.5981,-6.6221,-6.637,-6.652,-6.6729,-6.6819,-6.6879,-6.6879,-6.6939,-6.6999,-6.6999,-6.7029,-6.7059,-6.7328,-6.7717,-6.8675,-7.2427,-7.2631,-7.2631,-7.2631,-7.2631,-7.2631,-7.2631,-7.2631,-7.2631,-7.2573,-7.2456,-7.2544,-7.2544,-7.2485,-7.2515,-7.2773,-7.2886,-7.2853,-7.3105,-7.3385,-7.3179,-7.3398,-7.3616,-7.3586,-7.398,-7.4074,-7.3642,-7.2984,-7.2804,-7.2714,-7.2595,-7.2445,-7.1906,-7.1517,-7.1188,-7.062,-7.0021,-6.9782,-6.9453,-6.9213,-6.9213,-6.9183,-6.9183,-6.9183,-6.9213,-6.9064,-6.8914,-6.8914,-6.8884,-6.8615,-6.7687,-6.7298,-6.6879,-6.64,-6.5772,-6.5144,-6.5233,-6.4904,-6.3857,-6.4216,-6.4186,-6.4006,-6.4096,-6.4395,-6.4336,-6.4485,-6.4635,-6.4515,-6.4246,-6.4096,-6.4635,-6.4156,-6.3887,-6.3917,-6.4096,-6.4126,-6.3827,-6.3707,-6.3228,-6.2032,-6.1942,-6.2091,-6.245,-6.278,-6.3139,-6.3468,-6.3677,-6.3947,-6.4575,-6.4874,-6.4904,-6.4904,-6.4904,-6.5323,-6.5682,-6.5742,-6.5981,-6.6311,-6.655,-6.655,-6.6729,-6.6819,-6.6969,-6.6999,-6.6999,-6.6969,-6.6969,-6.6999,-6.7089,-6.7178,-6.7178,-6.7208,-6.7926,-6.8645,-6.9512,-7.234,-7.2602,-7.2631,-7.2631,-7.2631,-7.2631,-7.2631,-7.2631,-7.2631,-7.2631,-7.2631,-7.2631,-7.2631,-7.2631,-7.2631,-7.2773,-7.2915,-7.2915,-7.3057,-7.3199,-7.3199,-7.334,-7.3761,-7.3761,-7.404,-7.4277,-7.3908,-7.3537,-7.3462,-7.3432,-7.3283,-7.2774,-7.2235,-7.1876,-7.1697,-7.0949,-7.053,-7.038,-7.0171,-6.9961,-6.9961,-6.9961,-6.9961,-6.9961,-6.9901,-6.9812,-6.9602,-6.9871,-6.9423,-6.8704,-6.8525,-6.8136,-6.7717,-6.7448,-6.6909,-6.5922,-6.5832,-6.5503,-6.4366,-6.4755,-6.4784,-6.4665,-6.5144,-6.5293,-6.5353,-6.5473,-6.5802,-6.5533,-6.5353,-6.4994,-6.4994,-6.4725,-6.4575,-6.4575,-6.4874,-6.4874,-6.4725,-6.4904,-6.4156,-6.3228,-6.3558,-6.3767,-6.3797,-6.4126,-6.4425,-6.4665,-6.4874,-6.5173,-6.5503,-6.5562,-6.5592,-6.5772,-6.5772,-6.5951,-6.6281,-6.634,-6.64,-6.6759,-6.6999,-6.6999,-6.7029,-6.7059,-6.7029,-6.6999,-6.6999,-6.7238,-6.7029,-6.7059,-6.7208,-6.7448,-6.7627,-6.7956,-6.8824,-6.9632,-7.056,-7.2166,-7.2631,-7.2631,-7.2631,-7.2631,-7.2631,-7.2631,-7.2631,-7.2631,-7.2631,-7.2631,-7.2631,-7.2631,-7.2631,-7.2631,-7.2631,-7.2631,-7.2631,-7.2602,-7.2602,-7.2773,-7.2915,-7.3086,-7.3228,-7.3621,-7.4149,-7.409,-7.4188,-7.418,-7.4091,-7.3791,-7.3432,-7.2684,-7.2295,-7.2235,-7.1787,-7.1398,-7.1278,-7.1128,-7.1098,-7.0949,-7.0919,-7.0919,-7.0919,-7.0919,-7.059,-7.026,-7.05,-7.0081,-6.9423,-6.9243,-6.9243,-6.7986,-6.7956,-6.7597,-6.661,-6.6221,-6.5682,-6.5233,-6.5203,-6.5293,-6.5263,-6.5832,-6.5832,-6.5832,-6.6281,-6.667,-6.6311,-6.5951,-6.5862,-6.5622,-6.5323,-6.5233,-6.5293,-6.5353,-6.5413,-6.5353,-6.5473,-6.5652,-6.5263,-6.5413,-6.5144,-6.4814,-6.5293,-6.5562,-6.5413,-6.5592,-6.5892,-6.6161,-6.6191,-6.6311,-6.661,-6.6729,-6.6729,-6.6819,-6.6759,-6.6789,-6.6879,-6.6999,-6.6999,-6.7089,-6.7178,-6.7208,-6.7358,-6.7657,-6.7807,-6.7448,-6.7358,-6.7837,-6.8166,-6.8256,-6.8764,-6.9692,-7.0709,-7.1697,-7.2544,-7.2631,-7.2631,-7.2631,-7.2631,-7.2631,-7.2631,-7.2631,-7.2631,-7.2631,-7.2631,-7.2631,-7.2631,-7.2631,-7.2631,-7.2631,-7.2631,-7.2631,-7.2631,-7.2631,-7.2631,-7.2773,-7.3086,-7.3228,-7.3428,-7.3879,-7.3989,-7.4318,-7.4504,-7.4612,-7.4689,-7.439,-7.3881,-7.3582,-7.3313,-7.2684,-7.2714,-7.2535,-7.2056,-7.1457,-7.1009,-7.0919,-7.0919,-7.0949,-7.0919,-7.0919,-7.0769,-7.0919,-7.056,-7.044,-7.0021,-6.9871,-6.9572,-6.9093,-6.8555,-6.7657,-6.6729,-6.5742,-6.5353,-6.5622,-6.5892,-6.5981,-6.643,-6.6729,-6.67,-6.667,-6.6939,-6.6909,-6.64,-6.6281,-6.637,-6.6161,-6.5981,-6.6041,-6.6221,-6.6161,-6.6101,-6.6071,-6.6251,-6.637,-6.6221,-6.5742,-6.5353,-6.6041,-6.661,-6.643,-6.6311,-6.658,-6.6729,-6.667,-6.667,-6.6909,-6.6999,-6.6999,-6.7119,-6.7119,-6.7208,-6.7148,-6.7268,-6.7268,-6.7478,-6.7717,-6.7807,-6.8016,-6.8315,-6.8555,-6.8465,-6.8495,-6.8734,-6.9004,-6.9243,-6.9871,-7.059,-7.1667,-7.2774,-7.2631,-7.2631,-7.2631,-7.2631,-7.2631,-7.2631,-7.2631,-7.2631,-7.2631,-7.2631,-7.2631,-7.2631,-7.2631,-7.266,-7.2631,-7.2631,-7.2631,-7.2631,-7.2631,-7.2631,-7.2631,-7.2773,-7.2773,-7.2944,-7.3174,-7.3867,-7.4038,-7.438,-7.4742,-7.4962,-7.5011,-7.4869,-7.4599,-7.418,-7.4121,-7.3283,-7.2984,-7.2684,-7.2235,-7.1547,-7.1068,-7.0949,-7.1098,-7.1427,-7.1128,-7.1128,-7.1278,-7.1038,-7.0709,-7.047,-7.0051,-6.9572,-6.9004,-6.8495,-6.8106,-6.7448,-6.6939,-6.646,-6.6251,-6.643,-6.649,-6.658,-6.6819,-6.6939,-6.6999,-6.6999,-6.6999,-6.6969,-6.6759,-6.6729,-6.6879,-6.6729,-6.664,-6.667,-6.6789,-6.6729,-6.664,-6.6789,-6.6849,-6.6939,-6.6939,-6.64,-6.6011,-6.643,-6.6849,-6.6729,-6.664,-6.6759,-6.6879,-6.6879,-6.6879,-6.6939,-6.6999,-6.6999,-6.7178,-6.7298,-6.7597,-6.7717,-6.8196,-6.8226,-6.8286,-6.8435,-6.8525,-6.8764,-6.9123,-6.9303,-6.9423,-6.9393,-6.9363,-6.9812,-7.032,-7.1098,-7.1846,-7.2595,-7.3582,-7.2631,-7.2631,-7.2631,-7.2631,-7.2631,-7.2631,-7.2631,-7.2631,-7.2631,-7.2631,-7.2631,-7.2631,-7.2689,-7.2776,-7.2747,-7.2718,-7.2863,-7.2689,-7.2631,-7.2631,-7.2776,-7.2892,-7.3008,-7.3037,-7.3558,-7.4254,-7.4283,-7.4571,-7.4886,-7.52,-7.5306,-7.503,-7.5299,-7.506,-7.4719,-7.439,-7.4121,-7.3522,-7.3103,-7.2415,-7.1697,-7.1517,-7.1757,-7.1816,-7.1607,-7.1368,-7.1697,-7.1248,-7.0649,-7.041,-7.0081,-6.9512,-6.8645,-6.8226,-6.7777,-6.7238,-6.6909,-6.6909,-6.6819,-6.6879,-6.6999,-6.6999,-6.6999,-6.6999,-6.6999,-6.6999,-6.6999,-6.6999,-6.6969,-6.6939,-6.6999,-6.6969,-6.6909,-6.6879,-6.6969,-6.6969,-6.6999,-6.6999,-6.6999,-6.6999,-6.6999,-6.6999,-6.6759,-6.6849,-6.6969,-6.6969,-6.6999,-6.7029,-6.7089,-6.7148,-6.7238,-6.7298,-6.7119,-6.7178,-6.7478,-6.7657,-6.7926,-6.8286,-6.8764,-6.8974,-6.8914,-6.9123,-6.9333,-6.9602,-7.0021,-7.059,-7.1038,-7.047,-7.0051,-7.0949,-7.1787,-7.2445,-7.3163,-7.3821,-7.424,-7.2631,-7.2631,-7.2631,-7.2631,-7.2631,-7.2631,-7.2631,-7.2631,-7.2631,-7.2631,-7.2631,-7.2631,-7.2921,-7.3211,-7.2979,-7.2979,-7.3443,-7.2892,-7.2776,-7.2892,-7.3182,-7.3443,-7.3618,-7.3937,-7.4314,-7.4664,-7.478,-7.4897,-7.5305,-7.6095,-7.5825,-7.5476,-7.5892,-7.6323,-7.6255,-7.5916,-7.5377,-7.4809,-7.442,-7.3821,-7.3103,-7.2774,-7.2834,-7.2714,-7.2265,-7.1846,-7.1876,-7.1338,-7.0889,-7.0709,-7.0141,-6.9662,-6.8824,-6.8136,-6.7537,-6.7298,-6.7029,-6.7059,-6.7119,-6.7059,-6.6999,-6.6999,-6.6999,-6.6999,-6.6999,-6.6999,-6.6999,-6.6999,-6.6999,-6.6999,-6.6999,-6.6999,-6.6999,-6.6999,-6.6999,-6.6999,-6.6999,-6.6999,-6.6999,-6.6999,-6.7089,-6.7268,-6.7478,-6.7567,-6.7358,-6.7358,-6.7567,-6.7627,-6.7478,-6.7508,-6.7657,-6.7657,-6.7358,-6.7448,-6.7867,-6.8166,-6.8495,-6.8884,-6.9333,-6.9393,-6.9363,-6.9662,-7.047,-7.0739,-7.1248,-7.1936,-7.2505,-7.2086,-7.2026,-7.2624,-7.3253,-7.3732,-7.4121,-7.4629,-7.4869,-7.2631,-7.2631,-7.2631,-7.2631,-7.2631,-7.2631,-7.2631,-7.2631,-7.2631,-7.2631,-7.2631,-7.2631,-7.2747,-7.2979,-7.3269,-7.3095,-7.3066,-7.3269,-7.3182,-7.3269,-7.3501,-7.3821,-7.4111,-7.4518,-7.4866,-7.5504,-7.5708,-7.5998,-7.6554,-7.7083,-7.7294,-7.7181,-7.694,-7.6718,-7.6852,-7.6933,-7.6365,-7.5826,-7.5467,-7.4988,-7.439,-7.4121,-7.4121,-7.4061,-7.3462,-7.2894,-7.2535,-7.1876,-7.1368,-7.0799,-6.9991,-6.9453,-6.8974,-6.8076,-6.7657,-6.7537,-6.7328,-6.7298,-6.7448,-6.7268,-6.6999,-6.6999,-6.6999,-6.7059,-6.7148,-6.7059,-6.6999,-6.6999,-6.7059,-6.7178,-6.6999,-6.6999,-6.6999,-6.6999,-6.7029,-6.7059,-6.7178,-6.7268,-6.7508,-6.7747,-6.7777,-6.7837,-6.8076,-6.8315,-6.8016,-6.7747,-6.8016,-6.8196,-6.8046,-6.8016,-6.8196,-6.8375,-6.8166,-6.8226,-6.8645,-6.8914,-6.9153,-6.9572,-7.0021,-7.026,-7.053,-7.1368,-7.2056,-7.2235,-7.2325,-7.2774,-7.3223,-7.3582,-7.3762,-7.3821,-7.424,-7.4779,-7.5168,-7.5467,-7.5587,-7.2631,-7.2631,-7.2631,-7.2631,-7.2631,-7.2631,-7.2747,-7.2863,-7.2689,-7.2747,-7.2921,-7.3066,-7.3298,-7.3531,-7.3676,-7.3879,-7.3734,-7.3821,-7.3879,-7.3995,-7.4169,-7.4401,-7.4808,-7.533,-7.6027,-7.6666,-7.7014,-7.7304,-7.7566,-7.8146,-7.8044,-7.7883,-7.7918,-7.7766,-7.7635,-7.73,-7.7083,-7.6634,-7.6425,-7.6125,-7.5557,-7.5467,-7.5258,-7.5108,-7.448,-7.3821,-7.3103,-7.2355,-7.1667,-7.0979,-7.0231,-6.9453,-6.8914,-6.8435,-6.7986,-6.7926,-6.7956,-6.7837,-6.7956,-6.7717,-6.7418,-6.7687,-6.7717,-6.7687,-6.7567,-6.7567,-6.7747,-6.7388,-6.7448,-6.7448,-6.7238,-6.7178,-6.7358,-6.7448,-6.7448,-6.7508,-6.7807,-6.7986,-6.8315,-6.8585,-6.8645,-6.8794,-6.9064,-6.9303,-6.9034,-6.8645,-6.8465,-6.8645,-6.8615,-6.8675,-6.8884,-6.9064,-6.9183,-6.9333,-6.9572,-7.0051,-7.047,-7.0739,-7.1188,-7.1697,-7.2146,-7.2834,-7.3133,-7.3103,-7.3223,-7.3522,-7.3971,-7.448,-7.4599,-7.4629,-7.5168,-7.5796,-7.5946,-7.6215,-7.6305,-7.2631,-7.2631,-7.2631,-7.2631,-7.2689,-7.2631,-7.2979,-7.3472,-7.3037,-7.3095,-7.3589,-7.4024,-7.4576,-7.4866,-7.4488,-7.4488,-7.475,-7.4605,-7.4518,-7.4634,-7.4924,-7.533,-7.5824,-7.6375,-7.6956,-7.7449,-7.7885,-7.8233,-7.8465,-7.8669,-7.854,-7.8284,-7.8411,-7.8684,-7.904,-7.8883,-7.84,-7.7861,-7.7801,-7.7412,-7.7053,-7.6874,-7.6544,-7.6006,-7.5377,-7.4749,-7.3821,-7.2864,-7.2206,-7.1727,-7.062,-7.0021,-6.9842,-6.9153,-6.8824,-6.8914,-6.8854,-6.8884,-6.8974,-6.8345,-6.8465,-6.8615,-6.8495,-6.8585,-6.8794,-6.8794,-6.8525,-6.8046,-6.8345,-6.8136,-6.7807,-6.7567,-6.7837,-6.7956,-6.7956,-6.8166,-6.8495,-6.8734,-6.9064,-6.9692,-6.9842,-6.9961,-7.0201,-7.032,-7.0081,-6.9722,-6.9183,-6.9153,-6.9453,-6.9782,-7.0171,-7.032,-7.053,-7.062,-7.0949,-7.1398,-7.1787,-7.1996,-7.2265,-7.2684,-7.2954,-7.3253,-7.3522,-7.3821,-7.4151,-7.448,-7.4929,-7.5437,-7.5736,-7.6096,-7.6305,-7.6754,-7.6844,-7.6933,-7.7023,-7.2631,-7.2631,-7.2631,-7.2892,-7.324,-7.3298,-7.3618,-7.4111,-7.3995,-7.3995,-7.4082,-7.4082,-7.4256,-7.4576,-7.475,-7.4721,-7.4837,-7.533,-7.5185,-7.5214,-7.5475,-7.5795,-7.6288,-7.6956,-7.7624,-7.8146,-7.8669,-7.9191,-7.9685,-7.9394,-7.9162,-7.8998,-7.8523,-7.8682,-7.9071,-7.9245,-7.9297,-7.9178,-7.9118,-7.8998,-7.8759,-7.831,-7.7771,-7.7113,-7.6425,-7.5647,-7.4659,-7.3612,-7.3043,-7.2535,-7.1398,-7.0739,-7.05,-6.9842,-6.9393,-6.9453,-6.9423,-6.9453,-7.0081,-7.0231,-6.9961,-6.9572,-6.9183,-6.9213,-6.9034,-6.9004,-6.8824,-6.8764,-6.9004,-6.8764,-6.8555,-6.8525,-6.8675,-6.8645,-6.8734,-6.9034,-6.9333,-6.9542,-6.9871,-7.0769,-7.1218,-7.1547,-7.1846,-7.1757,-7.1517,-7.1637,-7.1308,-7.1218,-7.1457,-7.1697,-7.1996,-7.2026,-7.2116,-7.2116,-7.2295,-7.2684,-7.2864,-7.2954,-7.3163,-7.3432,-7.3672,-7.4001,-7.445,-7.5018,-7.5198,-7.5437,-7.5946,-7.6485,-7.7233,-7.7682,-7.7592,-7.7652,-7.7831,-7.7801,-7.7741,-7.2631,-7.2631,-7.2863,-7.3211,-7.3589,-7.3618,-7.3966,-7.4518,-7.4953,-7.5069,-7.4808,-7.4459,-7.4518,-7.4837,-7.4895,-7.4895,-7.4924,-7.5534,-7.5824,-7.5824,-7.5853,-7.6114,-7.6579,-7.7246,-7.774,-7.832,-7.8872,-7.9452,-7.9394,-7.9569,-7.9249,-7.8765,-7.8225,-7.8293,-7.8833,-7.9367,-7.9603,-7.9779,-7.9899,-7.9926,-7.9627,-7.9238,-7.8639,-7.7921,-7.7233,-7.6634,-7.5647,-7.4779,-7.4031,-7.3313,-7.2475,-7.1637,-7.1278,-7.0979,-7.044,-7.047,-7.041,-7.05,-7.1128,-7.1787,-7.1368,-7.0769,-7.0201,-7.0141,-7.0111,-7.0111,-6.9871,-6.9722,-6.9662,-6.9512,-6.9453,-6.9482,-6.9722,-6.9752,-7.0051,-7.038,-7.0829,-7.1068,-7.1398,-7.2265,-7.2565,-7.2984,-7.3283,-7.3223,-7.3073,-7.3313,-7.3522,-7.3373,-7.3133,-7.3163,-7.3163,-7.3103,-7.3223,-7.3193,-7.3432,-7.3881,-7.4001,-7.3971,-7.424,-7.4569,-7.4988,-7.5467,-7.5826,-7.6096,-7.6125,-7.6335,-7.6933,-7.7532,-7.7891,-7.819,-7.828,-7.843,-7.8759,-7.8579,-7.831,-7.2631,-7.2718,-7.3298,-7.3589,-7.3676,-7.385,-7.4169,-7.4663,-7.5824,-7.5998,-7.5446,-7.5388,-7.5417,-7.5475,-7.5504,-7.5504,-7.5592,-7.6143,-7.6288,-7.6375,-7.6288,-7.6433,-7.6811,-7.7537,-7.774,-7.7972,-7.8436,-7.893,-7.8524,-7.8524,-7.8465,-7.8146,-7.752,-7.7997,-7.862,-7.9097,-7.9575,-8.0229,-8.0318,-8.0257,-8.0075,-7.9656,-7.8938,-7.822,-7.7682,-7.7322,-7.6485,-7.5617,-7.5048,-7.439,-7.3612,-7.3103,-7.2864,-7.2894,-7.2475,-7.2116,-7.1816,-7.1966,-7.2146,-7.2744,-7.2984,-7.2535,-7.2146,-7.2385,-7.2116,-7.1457,-7.1128,-7.0979,-7.0979,-7.062,-7.038,-7.0769,-7.1188,-7.1427,-7.1727,-7.2176,-7.2714,-7.3043,-7.3343,-7.3672,-7.3762,-7.4001,-7.424,-7.427,-7.4091,-7.418,-7.427,-7.421,-7.3971,-7.3791,-7.3762,-7.3612,-7.3762,-7.4091,-7.445,-7.4958,-7.5228,-7.5198,-7.5707,-7.6066,-7.6485,-7.6574,-7.6604,-7.6694,-7.6844,-7.7203,-7.7711,-7.7981,-7.813,-7.84,-7.8609,-7.8669,-7.8789,-7.8789,-7.8609,-7.2631,-7.2631,-7.2834,-7.3414,-7.4372,-7.5243,-7.5504,-7.533,-7.5679,-7.565,-7.5504,-7.5504,-7.5708,-7.6143,-7.5737,-7.5824,-7.6085,-7.6346,-7.6404,-7.6462,-7.6462,-7.6462,-7.6753,-7.7275,-7.7478,-7.774,-7.8117,-7.8524,-7.8291,-7.8001,-7.7711,-7.7507,-7.7107,-7.7572,-7.8401,-7.8968,-7.9775,-8.0464,-8.0705,-8.0467,-8.0108,-7.9746,-7.9058,-7.8519,-7.8041,-7.7771,-7.7293,-7.6305,-7.5766,-7.5377,-7.43,-7.3642,-7.3612,-7.3193,-7.2714,-7.2744,-7.2954,-7.3343,-7.3432,-7.3911,-7.421,-7.4031,-7.3612,-7.3133,-7.2894,-7.2595,-7.2265,-7.2176,-7.2086,-7.1727,-7.1787,-7.2176,-7.2505,-7.2804,-7.3193,-7.3732,-7.424,-7.4569,-7.4839,-7.4869,-7.4958,-7.4749,-7.5018,-7.4988,-7.4839,-7.4869,-7.4899,-7.4929,-7.4839,-7.4659,-7.4629,-7.448,-7.4749,-7.5198,-7.5497,-7.5946,-7.6245,-7.6544,-7.6904,-7.7083,-7.6993,-7.7023,-7.7143,-7.7352,-7.7622,-7.7981,-7.843,-7.8549,-7.846,-7.8579,-7.8759,-7.8789,-7.8819,-7.8938,-7.8968,-7.2485,-7.234,-7.2805,-7.3618,-7.4488,-7.4808,-7.4924,-7.5156,-7.565,-7.5882,-7.5853,-7.5621,-7.5737,-7.5911,-7.5679,-7.5679,-7.5998,-7.6317,-7.6462,-7.6462,-7.6462,-7.6462,-7.6666,-7.7014,-7.7188,-7.7391,-7.7537,-7.7827,-7.7653,-7.7391,-7.7072,-7.742,-7.6956,-7.7682,-7.8532,-7.9123,-7.9906,-8.06,-8.1028,-8.0854,-8.0348,-7.9809,-7.9477,-7.8819,-7.837,-7.825,-7.81,-7.7083,-7.6604,-7.6245,-7.5138,-7.454,-7.43,-7.3702,-7.3343,-7.3373,-7.3522,-7.3732,-7.3851,-7.442,-7.4749,-7.4779,-7.454,-7.418,-7.3642,-7.3223,-7.3133,-7.3103,-7.2984,-7.2924,-7.3223,-7.3552,-7.3821,-7.4091,-7.4659,-7.5228,-7.5617,-7.5976,-7.6066,-7.6066,-7.5886,-7.5617,-7.5557,-7.5557,-7.5677,-7.5796,-7.5916,-7.5946,-7.5796,-7.5587,-7.5647,-7.5677,-7.6036,-7.6425,-7.6664,-7.6754,-7.7053,-7.7352,-7.7711,-7.7771,-7.7562,-7.7652,-7.7921,-7.816,-7.843,-7.8669,-7.8759,-7.8759,-7.8759,-7.8908,-7.9208,-7.9417,-7.9477,-7.9477,-7.9447,-7.2195,-7.1818,-7.3066,-7.3879,-7.4227,-7.3443,-7.3647,-7.4663,-7.5795,-7.6317,-7.6085,-7.5737,-7.5534,-7.565,-7.565,-7.5708,-7.5998,-7.6288,-7.6462,-7.6462,-7.6462,-7.6462,-7.6637,-7.6985,-7.6927,-7.684,-7.6898,-7.7188,-7.6724,-7.6753,-7.7101,-7.7391,-7.7478,-7.8059,-7.8959,-7.9133,-7.9764,-8.0571,-8.1161,-8.1265,-8.0585,-8.0348,-8.0225,-7.9267,-7.8938,-7.8849,-7.8669,-7.816,-7.7532,-7.6904,-7.6185,-7.5497,-7.4809,-7.433,-7.4061,-7.4091,-7.424,-7.436,-7.4569,-7.5018,-7.5078,-7.5108,-7.4929,-7.4779,-7.436,-7.3911,-7.3821,-7.3851,-7.3762,-7.3941,-7.424,-7.454,-7.4839,-7.5347,-7.5946,-7.6335,-7.6604,-7.6844,-7.6844,-7.6754,-7.6425,-7.6185,-7.6215,-7.6245,-7.6185,-7.6544,-7.6634,-7.6634,-7.6754,-7.6514,-7.6344,-7.6664,-7.7113,-7.7352,-7.7203,-7.7352,-7.7741,-7.8071,-7.834,-7.846,-7.822,-7.843,-7.8729,-7.8789,-7.8819,-7.8789,-7.8849,-7.9088,-7.9357,-7.9477,-7.9776,-8.0135,-8.0225,-8.0018,-8.0075,-7.1818,-7.1789,-7.3066,-7.3705,-7.385,-7.3995,-7.4459,-7.5272,-7.5563,-7.5446,-7.5127,-7.5359,-7.5504,-7.5534,-7.5969,-7.6143,-7.6259,-7.6317,-7.6433,-7.6462,-7.6462,-7.6462,-7.6462,-7.6666,-7.6608,-7.6579,-7.6608,-7.6695,-7.6608,-7.684,-7.7217,-7.7449,-7.7827,-7.864,-7.922,-7.9336,-7.987,-8.0463,-8.0717,-8.083,-8.0399,-8.0227,-8.0051,-7.9781,-7.9603,-7.9447,-7.9088,-7.84,-7.7921,-7.7442,-7.6425,-7.5617,-7.4899,-7.4749,-7.4659,-7.4719,-7.5108,-7.5258,-7.5437,-7.5736,-7.5916,-7.5736,-7.5557,-7.5288,-7.4958,-7.4599,-7.442,-7.448,-7.4659,-7.4899,-7.5198,-7.5527,-7.5916,-7.6544,-7.7143,-7.7352,-7.7562,-7.7532,-7.7562,-7.7293,-7.6933,-7.6874,-7.6904,-7.6933,-7.6844,-7.6814,-7.6784,-7.6904,-7.7382,-7.727,-7.683,-7.7211,-7.8011,-7.819,-7.7951,-7.7891,-7.8047,-7.84,-7.8579,-7.8699,-7.8819,-7.8794,-7.8738,-7.8913,-7.9058,-7.9062,-7.9361,-7.9926,-8.0135,-7.9901,-7.9902,-8.0139,-8.0556,-8.0556,-8.0705,-7.1324,-7.1005,-7.2195,-7.2921,-7.3211,-7.3531,-7.4198,-7.4866,-7.4488,-7.4372,-7.4692,-7.5417,-7.5766,-7.565,-7.6172,-7.6462,-7.6462,-7.6462,-7.6462,-7.6462,-7.6433,-7.6462,-7.6462,-7.6433,-7.6491,-7.6462,-7.6462,-7.6521,-7.6579,-7.7043,-7.7391,-7.7566,-7.8233,-7.8901,-7.9307,-7.9511,-7.9685,-7.983,-8.0172,-7.9977,-7.973,-7.9804,-7.9692,-7.9605,-7.9248,-7.9185,-7.9033,-7.8405,-7.822,-7.7711,-7.6814,-7.6365,-7.5916,-7.5826,-7.5766,-7.5856,-7.6066,-7.6305,-7.6425,-7.6574,-7.6724,-7.6455,-7.6006,-7.5617,-7.5437,-7.5078,-7.4689,-7.4779,-7.5228,-7.5497,-7.5856,-7.6185,-7.6724,-7.7322,-7.7831,-7.816,-7.8071,-7.7921,-7.8071,-7.816,-7.7831,-7.7592,-7.7711,-7.7951,-7.7891,-7.7748,-7.7599,-7.7479,-7.7868,-7.767,-7.7462,-7.7432,-7.7997,-7.8525,-7.843,-7.8286,-7.8435,-7.8614,-7.8499,-7.8563,-7.8565,-7.8625,-7.8714,-7.8981,-7.9189,-7.9367,-7.9694,-7.9991,-7.9958,-7.9594,-7.9741,-8.0099,-8.0517,-8.0905,-8.0968,-7.0831,-7.0134,-7.1208,-7.1992,-7.2456,-7.2602,-7.3298,-7.4111,-7.3298,-7.3443,-7.443,-7.5563,-7.5795,-7.5766,-7.6027,-7.6288,-7.6433,-7.6462,-7.6462,-7.6433,-7.6317,-7.6346,-7.6346,-7.6346,-7.6346,-7.6404,-7.6462,-7.6462,-7.6491,-7.7043,-7.7478,-7.7682,-7.8349,-7.9162,-7.9365,-7.9569,-7.9685,-7.9307,-7.9133,-7.893,-7.8919,-7.9173,-7.9182,-7.8773,-7.8449,-7.8387,-7.8503,-7.844,-7.846,-7.7981,-7.7352,-7.6904,-7.6634,-7.6514,-7.6574,-7.6634,-7.6814,-7.6933,-7.7023,-7.7173,-7.7143,-7.6904,-7.6365,-7.6096,-7.5946,-7.5647,-7.5258,-7.5209,-7.5657,-7.6125,-7.6485,-7.6904,-7.7442,-7.7921,-7.84,-7.8729,-7.8489,-7.8136,-7.8346,-7.8585,-7.8375,-7.8107,-7.8256,-7.8525,-7.8585,-7.847,-7.8354,-7.8354,-7.8149,-7.768,-7.721,-7.7151,-7.7563,-7.8149,-7.844,-7.844,-7.8209,-7.8063,-7.7946,-7.8183,-7.833,-7.8388,-7.8652,-7.9035,-7.9241,-7.9329,-7.9447,-7.9682,-7.9489,-7.9288,-7.9802,-8.0103,-8.0366,-8.0726,-8.0902,-7.0308,-7.0599,-7.1353,-7.1731,-7.1934,-7.2369,-7.3066,-7.3676,-7.356,-7.3618,-7.3937,-7.4459,-7.4779,-7.475,-7.5388,-7.5853,-7.6317,-7.6404,-7.6462,-7.6433,-7.6027,-7.6114,-7.623,-7.6201,-7.6114,-7.6259,-7.6462,-7.6462,-7.655,-7.7072,-7.7391,-7.742,-7.8088,-7.8582,-7.8611,-7.8814,-7.8843,-7.8611,-7.8553,-7.8407,-7.8532,-7.8722,-7.8962,-7.9035,-7.8922,-7.8952,-7.9039,-7.8883,-7.8789,-7.846,-7.8011,-7.7472,-7.7203,-7.7083,-7.7083,-7.7121,-7.73,-7.745,-7.7539,-7.7778,-7.7778,-7.7622,-7.7203,-7.6852,-7.6643,-7.6344,-7.5825,-7.5401,-7.5869,-7.6442,-7.674,-7.7158,-7.7635,-7.8022,-7.844,-7.847,-7.835,-7.8176,-7.8265,-7.8325,-7.812,-7.7855,-7.7593,-7.7887,-7.8179,-7.7887,-7.7593,-7.7623,-7.7623,-7.7298,-7.6853,-7.7002,-7.718,-7.7475,-7.7593,-7.774,-7.7593,-7.7475,-7.7355,-7.7525,-7.7811,-7.8219,-7.8387,-7.8823,-7.8998,-7.9056,-7.9172,-7.9317,-7.9278,-7.9226,-7.9859,-8.0248,-8.0165,-8.0339,-8.0484]}]]